Time,TemperatureF,DewpointF,PressureIn,WindDirection,WindDirectionDegrees,WindSpeedMPH,WindSpeedGustMPH,Humidity,HourlyPrecipIn,Conditions,Clouds,dailyrainin,SolarRadiationWatts/m^2,SoftwareType,DateUTC
2013-05-28 00:00:00,78.3,40.6,29.21,South,181,7.4,9.0,26,-99.99,,,0.00,0,rob ver 1A,2013-05-28 07:00:00,
2013-05-28 00:01:00,79.2,46.8,29.15,South,190,8.7,11.1,32,-99.99,,,0.00,0,rob ver 1B,2013-05-28 07:01:00,
2013-05-28 00:02:00,79.1,46.8,29.15,South,189,7.2,8.6,32,-99.99,,,0.00,0,rob ver 1B,2013-05-28 07:02:00,
2013-05-28 00:03:00,79.1,46.9,29.15,South,191,7.8,10.2,32,-99.99,,,0.00,0,rob ver 1B,2013-05-28 07:03:00,
2013-05-28 00:04:00,79.1,46.9,29.15,South,189,7.5,9.2,32,-99.99,,,0.00,0,rob ver 1B,2013-05-28 07:04:00,
2013-05-28 00:05:00,78.1,40.5,29.21,South,181,7.0,9.1,26,-99.99,,,0.00,0,rob ver 1A,2013-05-28 07:05:00,
2013-05-28 00:06:00,78.9,46.9,29.15,South,186,6.4,8.3,32,-99.99,,,0.00,0,rob ver 1B,2013-05-28 07:06:00,
2013-05-28 00:07:00,78.9,47.0,29.15,South,184,7.9,10.0,32,-99.99,,,0.00,0,rob ver 1B,2013-05-28 07:07:00,
2013-05-28 00:08:00,78.9,47.0,29.15,South,186,7.5,8.9,32,-99.99,,,0.00,0,rob ver 1B,2013-05-28 07:08:00,
2013-05-28 00:09:00,79.0,46.9,29.15,South,181,6.6,7.9,32,-99.99,,,0.00,0,rob ver 1B,2013-05-28 07:09:00,
2013-05-28 00:10:00,78.0,40.3,29.21,South,182,7.6,9.2,26,-99.99,,,0.00,0,rob ver 1A,2013-05-28 07:10:00,
2013-05-28 00:11:00,78.8,46.8,29.15,South,175,6.1,7.5,32,-99.99,,,0.00,0,rob ver 1B,2013-05-28 07:11:00,
2013-05-28 00:12:00,78.8,46.8,29.15,South,176,6.8,8.6,32,-99.99,,,0.00,0,rob ver 1B,2013-05-28 07:12:00,
2013-05-28 00:13:00,78.7,46.8,29.15,South,173,7.2,8.8,32,-99.99,,,0.00,0,rob ver 1B,2013-05-28 07:13:00,
2013-05-28 00:14:00,78.7,46.8,29.15,South,174,7.2,9.5,32,-99.99,,,0.00,0,rob ver 1B,2013-05-28 07:14:00,
2013-05-28 00:15:00,78.7,46.8,29.15,South,176,7.3,8.3,32,-99.99,,,0.00,0,rob ver 1B,2013-05-28 07:15:00,
2013-05-28 00:16:00,77.7,40.3,29.21,South,182,8.5,11.0,26,-99.99,,,0.00,0,rob ver 1A,2013-05-28 07:16:00,
2013-05-28 00:17:00,78.7,46.7,29.15,South,176,7.7,10.3,32,-99.99,,,0.00,0,rob ver 1B,2013-05-28 07:17:00,
2013-05-28 00:18:00,78.6,46.7,29.15,South,175,7.4,10.0,32,-99.99,,,0.00,0,rob ver 1B,2013-05-28 07:18:00,
2013-05-28 00:19:00,78.6,46.7,29.15,South,175,7.3,8.9,32,-99.99,,,0.00,0,rob ver 1B,2013-05-28 07:19:00,
2013-05-28 00:20:00,78.6,46.7,29.15,South,175,7.5,9.2,32,-99.99,,,0.00,0,rob ver 1B,2013-05-28 07:20:00,
2013-05-28 00:21:00,77.5,40.6,29.21,South,176,7.8,9.8,26,-99.99,,,0.00,0,rob ver 1A,2013-05-28 07:21:00,
2013-05-28 00:22:00,78.5,46.7,29.15,South,175,7.7,10.2,32,-99.99,,,0.00,0,rob ver 1B,2013-05-28 07:22:00,
2013-05-28 00:23:00,78.6,46.8,29.15,South,173,8.6,9.8,32,-99.99,,,0.00,0,rob ver 1B,2013-05-28 07:23:00,
2013-05-28 00:24:00,78.5,46.7,29.15,South,172,8.1,9.3,32,-99.99,,,0.00,0,rob ver 1B,2013-05-28 07:24:00,
2013-05-28 00:25:00,78.5,46.7,29.15,South,170,8.3,9.6,32,-99.99,,,0.00,0,rob ver 1B,2013-05-28 07:25:00,
2013-05-28 00:26:00,77.4,40.5,29.21,South,177,8.2,10.9,26,-99.99,,,0.00,0,rob ver 1A,2013-05-28 07:26:00,
2013-05-28 00:27:00,78.4,46.7,29.15,South,169,8.4,9.5,32,-99.99,,,0.00,0,rob ver 1B,2013-05-28 07:27:00,
2013-05-28 00:28:00,78.4,46.6,29.15,South,171,8.2,10.2,32,-99.99,,,0.00,0,rob ver 1B,2013-05-28 07:28:00,
2013-05-28 00:29:00,78.4,46.6,29.15,South,175,8.1,9.9,32,-99.99,,,0.00,0,rob ver 1B,2013-05-28 07:29:00,
2013-05-28 00:30:00,78.4,46.7,29.15,South,176,7.9,9.4,32,-99.99,,,0.00,0,rob ver 1B,2013-05-28 07:30:00,
2013-05-28 00:31:00,77.3,40.5,29.21,SSE,166,7.4,8.9,26,-99.99,,,0.00,0,rob ver 1A,2013-05-28 07:31:00,
2013-05-28 00:33:00,78.3,46.6,29.15,South,178,6.9,7.7,32,-99.99,,,0.00,0,rob ver 1B,2013-05-28 07:33:00,
2013-05-28 00:34:00,78.2,46.6,29.15,South,179,7.0,8.6,32,-99.99,,,0.00,0,rob ver 1B,2013-05-28 07:34:00,
2013-05-28 00:35:00,78.1,46.5,29.15,South,177,6.7,7.9,32,-99.99,,,0.00,0,rob ver 1B,2013-05-28 07:35:00,
2013-05-28 00:36:00,78.1,46.6,29.15,South,175,7.7,8.9,32,-99.99,,,0.00,0,rob ver 1B,2013-05-28 07:36:00,
2013-05-28 00:37:00,77.0,40.2,29.21,South,171,6.8,8.4,26,-99.99,,,0.00,0,rob ver 1A,2013-05-28 07:37:00,
2013-05-28 00:38:00,78.1,46.5,29.15,South,174,7.5,8.6,32,-99.99,,,0.00,0,rob ver 1B,2013-05-28 07:38:00,
2013-05-28 00:39:00,78.0,46.5,29.15,South,173,7.5,9.1,32,-99.99,,,0.00,0,rob ver 1B,2013-05-28 07:39:00,
2013-05-28 00:40:00,78.0,46.5,29.15,South,172,8.3,11.4,32,-99.99,,,0.00,0,rob ver 1B,2013-05-28 07:40:00,
2013-05-28 00:41:00,78.0,46.5,29.15,South,172,8.3,10.7,32,-99.99,,,0.00,0,rob ver 1B,2013-05-28 07:41:00,
2013-05-28 00:42:00,76.8,40.3,29.21,SSE,165,6.0,7.5,27,-99.99,,,0.00,0,rob ver 1A,2013-05-28 07:42:00,
2013-05-28 00:43:00,78.0,46.5,29.15,South,170,9.2,10.5,32,-99.99,,,0.00,0,rob ver 1B,2013-05-28 07:43:00,
2013-05-28 00:44:00,78.0,46.4,29.15,South,170,8.5,10.6,32,-99.99,,,0.00,0,rob ver 1B,2013-05-28 07:44:00,
2013-05-28 00:45:00,78.0,46.4,29.15,South,169,8.2,9.8,32,-99.99,,,0.00,0,rob ver 1B,2013-05-28 07:45:00,
2013-05-28 00:46:00,77.9,46.3,29.15,South,169,8.4,9.6,32,-99.99,,,0.00,0,rob ver 1B,2013-05-28 07:46:00,
2013-05-28 00:47:00,76.4,40.4,29.21,SSE,155,5.5,6.6,27,-99.99,,,0.00,0,rob ver 1A,2013-05-28 07:47:00,
2013-05-28 00:48:00,77.8,46.4,29.15,SSE,168,8.8,10.3,32,-99.99,,,0.00,0,rob ver 1B,2013-05-28 07:48:00,
2013-05-28 00:49:00,77.7,46.3,29.15,SSE,167,7.8,9.6,33,-99.99,,,0.00,0,rob ver 1B,2013-05-28 07:49:00,
2013-05-28 00:50:00,77.7,46.3,29.15,SSE,166,8.5,11.1,33,-99.99,,,0.00,0,rob ver 1B,2013-05-28 07:50:00,
2013-05-28 00:51:00,77.7,46.3,29.15,SSE,168,8.3,10.8,33,-99.99,,,0.00,0,rob ver 1B,2013-05-28 07:51:00,
2013-05-28 00:52:00,77.7,46.3,29.15,South,170,7.6,9.2,33,-99.99,,,0.00,0,rob ver 1B,2013-05-28 07:52:00,
2013-05-28 00:53:00,76.2,40.6,29.21,SSE,151,5.5,6.3,27,-99.99,,,0.00,0,rob ver 1A,2013-05-28 07:53:00,
2013-05-28 00:54:00,77.6,46.4,29.15,South,172,7.7,9.9,33,-99.99,,,0.00,0,rob ver 1B,2013-05-28 07:54:00,
2013-05-28 00:55:00,77.6,46.4,29.15,South,171,7.7,9.4,33,-99.99,,,0.00,0,rob ver 1B,2013-05-28 07:55:00,
2013-05-28 00:56:00,77.6,46.5,29.15,South,170,8.3,9.7,33,-99.99,,,0.00,0,rob ver 1B,2013-05-28 07:56:00,
2013-05-28 00:57:00,77.6,46.5,29.15,South,173,7.2,8.6,33,-99.99,,,0.00,0,rob ver 1B,2013-05-28 07:57:00,
2013-05-28 00:58:00,75.8,40.5,29.21,SSE,167,5.4,6.4,28,-99.99,,,0.00,0,rob ver 1A,2013-05-28 07:58:00,
2013-05-28 00:59:00,77.5,46.6,29.15,South,177,7.9,9.5,33,-99.99,,,0.00,0,rob ver 1B,2013-05-28 07:59:00,
2013-05-28 01:00:00,77.5,46.7,29.15,South,177,7.9,10.0,33,-99.99,,,0.00,0,rob ver 1B,2013-05-28 08:00:00,
2013-05-28 01:01:00,77.5,46.8,29.15,South,178,9.0,11.5,33,-99.99,,,0.00,0,rob ver 1B,2013-05-28 08:01:00,
2013-05-28 01:02:00,77.5,46.8,29.15,South,179,7.2,9.5,33,-99.99,,,0.00,0,rob ver 1B,2013-05-28 08:02:00,
2013-05-28 01:03:00,75.3,40.6,29.18,South,174,5.4,6.0,28,-99.99,,,0.00,0,rob ver 1A,2013-05-28 08:03:00,
2013-05-28 01:04:00,77.4,46.8,29.15,South,184,7.7,9.9,33,-99.99,,,0.00,0,rob ver 1B,2013-05-28 08:04:00,
2013-05-28 01:05:00,77.4,46.8,29.15,South,185,7.0,9.2,33,-99.99,,,0.00,0,rob ver 1B,2013-05-28 08:05:00,
2013-05-28 01:06:00,77.3,46.8,29.15,South,186,6.5,8.7,33,-99.99,,,0.00,0,rob ver 1B,2013-05-28 08:06:00,
2013-05-28 01:07:00,77.2,46.8,29.15,South,185,6.5,9.1,34,-99.99,,,0.00,0,rob ver 1B,2013-05-28 08:07:00,
2013-05-28 01:08:00,77.2,46.8,29.15,South,187,6.1,7.9,34,-99.99,,,0.00,0,rob ver 1B,2013-05-28 08:08:00,
2013-05-28 01:09:00,74.8,40.8,29.18,South,177,5.3,5.9,29,-99.99,,,0.00,0,rob ver 1A,2013-05-28 08:09:00,
2013-05-28 01:10:00,77.1,46.9,29.15,South,184,6.9,9.6,34,-99.99,,,0.00,0,rob ver 1B,2013-05-28 08:10:00,
2013-05-28 01:11:00,77.1,46.9,29.15,South,186,6.9,9.4,34,-99.99,,,0.00,0,rob ver 1B,2013-05-28 08:11:00,
2013-05-28 01:12:00,77.0,47.0,29.15,South,187,6.9,9.6,34,-99.99,,,0.00,0,rob ver 1B,2013-05-28 08:12:00,
2013-05-28 01:13:00,77.0,47.0,29.15,South,185,6.6,8.5,34,-99.99,,,0.00,0,rob ver 1B,2013-05-28 08:13:00,
2013-05-28 01:14:00,77.0,47.1,29.15,South,185,6.9,9.0,34,-99.99,,,0.00,0,rob ver 1B,2013-05-28 08:14:00,
2013-05-28 01:15:00,75.0,41.1,29.18,South,184,5.6,7.2,29,-99.99,,,0.00,0,rob ver 1A,2013-05-28 08:15:00,
2013-05-28 01:16:00,76.9,47.6,29.15,SSW,193,7.1,10.6,35,-99.99,,,0.00,0,rob ver 1B,2013-05-28 08:16:00,
2013-05-28 01:17:00,76.9,48.0,29.15,SSW,193,7.9,11.0,35,-99.99,,,0.00,0,rob ver 1B,2013-05-28 08:17:00,
2013-05-28 01:18:00,76.9,48.1,29.15,SSW,193,7.8,10.1,36,-99.99,,,0.00,0,rob ver 1B,2013-05-28 08:18:00,
2013-05-28 01:19:00,76.9,48.2,29.15,SSW,198,7.3,8.5,36,-99.99,,,0.00,0,rob ver 1B,2013-05-28 08:19:00,
2013-05-28 01:20:00,75.2,40.7,29.18,South,176,4.6,5.5,28,-99.99,,,0.00,0,rob ver 1A,2013-05-28 08:20:00,
2013-05-28 01:21:00,76.8,48.4,29.15,SSW,201,7.1,8.2,36,-99.99,,,0.00,0,rob ver 1B,2013-05-28 08:21:00,
2013-05-28 01:22:00,76.8,48.5,29.15,SSW,204,7.9,9.2,36,-99.99,,,0.00,0,rob ver 1B,2013-05-28 08:22:00,
2013-05-28 01:23:00,76.8,48.5,29.15,SSW,205,6.0,8.1,36,-99.99,,,0.00,0,rob ver 1B,2013-05-28 08:23:00,
2013-05-28 01:24:00,76.7,48.5,29.15,SSW,209,5.5,6.7,36,-99.99,,,0.00,0,rob ver 1B,2013-05-28 08:24:00,
2013-05-28 01:25:00,76.7,48.5,29.15,SSW,208,7.1,9.6,37,-99.99,,,0.00,0,rob ver 1B,2013-05-28 08:25:00,
2013-05-28 01:26:00,75.1,40.7,29.18,SSW,198,5.6,7.0,28,-99.99,,,0.00,0,rob ver 1A,2013-05-28 08:26:00,
2013-05-28 01:27:00,76.6,48.6,29.15,SSW,207,8.2,9.6,37,-99.99,,,0.00,0,rob ver 1B,2013-05-28 08:27:00,
2013-05-28 01:28:00,76.6,48.5,29.15,SSW,207,7.3,9.2,37,-99.99,,,0.00,0,rob ver 1B,2013-05-28 08:28:00,
2013-05-28 01:29:00,76.5,48.5,29.15,SSW,206,7.3,9.5,37,-99.99,,,0.00,0,rob ver 1B,2013-05-28 08:29:00,
2013-05-28 01:30:00,76.5,48.5,29.15,SSW,206,7.7,9.3,37,-99.99,,,0.00,0,rob ver 1B,2013-05-28 08:30:00,
2013-05-28 01:31:00,76.4,48.5,29.15,SSW,201,8.2,10.4,37,-99.99,,,0.00,0,rob ver 1B,2013-05-28 08:31:00,
2013-05-28 01:32:00,74.8,40.8,29.18,SSW,196,5.1,6.2,29,-99.99,,,0.00,0,rob ver 1A,2013-05-28 08:32:00,
2013-05-28 01:33:00,76.3,48.5,29.15,SSW,203,6.5,7.4,37,-99.99,,,0.00,0,rob ver 1B,2013-05-28 08:33:00,
2013-05-28 01:34:00,76.2,48.4,29.15,SSW,201,5.6,7.3,37,-99.99,,,0.00,0,rob ver 1B,2013-05-28 08:34:00,
2013-05-28 01:35:00,76.1,48.4,29.15,SSW,201,7.1,8.6,37,-99.99,,,0.00,0,rob ver 1B,2013-05-28 08:35:00,
2013-05-28 01:36:00,76.1,48.5,29.15,SSW,194,6.6,8.4,37,-99.99,,,0.00,0,rob ver 1B,2013-05-28 08:36:00,
2013-05-28 01:37:00,74.9,41.1,29.18,South,183,7.1,8.9,29,-99.99,,,0.00,0,rob ver 1A,2013-05-28 08:37:00,
2013-05-28 01:38:00,76.1,48.4,29.15,SSW,201,6.2,8.2,37,-99.99,,,0.00,0,rob ver 1B,2013-05-28 08:38:00,
2013-05-28 01:39:00,76.1,48.4,29.15,SSW,198,6.4,9.1,37,-99.99,,,0.00,0,rob ver 1B,2013-05-28 08:39:00,
2013-05-28 01:40:00,76.0,48.4,29.15,SSW,198,6.1,7.3,37,-99.99,,,0.00,0,rob ver 1B,2013-05-28 08:40:00,
2013-05-28 01:41:00,76.0,48.4,29.15,SSW,202,6.2,7.3,37,-99.99,,,0.00,0,rob ver 1B,2013-05-28 08:41:00,
2013-05-28 01:42:00,74.6,40.7,29.18,South,187,5.5,6.8,29,-99.99,,,0.00,0,rob ver 1A,2013-05-28 08:42:00,
2013-05-28 01:43:00,75.9,48.4,29.15,SSW,202,5.7,7.3,37,-99.99,,,0.00,0,rob ver 1B,2013-05-28 08:43:00,
2013-05-28 01:44:00,75.9,48.4,29.15,SSW,203,4.9,6.2,37,-99.99,,,0.00,0,rob ver 1B,2013-05-28 08:44:00,
2013-05-28 01:45:00,75.9,48.4,29.15,SSW,199,4.8,6.0,37,-99.99,,,0.00,0,rob ver 1B,2013-05-28 08:45:00,
2013-05-28 01:46:00,75.9,48.4,29.15,SSW,195,4.3,6.6,37,-99.99,,,0.00,0,rob ver 1B,2013-05-28 08:46:00,
2013-05-28 01:47:00,75.8,48.4,29.15,SSW,192,4.6,6.1,38,-99.99,,,0.00,0,rob ver 1B,2013-05-28 08:47:00,
2013-05-28 01:48:00,74.5,40.6,29.18,South,173,4.3,5.4,29,-99.99,,,0.00,0,rob ver 1A,2013-05-28 08:48:00,
2013-05-28 01:49:00,75.8,48.5,29.15,South,184,4.1,5.4,38,-99.99,,,0.00,0,rob ver 1B,2013-05-28 08:49:00,
2013-05-28 01:50:00,75.8,48.4,29.15,South,180,4.3,5.6,38,-99.99,,,0.00,0,rob ver 1B,2013-05-28 08:50:00,
2013-05-28 01:51:00,75.8,48.5,29.15,South,170,4.4,5.5,37,-99.99,,,0.00,0,rob ver 1B,2013-05-28 08:51:00,
2013-05-28 01:52:00,75.8,48.5,29.15,SSE,164,4.8,5.8,37,-99.99,,,0.00,0,rob ver 1B,2013-05-28 08:52:00,
2013-05-28 01:53:00,74.4,40.5,29.18,South,176,3.9,4.6,29,-99.99,,,0.00,0,rob ver 1A,2013-05-28 08:53:00,
2013-05-28 01:54:00,75.8,48.5,29.15,SSE,156,5.2,6.4,38,-99.99,,,0.00,0,rob ver 1B,2013-05-28 08:54:00,
2013-05-28 01:55:00,75.7,48.4,29.15,SSE,161,4.6,5.8,38,-99.99,,,0.00,0,rob ver 1B,2013-05-28 08:55:00,
2013-05-28 01:56:00,75.7,48.5,29.15,SSE,153,4.9,6.3,38,-99.99,,,0.00,0,rob ver 1B,2013-05-28 08:56:00,
2013-05-28 01:57:00,75.6,48.5,29.15,SE,143,4.7,6.2,38,-99.99,,,0.00,0,rob ver 1B,2013-05-28 08:57:00,
2013-05-28 01:58:00,74.3,40.6,29.18,SSE,152,2.8,3.6,29,-99.99,,,0.00,0,rob ver 1A,2013-05-28 08:58:00,
2013-05-28 01:59:00,75.5,48.6,29.15,SE,145,5.9,9.2,38,-99.99,,,0.00,0,rob ver 1B,2013-05-28 08:59:00,
2013-05-28 02:00:00,75.5,48.7,29.15,SE,142,5.7,6.8,38,-99.99,,,0.00,0,rob ver 1B,2013-05-28 09:00:00,
2013-05-28 02:01:00,75.4,48.8,29.15,SE,141,5.3,6.8,38,-99.99,,,0.00,0,rob ver 1B,2013-05-28 09:01:00,
2013-05-28 02:02:00,75.4,48.9,29.15,SE,143,6.0,7.3,39,-99.99,,,0.00,0,rob ver 1B,2013-05-28 09:02:00,
2013-05-28 02:03:00,75.3,48.9,29.15,SSE,148,5.2,6.6,39,-99.99,,,0.00,0,rob ver 1B,2013-05-28 09:03:00,
2013-05-28 02:04:00,74.0,40.5,29.18,SE,131,3.0,3.7,29,-99.99,,,0.00,0,rob ver 1A,2013-05-28 09:04:00,
2013-05-28 02:05:00,75.4,49.0,29.15,SSE,155,7.1,8.8,39,-99.99,,,0.00,0,rob ver 1B,2013-05-28 09:05:00,
2013-05-28 02:06:00,75.4,49.0,29.15,SSE,155,6.8,8.7,39,-99.99,,,0.00,0,rob ver 1B,2013-05-28 09:06:00,
2013-05-28 02:07:00,75.4,49.0,29.15,SSE,164,6.8,9.4,39,-99.99,,,0.00,0,rob ver 1B,2013-05-28 09:07:00,
2013-05-28 02:08:00,75.3,48.9,29.15,SSE,167,7.6,10.0,39,-99.99,,,0.00,0,rob ver 1B,2013-05-28 09:08:00,
2013-05-28 02:09:00,74.1,40.5,29.18,SE,143,4.6,5.2,29,-99.99,,,0.00,0,rob ver 1A,2013-05-28 09:09:00,
2013-05-28 02:10:00,75.3,49.0,29.15,SSE,166,7.5,8.8,39,-99.99,,,0.00,0,rob ver 1B,2013-05-28 09:10:00,
2013-05-28 02:11:00,75.3,49.1,29.15,SSE,168,8.7,9.8,39,-99.99,,,0.00,0,rob ver 1B,2013-05-28 09:11:00,
2013-05-28 02:12:00,75.3,49.1,29.15,South,184,8.1,10.2,39,-99.99,,,0.00,0,rob ver 1B,2013-05-28 09:12:00,
2013-05-28 02:13:00,75.3,49.0,29.15,South,179,7.7,9.7,39,-99.99,,,0.00,0,rob ver 1B,2013-05-28 09:13:00,
2013-05-28 02:14:00,75.3,49.0,29.15,South,178,8.6,10.4,39,-99.99,,,0.00,0,rob ver 1B,2013-05-28 09:14:00,
2013-05-28 02:15:00,73.8,40.3,29.18,SE,132,4.7,5.3,29,-99.99,,,0.00,0,rob ver 1A,2013-05-28 09:15:00,
2013-05-28 02:16:00,75.2,49.0,29.15,South,172,8.0,10.6,39,-99.99,,,0.00,0,rob ver 1B,2013-05-28 09:16:00,
2013-05-28 02:17:00,75.3,49.0,29.15,SSE,167,9.4,11.9,39,-99.99,,,0.00,0,rob ver 1B,2013-05-28 09:17:00,
2013-05-28 02:18:00,75.3,48.9,29.15,South,179,7.4,9.3,39,-99.99,,,0.00,0,rob ver 1B,2013-05-28 09:18:00,
2013-05-28 02:19:00,75.2,49.0,29.15,South,173,9.1,10.4,39,-99.99,,,0.00,0,rob ver 1B,2013-05-28 09:19:00,
2013-05-28 02:20:00,73.7,40.7,29.18,SE,136,4.7,6.0,30,-99.99,,,0.00,0,rob ver 1A,2013-05-28 09:20:00,
2013-05-28 02:21:00,75.3,49.0,29.15,South,169,8.4,10.2,39,-99.99,,,0.00,0,rob ver 1B,2013-05-28 09:21:00,
2013-05-28 02:22:00,75.3,49.0,29.15,South,172,8.4,10.0,39,-99.99,,,0.00,0,rob ver 1B,2013-05-28 09:22:00,
2013-05-28 02:23:00,75.2,49.0,29.15,South,170,8.5,10.0,39,-99.99,,,0.00,0,rob ver 1B,2013-05-28 09:23:00,
2013-05-28 02:24:00,75.3,49.1,29.15,South,169,7.7,10.6,39,-99.99,,,0.00,0,rob ver 1B,2013-05-28 09:24:00,
2013-05-28 02:25:00,74.3,40.8,29.18,SSE,160,5.4,6.6,29,-99.99,,,0.00,0,rob ver 1A,2013-05-28 09:25:00,
2013-05-28 02:26:00,75.2,49.0,29.15,South,176,7.3,8.4,39,-99.99,,,0.00,0,rob ver 1B,2013-05-28 09:26:00,
2013-05-28 02:27:00,75.1,48.9,29.15,South,176,6.6,7.7,39,-99.99,,,0.00,0,rob ver 1B,2013-05-28 09:27:00,
2013-05-28 02:28:00,75.0,48.9,29.15,South,172,6.4,9.3,39,-99.99,,,0.00,0,rob ver 1B,2013-05-28 09:28:00,
2013-05-28 02:29:00,74.9,48.9,29.15,South,178,6.5,8.0,39,-99.99,,,0.00,0,rob ver 1B,2013-05-28 09:29:00,
2013-05-28 02:30:00,73.7,40.4,29.18,SSE,150,4.5,5.3,30,-99.99,,,0.00,0,rob ver 1A,2013-05-28 09:30:00,
2013-05-28 02:31:00,74.9,48.9,29.15,South,176,6.6,9.6,39,-99.99,,,0.00,0,rob ver 1B,2013-05-28 09:31:00,
2013-05-28 02:32:00,74.8,48.8,29.15,South,177,5.9,8.1,39,-99.99,,,0.00,0,rob ver 1B,2013-05-28 09:32:00,
2013-05-28 02:33:00,74.8,48.8,29.15,South,174,5.2,6.2,39,-99.99,,,0.00,0,rob ver 1B,2013-05-28 09:33:00,
2013-05-28 02:34:00,74.7,48.8,29.15,South,170,5.4,6.9,39,-99.99,,,0.00,0,rob ver 1B,2013-05-28 09:34:00,
2013-05-28 02:35:00,74.7,48.7,29.15,SSE,165,4.9,5.8,39,-99.99,,,0.00,0,rob ver 1B,2013-05-28 09:35:00,
2013-05-28 02:36:00,73.2,40.2,29.18,SSE,151,3.9,4.4,30,-99.99,,,0.00,0,rob ver 1A,2013-05-28 09:36:00,
2013-05-28 02:37:00,74.6,48.8,29.15,SSE,153,4.0,4.9,40,-99.99,,,0.00,0,rob ver 1B,2013-05-28 09:37:00,
2013-05-28 02:38:00,74.5,48.7,29.15,SE,143,3.4,4.5,40,-99.99,,,0.00,0,rob ver 1B,2013-05-28 09:38:00,
2013-05-28 02:39:00,74.4,48.6,29.15,SE,132,2.9,3.5,40,-99.99,,,0.00,0,rob ver 1B,2013-05-28 09:39:00,
2013-05-28 02:40:00,74.4,48.5,29.15,ESE,122,2.6,3.3,40,-99.99,,,0.00,0,rob ver 1B,2013-05-28 09:40:00,
2013-05-28 02:41:00,72.5,39.7,29.18,ESE,121,2.4,3.2,30,-99.99,,,0.00,0,rob ver 1A,2013-05-28 09:41:00,
2013-05-28 02:42:00,74.2,48.4,29.15,ESE,111,2.7,3.0,40,-99.99,,,0.00,0,rob ver 1B,2013-05-28 09:42:00,
2013-05-28 02:43:00,74.1,48.3,29.15,ESE,103,2.7,3.0,40,-99.99,,,0.00,0,rob ver 1B,2013-05-28 09:43:00,
2013-05-28 02:44:00,74.0,48.3,29.15,ESE,107,2.7,3.0,39,-99.99,,,0.00,0,rob ver 1B,2013-05-28 09:44:00,
2013-05-28 02:45:00,74.0,48.1,29.15,ESE,121,3.1,4.2,39,-99.99,,,0.00,0,rob ver 1B,2013-05-28 09:45:00,
2013-05-28 02:46:00,72.1,39.1,29.18,ENE,57,4.1,4.7,29,-99.99,,,0.00,0,rob ver 1A,2013-05-28 09:46:00,
2013-05-28 02:47:00,74.0,48.1,29.15,SE,136,3.5,4.2,39,-99.99,,,0.00,0,rob ver 1B,2013-05-28 09:47:00,
2013-05-28 02:48:00,74.0,48.0,29.15,SE,139,3.5,4.4,39,-99.99,,,0.00,0,rob ver 1B,2013-05-28 09:48:00,
2013-05-28 02:49:00,74.0,48.0,29.15,SE,139,3.6,4.4,39,-99.99,,,0.00,0,rob ver 1B,2013-05-28 09:49:00,
2013-05-28 02:50:00,74.0,48.0,29.15,SE,142,4.3,5.6,39,-99.99,,,0.00,0,rob ver 1B,2013-05-28 09:50:00,
2013-05-28 02:51:00,72.2,39.5,29.18,ENE,74,3.7,5.7,30,-99.99,,,0.00,0,rob ver 1A,2013-05-28 09:51:00,
2013-05-28 02:52:00,74.2,48.4,29.15,SSE,155,5.8,6.7,39,-99.99,,,0.00,0,rob ver 1B,2013-05-28 09:52:00,
2013-05-28 02:53:00,74.2,48.4,29.15,SSE,157,6.6,8.6,39,-99.99,,,0.00,0,rob ver 1B,2013-05-28 09:53:00,
2013-05-28 02:54:00,74.2,48.3,29.15,SSE,159,6.4,7.6,40,-99.99,,,0.00,0,rob ver 1B,2013-05-28 09:54:00,
2013-05-28 02:55:00,74.2,48.4,29.15,SSE,160,6.4,8.1,40,-99.99,,,0.00,0,rob ver 1B,2013-05-28 09:55:00,
2013-05-28 02:56:00,73.3,39.6,29.18,East,93,3.5,4.8,29,-99.99,,,0.00,0,rob ver 1A,2013-05-28 09:56:00,
2013-05-28 02:57:00,74.1,48.3,29.15,SSE,159,6.0,7.3,40,-99.99,,,0.00,0,rob ver 1B,2013-05-28 09:57:00,
2013-05-28 02:58:00,74.0,48.3,29.15,SSE,158,6.4,7.6,40,-99.99,,,0.00,0,rob ver 1B,2013-05-28 09:58:00,
2013-05-28 02:59:00,73.9,48.3,29.15,SSE,157,5.5,6.4,40,-99.99,,,0.00,0,rob ver 1B,2013-05-28 09:59:00,
2013-05-28 03:00:00,73.9,48.3,29.15,SSE,150,5.8,6.6,40,-99.99,,,0.00,0,rob ver 1B,2013-05-28 10:00:00,
2013-05-28 03:01:00,73.9,48.4,29.15,SSE,151,6.0,7.4,40,-99.99,,,0.00,0,rob ver 1B,2013-05-28 10:01:00,
2013-05-28 03:02:00,72.5,39.2,29.18,ESE,109,3.1,4.0,29,-99.99,,,0.00,0,rob ver 1A,2013-05-28 10:02:00,
2013-05-28 03:03:00,74.0,48.4,29.15,SSE,149,6.5,8.1,40,-99.99,,,0.00,0,rob ver 1B,2013-05-28 10:03:00,
2013-05-28 03:04:00,74.0,48.4,29.15,SSE,149,6.8,9.0,40,-99.99,,,0.00,0,rob ver 1B,2013-05-28 10:04:00,
2013-05-28 03:05:00,74.1,48.4,29.15,SSE,153,7.4,9.4,40,-99.99,,,0.00,0,rob ver 1B,2013-05-28 10:05:00,
2013-05-28 03:06:00,74.1,48.3,29.15,SSE,156,6.5,7.7,39,-99.99,,,0.00,0,rob ver 1B,2013-05-28 10:06:00,
2013-05-28 03:07:00,72.3,39.4,29.18,East,96,2.6,3.4,30,-99.99,,,0.00,0,rob ver 1A,2013-05-28 10:07:00,
2013-05-28 03:08:00,74.0,48.2,29.15,SSE,163,5.8,7.2,39,-99.99,,,0.00,0,rob ver 1B,2013-05-28 10:08:00,
2013-05-28 03:09:00,73.9,48.2,29.15,SSE,166,5.9,7.2,40,-99.99,,,0.00,0,rob ver 1B,2013-05-28 10:09:00,
2013-05-28 03:10:00,73.9,48.2,29.15,SSE,166,5.9,6.8,40,-99.99,,,0.00,0,rob ver 1B,2013-05-28 10:10:00,
2013-05-28 03:11:00,73.9,48.2,29.15,SSE,166,5.4,6.0,40,-99.99,,,0.00,0,rob ver 1B,2013-05-28 10:11:00,
2013-05-28 03:12:00,72.2,39.1,29.18,ENE,67,3.4,4.3,30,-99.99,,,0.00,0,rob ver 1A,2013-05-28 10:12:00,
2013-05-28 03:13:00,73.8,48.1,29.15,South,170,5.4,6.4,40,-99.99,,,0.00,0,rob ver 1B,2013-05-28 10:13:00,
2013-05-28 03:14:00,73.7,48.1,29.15,South,169,5.8,7.3,40,-99.99,,,0.00,0,rob ver 1B,2013-05-28 10:14:00,
2013-05-28 03:15:00,73.7,48.1,29.15,SSE,168,5.9,6.8,40,-99.99,,,0.00,0,rob ver 1B,2013-05-28 10:15:00,
2013-05-28 03:16:00,73.7,48.2,29.15,SSE,168,6.2,8.3,40,-99.99,,,0.00,0,rob ver 1B,2013-05-28 10:16:00,
2013-05-28 03:17:00,73.7,48.2,29.15,SSE,168,6.7,8.2,40,-99.99,,,0.00,0,rob ver 1B,2013-05-28 10:17:00,
2013-05-28 03:18:00,71.9,39.3,29.15,ENE,59,4.2,5.0,30,-99.99,,,0.00,0,rob ver 1A,2013-05-28 10:18:00,
2013-05-28 03:19:00,73.7,48.2,29.15,SSE,168,5.3,6.7,40,-99.99,,,0.00,0,rob ver 1B,2013-05-28 10:19:00,
2013-05-28 03:20:00,73.6,48.1,29.15,SSE,166,5.7,6.9,40,-99.99,,,0.00,0,rob ver 1B,2013-05-28 10:20:00,
2013-05-28 03:21:00,73.6,48.2,29.15,SSE,168,5.9,7.6,40,-99.99,,,0.00,0,rob ver 1B,2013-05-28 10:21:00,
2013-05-28 03:22:00,73.6,48.2,29.15,SSE,167,5.9,7.2,40,-99.99,,,0.00,0,rob ver 1B,2013-05-28 10:22:00,
2013-05-28 03:23:00,71.6,38.6,29.15,NE,55,3.4,4.2,30,-99.99,,,0.00,0,rob ver 1A,2013-05-28 10:23:00,
2013-05-28 03:24:00,73.7,48.3,29.15,SSE,168,5.7,6.5,40,-99.99,,,0.00,0,rob ver 1B,2013-05-28 10:24:00,
2013-05-28 03:25:00,73.6,48.2,29.15,South,169,5.9,7.1,40,-99.99,,,0.00,0,rob ver 1B,2013-05-28 10:25:00,
2013-05-28 03:26:00,73.6,48.3,29.15,SSE,167,5.6,6.3,40,-99.99,,,0.00,0,rob ver 1B,2013-05-28 10:26:00,
2013-05-28 03:27:00,73.6,48.2,29.15,South,169,5.3,6.5,40,-99.99,,,0.00,0,rob ver 1B,2013-05-28 10:27:00,
2013-05-28 03:28:00,73.5,48.1,29.15,SSE,168,5.0,5.7,40,-99.99,,,0.00,0,rob ver 1B,2013-05-28 10:28:00,
2013-05-28 03:29:00,71.4,39.4,29.15,East,88,4.1,5.1,30,-99.99,,,0.00,0,rob ver 1A,2013-05-28 10:29:00,
2013-05-28 03:30:00,73.3,48.2,29.15,South,170,5.6,6.9,40,-99.99,,,0.00,0,rob ver 1B,2013-05-28 10:30:00,
2013-05-28 03:31:00,73.3,48.2,29.15,South,172,5.5,6.5,40,-99.99,,,0.00,0,rob ver 1B,2013-05-28 10:31:00,
2013-05-28 03:32:00,73.3,48.3,29.15,South,174,5.2,6.1,40,-99.99,,,0.00,0,rob ver 1B,2013-05-28 10:32:00,
2013-05-28 03:33:00,73.3,48.2,29.15,South,173,5.0,6.6,40,-99.99,,,0.00,0,rob ver 1B,2013-05-28 10:33:00,
2013-05-28 03:34:00,71.7,39.5,29.15,East,100,3.0,3.9,30,-99.99,,,0.00,0,rob ver 1A,2013-05-28 10:34:00,
2013-05-28 03:35:00,73.2,48.3,29.15,South,172,5.5,6.4,41,-99.99,,,0.00,0,rob ver 1B,2013-05-28 10:35:00,
2013-05-28 03:36:00,73.2,48.4,29.15,South,172,5.7,6.8,41,-99.99,,,0.00,0,rob ver 1B,2013-05-28 10:36:00,
2013-05-28 03:37:00,73.2,48.4,29.15,South,169,5.3,6.3,41,-99.99,,,0.00,0,rob ver 1B,2013-05-28 10:37:00,
2013-05-28 03:38:00,73.1,48.3,29.15,SSE,168,5.3,6.6,41,-99.99,,,0.00,0,rob ver 1B,2013-05-28 10:38:00,
2013-05-28 03:39:00,72.3,40.1,29.15,South,171,6.3,7.9,30,-99.99,,,0.00,0,rob ver 1A,2013-05-28 10:39:00,
2013-05-28 03:40:00,73.0,48.4,29.15,SSE,167,5.1,6.2,41,-99.99,,,0.00,0,rob ver 1B,2013-05-28 10:40:00,
2013-05-28 03:41:00,73.0,48.5,29.15,SSE,168,4.6,5.3,41,-99.99,,,0.00,0,rob ver 1B,2013-05-28 10:41:00,
2013-05-28 03:42:00,72.9,48.4,29.15,SSE,167,4.5,5.5,41,-99.99,,,0.00,0,rob ver 1B,2013-05-28 10:42:00,
2013-05-28 03:43:00,72.9,48.4,29.15,South,169,4.8,5.6,42,-99.99,,,0.00,0,rob ver 1B,2013-05-28 10:43:00,
2013-05-28 03:44:00,72.9,48.5,29.15,South,169,4.6,5.3,41,-99.99,,,0.00,0,rob ver 1B,2013-05-28 10:44:00,
2013-05-28 03:45:00,73.2,40.0,29.15,South,190,6.1,8.9,29,-99.99,,,0.00,0,rob ver 1A,2013-05-28 10:45:00,
2013-05-28 03:46:00,72.9,48.5,29.15,South,174,4.6,5.5,42,-99.99,,,0.00,0,rob ver 1B,2013-05-28 10:46:00,
2013-05-28 03:47:00,72.8,48.5,29.15,South,180,4.4,5.3,42,-99.99,,,0.00,0,rob ver 1B,2013-05-28 10:47:00,
2013-05-28 03:48:00,72.8,48.5,29.15,South,180,4.4,5.5,42,-99.99,,,0.00,0,rob ver 1B,2013-05-28 10:48:00,
2013-05-28 03:49:00,72.8,48.5,29.15,South,178,4.8,5.8,42,-99.99,,,0.00,0,rob ver 1B,2013-05-28 10:49:00,
2013-05-28 03:50:00,72.6,39.8,29.15,SSE,159,4.1,5.7,30,-99.99,,,0.00,0,rob ver 1A,2013-05-28 10:50:00,
2013-05-28 03:51:00,72.7,48.6,29.15,South,183,4.1,5.0,42,-99.99,,,0.00,0,rob ver 1B,2013-05-28 10:51:00,
2013-05-28 03:52:00,72.7,48.6,29.15,South,183,3.6,4.5,42,-99.99,,,0.00,0,rob ver 1B,2013-05-28 10:52:00,
2013-05-28 03:53:00,72.7,48.5,29.15,South,181,3.4,4.3,42,-99.99,,,0.00,0,rob ver 1B,2013-05-28 10:53:00,
2013-05-28 03:54:00,72.6,48.5,29.15,South,178,3.0,3.5,42,-99.99,,,0.00,0,rob ver 1B,2013-05-28 10:54:00,
2013-05-28 03:55:00,72.6,48.6,29.15,South,179,3.3,4.5,42,-99.99,,,0.00,0,rob ver 1B,2013-05-28 10:55:00,
2013-05-28 03:56:00,71.8,39.4,29.15,SSE,167,4.8,5.8,30,-99.99,,,0.00,0,rob ver 1A,2013-05-28 10:56:00,
2013-05-28 03:57:00,72.5,48.7,29.15,South,180,3.2,4.0,42,-99.99,,,0.00,0,rob ver 1B,2013-05-28 10:57:00,
2013-05-28 03:58:00,72.5,48.7,29.15,South,178,2.9,3.9,42,-99.99,,,0.00,0,rob ver 1B,2013-05-28 10:58:00,
2013-05-28 03:59:00,72.5,48.7,29.15,South,176,2.9,3.6,43,-99.99,,,0.00,0,rob ver 1B,2013-05-28 10:59:00,
2013-05-28 04:00:00,72.4,48.8,29.15,South,176,2.8,4.5,43,-99.99,,,0.00,0,rob ver 1B,2013-05-28 11:00:00,
2013-05-28 04:01:00,72.4,48.9,29.15,South,180,3.2,4.2,43,-99.99,,,0.00,0,rob ver 1B,2013-05-28 11:01:00,
2013-05-28 04:02:00,71.4,39.7,29.15,SSE,168,5.6,6.8,31,-99.99,,,0.00,0,rob ver 1A,2013-05-28 11:02:00,
2013-05-28 04:03:00,72.5,48.9,29.15,South,190,2.6,3.5,43,-99.99,,,0.00,0,rob ver 1B,2013-05-28 11:03:00,
2013-05-28 04:04:00,72.4,49.0,29.15,SSW,196,2.3,3.0,43,-99.99,,,0.00,0,rob ver 1B,2013-05-28 11:04:00,
2013-05-28 04:05:00,72.4,49.0,29.15,SSW,205,2.2,2.7,43,-99.99,,,0.00,0,rob ver 1B,2013-05-28 11:05:00,
2013-05-28 04:06:00,72.4,49.0,29.15,SW,217,2.1,2.7,43,-99.99,,,0.00,0,rob ver 1B,2013-05-28 11:06:00,
2013-05-28 04:07:00,71.8,39.6,29.15,SSE,158,5.8,7.5,30,-99.99,,,0.00,0,rob ver 1A,2013-05-28 11:07:00,
2013-05-28 04:08:00,72.4,49.0,29.15,SW,229,2.2,3.0,43,-99.99,,,0.00,0,rob ver 1B,2013-05-28 11:08:00,
2013-05-28 04:09:00,72.4,48.9,29.15,SW,229,2.3,3.3,43,-99.99,,,0.00,0,rob ver 1B,2013-05-28 11:09:00,
2013-05-28 04:10:00,72.3,48.8,29.15,WSW,237,2.1,2.7,43,-99.99,,,0.00,0,rob ver 1B,2013-05-28 11:10:00,
2013-05-28 04:11:00,72.3,48.8,29.15,SW,226,2.7,4.3,43,-99.99,,,0.00,0,rob ver 1B,2013-05-28 11:11:00,
2013-05-28 04:12:00,71.6,39.5,29.15,SSE,162,5.5,7.1,31,-99.99,,,0.00,0,rob ver 1A,2013-05-28 11:12:00,
2013-05-28 04:13:00,72.2,49.0,29.15,SW,231,3.3,4.5,43,-99.99,,,0.00,0,rob ver 1B,2013-05-28 11:13:00,
2013-05-28 04:14:00,72.2,49.1,29.15,SW,221,3.7,4.4,44,-99.99,,,0.00,0,rob ver 1B,2013-05-28 11:14:00,
2013-05-28 04:15:00,72.2,49.1,29.15,SSW,212,4.1,5.6,44,-99.99,,,0.00,0,rob ver 1B,2013-05-28 11:15:00,
2013-05-28 04:16:00,72.2,49.3,29.15,SSW,210,4.7,6.3,44,-99.99,,,0.00,0,rob ver 1B,2013-05-28 11:16:00,
2013-05-28 04:17:00,72.3,49.4,29.15,SSW,211,5.2,6.6,44,-99.99,,,0.00,0,rob ver 1B,2013-05-28 11:17:00,
2013-05-28 04:18:00,71.9,39.5,29.15,SSE,157,5.9,7.4,30,-99.99,,,0.00,0,rob ver 1A,2013-05-28 11:18:00,
2013-05-28 04:19:00,72.4,49.6,29.15,SSW,207,6.1,7.4,44,-99.99,,,0.00,0,rob ver 1B,2013-05-28 11:19:00,
2013-05-28 04:20:00,72.4,49.7,29.15,SSW,206,5.9,7.9,44,-99.99,,,0.00,0,rob ver 1B,2013-05-28 11:20:00,
2013-05-28 04:21:00,72.4,49.7,29.15,SSW,203,6.2,8.7,44,-99.99,,,0.00,0,rob ver 1B,2013-05-28 11:21:00,
2013-05-28 04:22:00,72.4,49.7,29.15,SSW,200,5.9,7.0,44,-99.99,,,0.00,0,rob ver 1B,2013-05-28 11:22:00,
2013-05-28 04:23:00,71.0,39.1,29.15,SE,136,3.0,3.5,31,-99.99,,,0.00,0,rob ver 1A,2013-05-28 11:23:00,
2013-05-28 04:24:00,72.3,49.8,29.15,SSW,198,6.0,7.2,45,-99.99,,,0.00,0,rob ver 1B,2013-05-28 11:24:00,
2013-05-28 04:25:00,72.3,49.9,29.15,SSW,202,6.6,8.1,44,-99.99,,,0.00,0,rob ver 1B,2013-05-28 11:25:00,
2013-05-28 04:26:00,72.3,49.8,29.15,SSW,197,5.5,7.6,44,-99.99,,,0.00,0,rob ver 1B,2013-05-28 11:26:00,
2013-05-28 04:27:00,72.2,49.8,29.15,SSW,201,6.0,7.2,45,-99.99,,,0.00,0,rob ver 1B,2013-05-28 11:27:00,
2013-05-28 04:28:00,70.6,39.1,29.18,SE,136,3.7,5.5,31,-99.99,,,0.00,0,rob ver 1A,2013-05-28 11:28:00,
2013-05-28 04:29:00,72.1,49.9,29.15,SSW,199,6.1,7.5,45,-99.99,,,0.00,0,rob ver 1B,2013-05-28 11:29:00,
2013-05-28 04:30:00,72.0,50.0,29.15,SSW,202,6.5,7.9,45,-99.99,,,0.00,0,rob ver 1B,2013-05-28 11:30:00,
2013-05-28 04:31:00,72.0,50.0,29.15,SSW,199,6.4,7.4,45,-99.99,,,0.00,0,rob ver 1B,2013-05-28 11:31:00,
2013-05-28 04:32:00,71.9,50.0,29.15,SSW,199,5.8,7.0,45,-99.99,,,0.00,0,rob ver 1B,2013-05-28 11:32:00,
2013-05-28 04:33:00,71.9,50.0,29.15,SSW,198,5.9,7.6,45,-99.99,,,0.00,0,rob ver 1B,2013-05-28 11:33:00,
2013-05-28 04:34:00,71.1,39.4,29.18,SSE,148,4.6,5.8,31,-99.99,,,0.00,0,rob ver 1A,2013-05-28 11:34:00,
2013-05-28 04:35:00,71.8,50.0,29.15,SSW,199,6.4,7.9,46,-99.99,,,0.00,0,rob ver 1B,2013-05-28 11:35:00,
2013-05-28 04:36:00,71.8,50.1,29.15,SSW,198,6.8,8.8,46,-99.99,,,0.00,0,rob ver 1B,2013-05-28 11:36:00,
2013-05-28 04:37:00,71.7,50.0,29.15,SSW,198,6.3,7.5,46,-99.99,,,0.00,0,rob ver 1B,2013-05-28 11:37:00,
2013-05-28 04:38:00,71.7,50.0,29.15,SSW,198,6.9,8.7,46,-99.99,,,0.00,0,rob ver 1B,2013-05-28 11:38:00,
2013-05-28 04:39:00,71.7,50.0,29.15,SSW,195,7.1,8.9,46,-99.99,,,0.00,0,rob ver 1B,2013-05-28 11:39:00,
2013-05-28 04:40:00,71.4,39.4,29.18,SE,146,4.7,5.7,31,-99.99,,,0.00,0,rob ver 1A,2013-05-28 11:40:00,
2013-05-28 04:41:00,71.8,50.0,29.15,SSW,193,6.9,9.1,46,-99.99,,,0.00,0,rob ver 1B,2013-05-28 11:41:00,
2013-05-28 04:42:00,71.8,50.0,29.15,SSW,195,6.8,8.9,46,-99.99,,,0.00,0,rob ver 1B,2013-05-28 11:42:00,
2013-05-28 04:43:00,71.8,50.0,29.15,SSW,195,7.0,9.4,46,-99.99,,,0.00,0,rob ver 1B,2013-05-28 11:43:00,
2013-05-28 04:44:00,71.7,50.0,29.15,SSW,197,7.2,9.0,46,-99.99,,,0.00,0,rob ver 1B,2013-05-28 11:44:00,
2013-05-28 04:45:00,71.3,39.5,29.18,SSE,150,6.2,7.0,31,-99.99,,,0.00,0,rob ver 1A,2013-05-28 11:45:00,
2013-05-28 04:46:00,71.7,50.1,29.15,SSW,199,7.2,8.9,46,-99.99,,,0.00,0,rob ver 1B,2013-05-28 11:46:00,
2013-05-28 04:47:00,71.7,50.1,29.15,SSW,198,7.2,8.7,46,-99.99,,,0.00,0,rob ver 1B,2013-05-28 11:47:00,
2013-05-28 04:48:00,71.7,50.1,29.15,SSW,198,7.4,8.7,46,-99.99,,,0.00,0,rob ver 1B,2013-05-28 11:48:00,
2013-05-28 04:49:00,71.8,50.2,29.15,SSW,198,7.9,9.6,46,-99.99,,,0.00,0,rob ver 1B,2013-05-28 11:49:00,
2013-05-28 04:50:00,71.6,39.3,29.18,SE,140,4.9,5.7,30,-99.99,,,0.00,0,rob ver 1A,2013-05-28 11:50:00,
2013-05-28 04:51:00,71.7,50.1,29.15,SSW,200,7.9,9.3,46,-99.99,,,0.00,0,rob ver 1B,2013-05-28 11:51:00,
2013-05-28 04:52:00,71.6,50.1,29.15,SSW,201,7.6,9.0,46,-99.99,,,0.00,0,rob ver 1B,2013-05-28 11:52:00,
2013-05-28 04:53:00,71.6,50.1,29.15,SSW,203,7.7,8.6,46,-99.99,,,0.00,0,rob ver 1B,2013-05-28 11:53:00,
2013-05-28 04:54:00,71.5,50.1,29.15,SSW,204,7.1,8.3,46,-99.99,,,0.00,0,rob ver 1B,2013-05-28 11:54:00,
2013-05-28 04:55:00,71.5,50.1,29.15,SSW,207,7.1,8.2,46,-99.99,,,0.00,0,rob ver 1B,2013-05-28 11:55:00,
2013-05-28 04:56:00,71.3,39.4,29.18,SE,145,4.3,5.0,31,-99.99,,,0.00,0,rob ver 1A,2013-05-28 11:56:00,
2013-05-28 04:57:00,71.4,50.1,29.15,SSW,209,7.3,8.5,46,-99.99,,,0.00,0,rob ver 1B,2013-05-28 11:57:00,
2013-05-28 04:58:00,71.5,50.1,29.15,SSW,211,7.3,9.0,46,-99.99,,,0.00,0,rob ver 1B,2013-05-28 11:58:00,
2013-05-28 04:59:00,71.6,50.1,29.15,SSW,210,7.5,9.3,46,-99.99,,,0.00,0,rob ver 1B,2013-05-28 11:59:00,
2013-05-28 05:00:00,71.7,50.1,29.15,SSW,213,7.4,9.6,46,-99.99,,,0.00,0,rob ver 1B,2013-05-28 12:00:00,
2013-05-28 05:01:00,71.7,50.0,29.15,SW,214,7.5,9.4,46,-99.99,,,0.00,0,rob ver 1B,2013-05-28 12:01:00,
2013-05-28 05:02:00,71.3,39.3,29.18,ESE,123,2.5,3.1,31,-99.99,,,0.00,0,rob ver 1A,2013-05-28 12:02:00,
2013-05-28 05:03:00,71.8,50.0,29.15,SW,215,7.5,9.2,46,-99.99,,,0.00,0,rob ver 1B,2013-05-28 12:03:00,
2013-05-28 05:04:00,71.8,49.9,29.15,SW,215,7.0,8.1,45,-99.99,,,0.00,0,rob ver 1B,2013-05-28 12:04:00,
2013-05-28 05:05:00,71.8,49.9,29.15,SSW,213,7.4,9.1,45,-99.99,,,0.00,0,rob ver 1B,2013-05-28 12:05:00,
2013-05-28 05:06:00,71.9,49.8,29.15,SSW,210,7.1,8.7,45,-99.99,,,0.00,0,rob ver 1B,2013-05-28 12:06:00,
2013-05-28 05:07:00,70.5,38.8,29.18,NE,42,2.6,3.1,31,-99.99,,,0.00,0,rob ver 1A,2013-05-28 12:07:00,
2013-05-28 05:08:00,71.9,49.8,29.15,SSW,207,6.5,7.7,45,-99.99,,,0.00,0,rob ver 1B,2013-05-28 12:08:00,
2013-05-28 05:09:00,71.9,49.7,29.15,SSW,207,6.7,8.0,45,-99.99,,,0.00,0,rob ver 1B,2013-05-28 12:09:00,
2013-05-28 05:10:00,71.9,49.7,29.15,SSW,206,6.8,8.0,45,-99.99,,,0.00,0,rob ver 1B,2013-05-28 12:10:00,
2013-05-28 05:11:00,71.9,49.6,29.15,SSW,203,7.0,8.1,45,-99.99,,,0.00,0,rob ver 1B,2013-05-28 12:11:00,
2013-05-28 05:12:00,70.4,39.2,29.18,East,90,3.0,3.6,31,-99.99,,,0.00,0,rob ver 1A,2013-05-28 12:12:00,
2013-05-28 05:13:00,71.9,49.6,29.15,SSW,201,7.6,8.9,45,-99.99,,,0.00,.164,rob ver 1B,2013-05-28 12:13:00,
2013-05-28 05:14:00,71.9,49.6,29.15,SSW,205,6.9,8.4,45,-99.99,,,0.00,.328,rob ver 1B,2013-05-28 12:14:00,
2013-05-28 05:15:00,71.9,49.6,29.15,SSW,204,6.5,8.1,45,-99.99,,,0.00,.328,rob ver 1B,2013-05-28 12:15:00,
2013-05-28 05:16:00,71.8,49.6,29.15,SSW,205,6.7,7.9,45,-99.99,,,0.00,.328,rob ver 1B,2013-05-28 12:16:00,
2013-05-28 05:17:00,70.5,38.9,29.18,ESE,111,2.1,2.3,31,-99.99,,,0.00,.328,rob ver 1A,2013-05-28 12:17:00,
2013-05-28 05:18:00,71.8,49.6,29.15,SSW,204,5.7,6.6,45,-99.99,,,0.00,.328,rob ver 1B,2013-05-28 12:18:00,
2013-05-28 05:19:00,71.9,49.6,29.15,SSW,207,5.7,6.7,45,-99.99,,,0.00,.656,rob ver 1B,2013-05-28 12:19:00,
2013-05-28 05:20:00,71.8,49.6,29.15,SSW,212,5.4,6.4,45,-99.99,,,0.00,.82,rob ver 1B,2013-05-28 12:20:00,
2013-05-28 05:21:00,71.8,49.5,29.15,SSW,210,4.8,5.8,45,-99.99,,,0.00,.984,rob ver 1B,2013-05-28 12:21:00,
2013-05-28 05:22:00,70.3,39.0,29.18,SE,145,1.9,2.3,31,-99.99,,,0.00,.984,rob ver 1A,2013-05-28 12:22:00,
2013-05-28 05:23:00,71.7,49.5,29.15,SSW,202,4.7,6.5,45,-99.99,,,0.00,1.148,rob ver 1B,2013-05-28 12:23:00,
2013-05-28 05:24:00,71.7,49.5,29.15,SSW,209,4.7,5.1,45,-99.99,,,0.00,1.64,rob ver 1B,2013-05-28 12:24:00,
2013-05-28 05:25:00,71.7,49.5,29.15,SSW,211,4.2,4.9,45,-99.99,,,0.00,1.64,rob ver 1B,2013-05-28 12:25:00,
2013-05-28 05:26:00,71.5,49.4,29.15,SSW,207,3.9,4.9,45,-99.99,,,0.00,1.968,rob ver 1B,2013-05-28 12:26:00,
2013-05-28 05:27:00,71.5,49.4,29.15,SSW,197,4.6,6.2,45,-99.99,,,0.00,2.297,rob ver 1B,2013-05-28 12:27:00,
2013-05-28 05:28:00,70.4,39.1,29.18,SSE,157,1.9,2.6,31,-99.99,,,0.00,2.133,rob ver 1A,2013-05-28 12:28:00,
2013-05-28 05:29:00,71.3,49.6,29.15,South,185,5.8,7.2,46,-99.99,,,0.00,2.953,rob ver 1B,2013-05-28 12:29:00,
2013-05-28 05:30:00,71.3,49.6,29.15,South,185,5.5,7.2,46,-99.99,,,0.00,2.953,rob ver 1B,2013-05-28 12:30:00,
2013-05-28 05:31:00,71.3,49.5,29.15,South,183,5.5,6.4,46,-99.99,,,0.00,3.281,rob ver 1B,2013-05-28 12:31:00,
2013-05-28 05:32:00,71.2,49.6,29.15,South,181,5.8,7.2,46,-99.99,,,0.00,3.609,rob ver 1B,2013-05-28 12:32:00,
2013-05-28 05:33:00,71.2,49.6,29.15,South,182,5.4,6.5,46,-99.99,,,0.00,3.937,rob ver 1B,2013-05-28 12:33:00,
2013-05-28 05:34:00,70.3,39.1,29.18,SE,139,1.8,2.1,32,-99.99,,,0.00,4.266,rob ver 1A,2013-05-28 12:34:00,
2013-05-28 05:35:00,71.0,49.6,29.15,South,171,4.5,5.8,46,-99.99,,,0.00,5.249,rob ver 1B,2013-05-28 12:35:00,
2013-05-28 05:36:00,71.0,49.7,29.15,SSE,167,5.2,6.6,46,-99.99,,,0.00,5.905,rob ver 1B,2013-05-28 12:36:00,
2013-05-28 05:37:00,70.9,49.7,29.15,SSE,164,5.2,6.2,46,-99.99,,,0.00,6.562,rob ver 1B,2013-05-28 12:37:00,
2013-05-28 05:38:00,70.8,49.7,29.15,SSE,168,5.9,7.0,47,-99.99,,,0.00,7.22,rob ver 1B,2013-05-28 12:38:00,
2013-05-28 05:39:00,70.0,39.0,29.18,East,79,1.4,1.7,32,-99.99,,,0.00,8.86,rob ver 1A,2013-05-28 12:39:00,
2013-05-28 05:40:00,70.8,49.7,29.18,SSE,162,4.0,4.9,47,-99.99,,,0.00,8.53,rob ver 1B,2013-05-28 12:40:00,
2013-05-28 05:41:00,70.8,49.6,29.15,SSE,165,3.6,4.8,47,-99.99,,,0.00,9.84,rob ver 1B,2013-05-28 12:41:00,
2013-05-28 05:42:00,70.7,49.7,29.15,SSE,157,3.9,4.9,47,-99.99,,,0.00,10.5,rob ver 1B,2013-05-28 12:42:00,
2013-05-28 05:43:00,70.7,49.6,29.15,SSE,148,3.6,4.4,47,-99.99,,,0.00,11.81,rob ver 1B,2013-05-28 12:43:00,
2013-05-28 05:44:00,70.7,49.6,29.18,SE,137,3.8,4.3,47,-99.99,,,0.00,12.47,rob ver 1B,2013-05-28 12:44:00,
2013-05-28 05:45:00,70.1,38.8,29.18,NE,43,2.4,3.1,31,-99.99,,,0.00,15.09,rob ver 1A,2013-05-28 12:45:00,
2013-05-28 05:46:00,70.5,49.6,29.18,ESE,118,3.8,5.1,47,-99.99,,,0.00,14.93,rob ver 1B,2013-05-28 12:46:00,
2013-05-28 05:47:00,70.4,49.6,29.15,ESE,122,3.4,4.0,47,-99.99,,,0.00,16.08,rob ver 1B,2013-05-28 12:47:00,
2013-05-28 05:48:00,70.4,49.5,29.15,SE,131,3.7,4.6,47,-99.99,,,0.00,17.06,rob ver 1B,2013-05-28 12:48:00,
2013-05-28 05:49:00,70.4,49.5,29.15,SE,141,3.5,5.0,47,-99.99,,,0.00,18.54,rob ver 1B,2013-05-28 12:49:00,
2013-05-28 05:50:00,70.6,39.0,29.18,East,84,2.0,2.8,31,-99.99,,,0.00,24.28,rob ver 1A,2013-05-28 12:50:00,
2013-05-28 05:51:00,70.5,49.6,29.18,SSE,155,5.5,6.2,47,-99.99,,,0.00,21.65,rob ver 1B,2013-05-28 12:51:00,
2013-05-28 05:52:00,70.5,49.6,29.18,SSE,159,5.2,6.8,47,-99.99,,,0.00,22.97,rob ver 1B,2013-05-28 12:52:00,
2013-05-28 05:53:00,70.5,49.6,29.18,SSE,163,4.5,5.8,47,-99.99,,,0.00,24.77,rob ver 1B,2013-05-28 12:53:00,
2013-05-28 05:54:00,70.5,49.7,29.18,SSE,168,5.0,6.6,47,-99.99,,,0.00,26.25,rob ver 1B,2013-05-28 12:54:00,
2013-05-28 05:55:00,70.6,38.5,29.18,ENE,69,4.3,5.3,30,-99.99,,,0.00,27.4,rob ver 1A,2013-05-28 12:55:00,
2013-05-28 05:56:00,70.5,49.6,29.18,South,170,4.4,5.5,47,-99.99,,,0.00,29.53,rob ver 1B,2013-05-28 12:56:00,
2013-05-28 05:57:00,70.4,49.6,29.18,South,169,4.7,6.6,47,-99.99,,,0.00,31.5,rob ver 1B,2013-05-28 12:57:00,
2013-05-28 05:58:00,70.5,49.7,29.18,South,171,5.2,7.5,47,-99.99,,,0.00,33.46,rob ver 1B,2013-05-28 12:58:00,
2013-05-28 05:59:00,70.5,49.9,29.18,South,172,7.6,9.3,47,-99.99,,,0.00,35.43,rob ver 1B,2013-05-28 12:59:00,
2013-05-28 06:00:00,70.2,38.4,29.18,East,79,2.9,3.6,31,-99.99,,,0.00,40.04,rob ver 1A,2013-05-28 13:00:00,
2013-05-28 06:01:00,70.6,49.9,29.18,South,175,7.9,9.6,47,-99.99,,,0.00,39.37,rob ver 1B,2013-05-28 13:01:00,
2013-05-28 06:02:00,70.7,49.9,29.18,South,181,7.4,9.1,47,-99.99,,,0.00,42,rob ver 1B,2013-05-28 13:02:00,
2013-05-28 06:03:00,70.7,49.9,29.18,South,181,7.0,8.1,47,-99.99,,,0.00,44.29,rob ver 1B,2013-05-28 13:03:00,
2013-05-28 06:04:00,70.8,49.9,29.18,South,181,6.7,8.7,47,-99.99,,,0.00,46.59,rob ver 1B,2013-05-28 13:04:00,
2013-05-28 06:05:00,70.9,49.8,29.18,South,186,5.9,7.7,47,-99.99,,,0.00,48.89,rob ver 1B,2013-05-28 13:05:00,
2013-05-28 06:06:00,70.7,38.5,29.18,ESE,114,2.9,3.3,30,-99.99,,,0.00,43.98,rob ver 1A,2013-05-28 13:06:00,
2013-05-28 06:07:00,71.0,49.8,29.18,South,180,6.1,7.4,47,-99.99,,,0.00,53.15,rob ver 1B,2013-05-28 13:07:00,
2013-05-28 06:08:00,71.0,49.8,29.18,South,178,6.3,7.7,47,-99.99,,,0.00,55.29,rob ver 1B,2013-05-28 13:08:00,
2013-05-28 06:09:00,71.0,49.8,29.18,South,183,6.4,8.1,46,-99.99,,,0.00,57.75,rob ver 1B,2013-05-28 13:09:00,
2013-05-28 06:10:00,71.1,49.8,29.18,South,183,5.6,7.3,46,-99.99,,,0.00,59.72,rob ver 1B,2013-05-28 13:10:00,
2013-05-28 06:11:00,71.2,49.7,29.18,South,189,5.3,6.8,46,-99.99,,,0.00,61.85,rob ver 1B,2013-05-28 13:11:00,
2013-05-28 06:12:00,71.1,38.6,29.18,East,92,3.6,4.7,30,-99.99,,,0.00,78.1,rob ver 1A,2013-05-28 13:12:00,
2013-05-28 06:13:00,71.3,49.7,29.18,SSW,195,6.4,8.2,46,-99.99,,,0.00,66.28,rob ver 1B,2013-05-28 13:13:00,
2013-05-28 06:14:00,71.4,49.7,29.18,SSW,194,5.8,7.2,46,-99.99,,,0.00,68.25,rob ver 1B,2013-05-28 13:14:00,
2013-05-28 06:15:00,71.5,49.6,29.18,SSW,193,5.7,7.1,45,-99.99,,,0.00,70.7,rob ver 1B,2013-05-28 13:15:00,
2013-05-28 06:16:00,71.6,49.7,29.18,SSW,193,6.2,7.9,45,-99.99,,,0.00,73.2,rob ver 1B,2013-05-28 13:16:00,
2013-05-28 06:17:00,71.1,38.2,29.18,NE,51,2.5,3.1,30,-99.99,,,0.00,45.78,rob ver 1A,2013-05-28 13:17:00,
2013-05-28 06:18:00,71.7,49.6,29.18,SSW,193,5.0,6.6,45,-99.99,,,0.00,78.1,rob ver 1B,2013-05-28 13:18:00,
2013-05-28 06:19:00,71.8,49.6,29.18,South,190,5.8,7.3,45,-99.99,,,0.00,80.1,rob ver 1B,2013-05-28 13:19:00,
2013-05-28 06:20:00,71.9,49.6,29.18,South,191,5.4,6.3,45,-99.99,,,0.00,82.4,rob ver 1B,2013-05-28 13:20:00,
2013-05-28 06:21:00,71.9,49.6,29.18,South,186,5.0,6.3,45,-99.99,,,0.00,84.7,rob ver 1B,2013-05-28 13:21:00,
2013-05-28 06:22:00,72.0,49.6,29.18,South,184,5.5,7.3,44,-99.99,,,0.00,86.6,rob ver 1B,2013-05-28 13:22:00,
2013-05-28 06:23:00,71.0,38.5,29.18,ENE,65,2.3,3.5,30,-99.99,,,0.00,41.68,rob ver 1A,2013-05-28 13:23:00,
2013-05-28 06:24:00,72.1,49.6,29.18,South,180,6.0,6.8,45,-99.99,,,0.00,92.4,rob ver 1B,2013-05-28 13:24:00,
2013-05-28 06:25:00,72.1,49.6,29.18,South,179,5.9,7.2,45,-99.99,,,0.00,94.5,rob ver 1B,2013-05-28 13:25:00,
2013-05-28 06:26:00,72.1,49.6,29.18,South,177,5.5,6.7,44,-99.99,,,0.00,97.1,rob ver 1B,2013-05-28 13:26:00,
2013-05-28 06:27:00,72.1,49.6,29.18,South,180,5.3,6.5,44,-99.99,,,0.00,100.4,rob ver 1B,2013-05-28 13:27:00,
2013-05-28 06:28:00,72.2,49.6,29.18,South,186,5.0,6.5,44,-99.99,,,0.00,103.4,rob ver 1B,2013-05-28 13:28:00,
2013-05-28 06:29:00,71.5,38.7,29.18,ENE,73,2.4,3.5,30,-99.99,,,0.00,53.17,rob ver 1A,2013-05-28 13:29:00,
2013-05-28 06:30:00,72.3,49.6,29.18,SSW,192,4.1,4.9,44,-99.99,,,0.00,108.3,rob ver 1B,2013-05-28 13:30:00,
2013-05-28 06:31:00,72.4,49.6,29.18,SSW,195,4.4,5.6,44,-99.99,,,0.00,110.9,rob ver 1B,2013-05-28 13:31:00,
2013-05-28 06:32:00,72.5,49.6,29.18,SSW,194,4.2,5.1,44,-99.99,,,0.00,113.2,rob ver 1B,2013-05-28 13:32:00,
2013-05-28 06:33:00,72.6,49.6,29.18,SSW,197,4.4,5.8,44,-99.99,,,0.00,116,rob ver 1B,2013-05-28 13:33:00,
2013-05-28 06:34:00,71.5,38.5,29.18,ENE,67,3.7,5.1,30,-99.99,,,0.00,64.98,rob ver 1A,2013-05-28 13:34:00,
2013-05-28 06:35:00,72.8,49.6,29.18,SSW,194,4.4,5.6,43,-99.99,,,0.00,121.4,rob ver 1B,2013-05-28 13:35:00,
2013-05-28 06:36:00,72.9,49.5,29.18,South,191,4.4,5.1,43,-99.99,,,0.00,124.8,rob ver 1B,2013-05-28 13:36:00,
2013-05-28 06:37:00,73.0,49.5,29.18,South,189,4.3,5.3,43,-99.99,,,0.00,128.6,rob ver 1B,2013-05-28 13:37:00,
2013-05-28 06:38:00,73.1,49.5,29.18,South,186,4.5,5.6,43,-99.99,,,0.00,132.1,rob ver 1B,2013-05-28 13:38:00,
2013-05-28 06:39:00,71.5,38.5,29.18,ENE,73,4.8,5.5,30,-99.99,,,0.00,61.86,rob ver 1A,2013-05-28 13:39:00,
2013-05-28 06:40:00,73.3,49.5,29.18,South,189,4.5,6.3,43,-99.99,,,0.00,137.8,rob ver 1B,2013-05-28 13:40:00,
2013-05-28 06:41:00,73.3,49.5,29.18,South,186,5.3,6.7,42,-99.99,,,0.00,141.1,rob ver 1B,2013-05-28 13:41:00,
2013-05-28 06:42:00,73.4,49.5,29.18,South,187,4.9,6.2,42,-99.99,,,0.00,143.2,rob ver 1B,2013-05-28 13:42:00,
2013-05-28 06:43:00,73.5,49.5,29.18,South,185,5.9,7.1,42,-99.99,,,0.00,146,rob ver 1B,2013-05-28 13:43:00,
2013-05-28 06:44:00,71.7,38.6,29.18,East,90,3.6,4.7,29,-99.99,,,0.00,103.5,rob ver 1A,2013-05-28 13:44:00,
2013-05-28 06:45:00,73.6,49.5,29.18,South,183,5.8,7.0,42,-99.99,,,0.00,151.9,rob ver 1B,2013-05-28 13:45:00,
2013-05-28 06:46:00,73.7,49.4,29.18,South,184,5.9,7.6,42,-99.99,,,0.00,155.5,rob ver 1B,2013-05-28 13:46:00,
2013-05-28 06:47:00,73.7,49.4,29.18,South,188,5.3,6.9,42,-99.99,,,0.00,158.8,rob ver 1B,2013-05-28 13:47:00,
2013-05-28 06:48:00,73.8,49.4,29.18,South,184,5.8,7.5,42,-99.99,,,0.00,162.1,rob ver 1B,2013-05-28 13:48:00,
2013-05-28 06:49:00,72.4,38.5,29.18,East,99,2.7,3.5,28,-99.99,,,0.00,200.2,rob ver 1A,2013-05-28 13:49:00,
2013-05-28 06:50:00,73.9,49.4,29.18,SSW,194,5.5,6.8,42,-99.99,,,0.00,167.3,rob ver 1B,2013-05-28 13:50:00,
2013-05-28 06:51:00,74.0,49.4,29.18,SSW,193,5.3,6.3,41,-99.99,,,0.00,170.1,rob ver 1B,2013-05-28 13:51:00,
2013-05-28 06:52:00,74.1,49.4,29.18,South,191,5.6,7.4,41,-99.99,,,0.00,172.6,rob ver 1B,2013-05-28 13:52:00,
2013-05-28 06:53:00,74.2,49.4,29.18,SSW,193,6.0,7.3,41,-99.99,,,0.00,175.9,rob ver 1B,2013-05-28 13:53:00,
2013-05-28 06:54:00,74.2,49.3,29.18,SSW,194,6.2,7.3,41,-99.99,,,0.00,179.1,rob ver 1B,2013-05-28 13:54:00,
2013-05-28 06:55:00,73.1,38.5,29.18,East,91,3.6,4.3,28,-99.99,,,0.00,224.5,rob ver 1A,2013-05-28 13:55:00,
2013-05-28 06:56:00,74.3,49.2,29.18,SSW,197,6.7,8.2,41,-99.99,,,0.00,186.7,rob ver 1B,2013-05-28 13:56:00,
2013-05-28 06:57:00,74.3,49.2,29.18,SSW,196,6.8,7.9,41,-99.99,,,0.00,188.3,rob ver 1B,2013-05-28 13:57:00,
2013-05-28 06:58:00,74.3,49.2,29.18,SSW,200,7.8,9.0,41,-99.99,,,0.00,192.9,rob ver 1B,2013-05-28 13:58:00,
2013-05-28 06:59:00,74.2,49.2,29.18,SSW,194,6.6,8.2,41,-99.99,,,0.00,196.5,rob ver 1B,2013-05-28 13:59:00,
2013-05-28 07:00:00,73.7,38.5,29.18,East,100,3.0,3.7,27,-99.99,,,0.00,235.1,rob ver 1A,2013-05-28 14:00:00,
2013-05-28 07:01:00,74.3,49.2,29.18,SSW,196,7.3,8.9,41,-99.99,,,0.00,204.1,rob ver 1B,2013-05-28 14:01:00,
2013-05-28 07:02:00,74.3,49.2,29.18,SSW,199,6.7,7.9,40,-99.99,,,0.00,207.3,rob ver 1B,2013-05-28 14:02:00,
2013-05-28 07:03:00,74.4,49.3,29.18,SSW,199,6.2,8.5,40,-99.99,,,0.00,209.3,rob ver 1B,2013-05-28 14:03:00,
2013-05-28 07:04:00,74.5,49.2,29.18,SSW,205,4.5,5.2,40,-99.99,,,0.00,212.3,rob ver 1B,2013-05-28 14:04:00,
2013-05-28 07:05:00,74.2,38.6,29.18,ESE,115,3.3,5.0,27,-99.99,,,0.00,252.7,rob ver 1A,2013-05-28 14:05:00,
2013-05-28 07:06:00,74.8,49.2,29.18,SSW,208,6.5,7.9,40,-99.99,,,0.00,218.5,rob ver 1B,2013-05-28 14:06:00,
2013-05-28 07:07:00,74.8,49.2,29.18,SSW,199,6.7,8.1,40,-99.99,,,0.00,221.4,rob ver 1B,2013-05-28 14:07:00,
2013-05-28 07:08:00,74.9,49.1,29.18,SSW,203,7.4,8.3,40,-99.99,,,0.00,225.1,rob ver 1B,2013-05-28 14:08:00,
2013-05-28 07:09:00,75.0,49.2,29.18,SSW,201,7.1,8.1,40,-99.99,,,0.00,229.2,rob ver 1B,2013-05-28 14:09:00,
2013-05-28 07:10:00,74.5,38.6,29.18,ESE,121,4.1,4.9,27,-99.99,,,0.00,271.7,rob ver 1A,2013-05-28 14:10:00,
2013-05-28 07:11:00,75.2,49.1,29.18,SSW,198,7.2,8.2,39,-99.99,,,0.00,235.2,rob ver 1B,2013-05-28 14:11:00,
2013-05-28 07:12:00,75.3,49.1,29.18,SSW,203,6.8,8.0,39,-99.99,,,0.00,238.2,rob ver 1B,2013-05-28 14:12:00,
2013-05-28 07:13:00,75.3,49.0,29.18,SSW,200,6.5,8.2,39,-99.99,,,0.00,241.5,rob ver 1B,2013-05-28 14:13:00,
2013-05-28 07:14:00,75.4,49.1,29.18,SSW,202,6.7,8.6,39,-99.99,,,0.00,243.4,rob ver 1B,2013-05-28 14:14:00,
2013-05-28 07:15:00,75.5,49.1,29.18,SSW,200,7.1,8.3,39,-99.99,,,0.00,247.7,rob ver 1B,2013-05-28 14:15:00,
2013-05-28 07:16:00,74.7,38.6,29.18,SE,124,2.9,4.4,27,-99.99,,,0.00,224.9,rob ver 1A,2013-05-28 14:16:00,
2013-05-28 07:17:00,75.5,49.0,29.18,SSW,204,7.8,8.8,39,-99.99,,,0.00,254.9,rob ver 1B,2013-05-28 14:17:00,
2013-05-28 07:18:00,75.3,49.0,29.18,SSW,204,7.6,8.7,39,-99.99,,,0.00,258.8,rob ver 1B,2013-05-28 14:18:00,
2013-05-28 07:19:00,75.3,49.0,29.18,SSW,200,7.9,9.1,39,-99.99,,,0.00,263.1,rob ver 1B,2013-05-28 14:19:00,
2013-05-28 07:20:00,75.3,49.0,29.18,SSW,201,7.5,8.6,39,-99.99,,,0.00,265.7,rob ver 1B,2013-05-28 14:20:00,
2013-05-28 07:21:00,75.2,38.5,29.18,ESE,109,4.5,5.0,26,-99.99,,,0.00,302.2,rob ver 1A,2013-05-28 14:21:00,
2013-05-28 07:22:00,75.6,49.0,29.18,SSW,195,6.8,8.4,38,-99.99,,,0.00,272.6,rob ver 1B,2013-05-28 14:22:00,
2013-05-28 07:23:00,75.8,49.0,29.18,South,188,7.4,8.5,38,-99.99,,,0.00,275.2,rob ver 1B,2013-05-28 14:23:00,
2013-05-28 07:24:00,75.9,48.9,29.18,South,188,7.6,9.1,38,-99.99,,,0.00,277.9,rob ver 1B,2013-05-28 14:24:00,
2013-05-28 07:25:00,75.8,48.9,29.18,South,190,7.6,9.4,38,-99.99,,,0.00,281.8,rob ver 1B,2013-05-28 14:25:00,
2013-05-28 07:26:00,75.1,38.5,29.18,ESE,105,5.6,6.3,26,-99.99,,,0.00,83,rob ver 1A,2013-05-28 14:26:00,
2013-05-28 07:27:00,75.6,49.0,29.18,South,191,7.1,8.4,39,-99.99,,,0.00,290,rob ver 1B,2013-05-28 14:27:00,
2013-05-28 07:28:00,75.6,49.1,29.18,SSW,201,6.0,7.5,39,-99.99,,,0.00,295.4,rob ver 1B,2013-05-28 14:28:00,
2013-05-28 07:29:00,75.8,49.2,29.18,SSW,194,6.2,7.5,39,-99.99,,,0.00,299.2,rob ver 1B,2013-05-28 14:29:00,
2013-05-28 07:30:00,76.1,49.3,29.18,SSW,193,7.1,8.6,38,-99.99,,,0.00,302.6,rob ver 1B,2013-05-28 14:30:00,
2013-05-28 07:31:00,76.2,49.3,29.18,SSW,199,7.8,8.9,38,-99.99,,,0.00,305.4,rob ver 1B,2013-05-28 14:31:00,
2013-05-28 07:32:00,74.9,38.5,29.18,ESE,120,6.1,7.0,26,-99.99,,,0.00,258.5,rob ver 1A,2013-05-28 14:32:00,
2013-05-28 07:33:00,76.1,49.2,29.18,South,185,7.8,9.5,38,-99.99,,,0.00,311.6,rob ver 1B,2013-05-28 14:33:00,
2013-05-28 07:34:00,76.2,49.2,29.18,SSW,193,8.1,9.6,38,-99.99,,,0.00,313.3,rob ver 1B,2013-05-28 14:34:00,
2013-05-28 07:35:00,76.2,49.2,29.18,SSW,200,7.6,9.0,38,-99.99,,,0.00,318.5,rob ver 1B,2013-05-28 14:35:00,
2013-05-28 07:36:00,76.1,49.2,29.18,SSW,198,8.1,9.1,38,-99.99,,,0.00,320.8,rob ver 1B,2013-05-28 14:36:00,
2013-05-28 07:37:00,75.1,38.6,29.18,SE,138,6.2,7.3,26,-99.99,,,0.00,187.7,rob ver 1A,2013-05-28 14:37:00,
2013-05-28 07:38:00,76.2,49.3,29.18,South,189,7.1,8.5,38,-99.99,,,0.00,327.5,rob ver 1B,2013-05-28 14:38:00,
2013-05-28 07:39:00,76.3,49.3,29.18,South,186,6.7,8.4,38,-99.99,,,0.00,331,rob ver 1B,2013-05-28 14:39:00,
2013-05-28 07:40:00,76.5,49.4,29.18,SSW,195,6.8,8.5,38,-99.99,,,0.00,332.9,rob ver 1B,2013-05-28 14:40:00,
2013-05-28 07:41:00,76.7,49.3,29.18,South,190,7.1,9.2,38,-99.99,,,0.00,336.2,rob ver 1B,2013-05-28 14:41:00,
2013-05-28 07:42:00,76.8,49.4,29.18,SSW,194,6.0,7.6,37,-99.99,,,0.00,339.7,rob ver 1B,2013-05-28 14:42:00,
2013-05-28 07:43:00,75.6,38.8,29.18,SE,140,7.3,8.9,26,-99.99,,,0.00,287.9,rob ver 1A,2013-05-28 14:43:00,
2013-05-28 07:44:00,76.9,49.4,29.18,SSW,209,7.7,9.2,38,-99.99,,,0.00,346.4,rob ver 1B,2013-05-28 14:44:00,
2013-05-28 07:45:00,76.7,49.5,29.18,SSW,199,7.8,8.9,38,-99.99,,,0.00,349.7,rob ver 1B,2013-05-28 14:45:00,
2013-05-28 07:46:00,76.8,49.5,29.18,SSW,194,7.1,9.1,38,-99.99,,,0.00,352.6,rob ver 1B,2013-05-28 14:46:00,
2013-05-28 07:47:00,76.9,49.5,29.18,SSW,210,8.3,10.2,38,-99.99,,,0.00,355.6,rob ver 1B,2013-05-28 14:47:00,
2013-05-28 07:48:00,76.1,39.3,29.18,SSE,147,7.3,8.6,26,-99.99,,,0.00,392,rob ver 1A,2013-05-28 14:48:00,
2013-05-28 07:49:00,77.0,49.5,29.18,SSW,211,7.4,9.2,38,-99.99,,,0.00,361.1,rob ver 1B,2013-05-28 14:49:00,
2013-05-28 07:50:00,77.2,49.4,29.18,SSW,195,7.4,8.8,37,-99.99,,,0.00,364.9,rob ver 1B,2013-05-28 14:50:00,
2013-05-28 07:51:00,77.2,49.4,29.18,SSW,200,6.8,8.3,37,-99.99,,,0.00,367.5,rob ver 1B,2013-05-28 14:51:00,
2013-05-28 07:52:00,77.3,49.5,29.18,SSW,213,7.4,9.3,37,-99.99,,,0.00,369.7,rob ver 1B,2013-05-28 14:52:00,
2013-05-28 07:53:00,77.4,49.5,29.18,SSW,203,9.0,10.0,37,-99.99,,,0.00,374.6,rob ver 1B,2013-05-28 14:53:00,
2013-05-28 07:54:00,76.6,39.3,29.18,SSE,158,6.0,8.2,25,-99.99,,,0.00,415.6,rob ver 1A,2013-05-28 14:54:00,
2013-05-28 07:55:00,77.5,49.5,29.21,SSW,194,8.1,9.9,37,-99.99,,,0.00,384.1,rob ver 1B,2013-05-28 14:55:00,
2013-05-28 07:56:00,77.7,49.5,29.21,SSW,196,7.9,9.3,37,-99.99,,,0.00,386.7,rob ver 1B,2013-05-28 14:56:00,
2013-05-28 07:57:00,77.9,49.5,29.21,SSW,207,8.1,9.8,36,-99.99,,,0.00,390,rob ver 1B,2013-05-28 14:57:00,
2013-05-28 07:58:00,77.8,49.5,29.21,SSW,212,9.0,9.8,37,-99.99,,,0.00,393.3,rob ver 1B,2013-05-28 14:58:00,
2013-05-28 07:59:00,77.2,39.4,29.18,SSE,161,7.8,9.6,25,-99.99,,,0.00,438.9,rob ver 1A,2013-05-28 14:59:00,
2013-05-28 08:00:00,77.5,49.6,29.21,SSW,208,8.3,10.0,37,-99.99,,,0.00,399.8,rob ver 1B,2013-05-28 15:00:00,
2013-05-28 08:01:00,77.5,49.6,29.21,SSW,202,8.5,10.2,37,-99.99,,,0.00,403.1,rob ver 1B,2013-05-28 15:01:00,
2013-05-28 08:02:00,77.6,49.7,29.21,SSW,200,8.1,9.8,37,-99.99,,,0.00,406.3,rob ver 1B,2013-05-28 15:02:00,
2013-05-28 08:03:00,77.9,49.5,29.21,SSW,202,9.1,10.9,37,-99.99,,,0.00,409.6,rob ver 1B,2013-05-28 15:03:00,
2013-05-28 08:04:00,77.9,49.7,29.21,SSW,206,9.0,10.2,37,-99.99,,,0.00,413.1,rob ver 1B,2013-05-28 15:04:00,
2013-05-28 08:05:00,77.4,39.6,29.18,SSE,160,7.5,9.1,25,-99.99,,,0.00,126.3,rob ver 1A,2013-05-28 15:05:00,
2013-05-28 08:06:00,77.8,49.5,29.21,SSW,200,8.3,9.7,36,-99.99,,,0.00,420.8,rob ver 1B,2013-05-28 15:06:00,
2013-05-28 08:07:00,77.8,49.4,29.21,SSW,195,9.3,11.0,37,-99.99,,,0.00,425,rob ver 1B,2013-05-28 15:07:00,
2013-05-28 08:08:00,78.0,49.4,29.21,SSW,206,9.5,12.1,36,-99.99,,,0.00,428.3,rob ver 1B,2013-05-28 15:08:00,
2013-05-28 08:09:00,77.8,49.4,29.21,SW,214,8.4,9.9,36,-99.99,,,0.00,431.8,rob ver 1B,2013-05-28 15:09:00,
2013-05-28 08:10:00,77.2,40.2,29.18,South,170,8.9,10.7,26,-99.99,,,0.00,182,rob ver 1A,2013-05-28 15:10:00,
2013-05-28 08:11:00,77.6,49.6,29.21,SSW,207,10.1,11.1,37,-99.99,,,0.00,440.4,rob ver 1B,2013-05-28 15:11:00,
2013-05-28 08:12:00,77.5,49.5,29.21,SSW,206,9.5,11.5,37,-99.99,,,0.00,443.1,rob ver 1B,2013-05-28 15:12:00,
2013-05-28 08:13:00,77.5,49.5,29.21,SSW,200,9.8,11.1,37,-99.99,,,0.00,446.5,rob ver 1B,2013-05-28 15:13:00,
2013-05-28 08:14:00,77.5,49.5,29.21,SSW,194,9.5,11.6,37,-99.99,,,0.00,447.3,rob ver 1B,2013-05-28 15:14:00,
2013-05-28 08:15:00,77.6,40.2,29.18,SSE,166,7.3,9.3,26,-99.99,,,0.00,355.2,rob ver 1A,2013-05-28 15:15:00,
2013-05-28 08:16:00,77.9,49.5,29.21,SSW,201,8.9,10.4,36,-99.99,,,0.00,452.6,rob ver 1B,2013-05-28 15:16:00,
2013-05-28 08:17:00,77.8,49.5,29.21,SSW,200,7.6,9.9,36,-99.99,,,0.00,454.4,rob ver 1B,2013-05-28 15:17:00,
2013-05-28 08:18:00,77.9,49.5,29.21,SSW,204,8.6,10.0,36,-99.99,,,0.00,457.8,rob ver 1B,2013-05-28 15:18:00,
2013-05-28 08:19:00,78.1,49.5,29.21,SSW,210,8.7,10.5,36,-99.99,,,0.00,462.4,rob ver 1B,2013-05-28 15:19:00,
2013-05-28 08:20:00,77.9,40.5,29.18,SSE,148,7.7,8.9,26,-99.99,,,0.00,494.9,rob ver 1A,2013-05-28 15:20:00,
2013-05-28 08:21:00,77.8,49.5,29.21,SSW,198,8.4,10.6,37,-99.99,,,0.00,469.3,rob ver 1B,2013-05-28 15:21:00,
2013-05-28 08:22:00,77.7,49.5,29.21,SSW,198,6.8,8.2,37,-99.99,,,0.00,471.6,rob ver 1B,2013-05-28 15:22:00,
2013-05-28 08:23:00,78.0,49.5,29.21,SSW,207,8.7,10.8,36,-99.99,,,0.00,476,rob ver 1B,2013-05-28 15:23:00,
2013-05-28 08:24:00,78.3,49.2,29.21,South,191,8.7,9.8,35,-99.99,,,0.00,478.4,rob ver 1B,2013-05-28 15:24:00,
2013-05-28 08:25:00,78.4,48.9,29.21,SSW,197,8.6,10.6,35,-99.99,,,0.00,481.1,rob ver 1B,2013-05-28 15:25:00,
2013-05-28 08:26:00,78.5,40.7,29.18,SSE,156,8.1,10.0,26,-99.99,,,0.00,511.3,rob ver 1A,2013-05-28 15:26:00,
2013-05-28 08:27:00,78.8,48.7,29.21,South,176,10.1,12.6,34,-99.99,,,0.00,490.1,rob ver 1B,2013-05-28 15:27:00,
2013-05-28 08:28:00,78.9,48.5,29.21,South,184,9.8,11.7,34,-99.99,,,0.00,492.2,rob ver 1B,2013-05-28 15:28:00,
2013-05-28 08:29:00,78.5,48.4,29.21,South,185,8.8,11.1,34,-99.99,,,0.00,495,rob ver 1B,2013-05-28 15:29:00,
2013-05-28 08:30:00,78.5,48.4,29.21,SSW,204,9.0,12.1,34,-99.99,,,0.00,499.1,rob ver 1B,2013-05-28 15:30:00,
2013-05-28 08:31:00,78.9,40.9,29.18,SSE,150,7.2,8.6,25,-99.99,,,0.00,529,rob ver 1A,2013-05-28 15:31:00,
2013-05-28 08:32:00,79.2,48.6,29.21,SSW,204,7.6,9.9,34,-99.99,,,0.00,503.8,rob ver 1B,2013-05-28 15:32:00,
2013-05-28 08:33:00,79.1,48.5,29.21,SSW,202,7.6,9.3,34,-99.99,,,0.00,507.9,rob ver 1B,2013-05-28 15:33:00,
2013-05-28 08:34:00,79.0,48.3,29.21,SW,217,7.8,10.4,34,-99.99,,,0.00,510.8,rob ver 1B,2013-05-28 15:34:00,
2013-05-28 08:35:00,78.8,48.4,29.21,SW,219,7.6,9.4,34,-99.99,,,0.00,513.6,rob ver 1B,2013-05-28 15:35:00,
2013-05-28 08:36:00,79.0,48.5,29.21,SW,218,5.8,9.1,33,-99.99,,,0.00,515.4,rob ver 1B,2013-05-28 15:36:00,
2013-05-28 08:37:00,79.2,41.5,29.18,SSE,152,7.8,9.3,26,-99.99,,,0.00,547.3,rob ver 1A,2013-05-28 15:37:00,
2013-05-28 08:38:00,79.1,48.1,29.21,SW,229,8.0,11.2,33,-99.99,,,0.00,521.8,rob ver 1B,2013-05-28 15:38:00,
2013-05-28 08:39:00,79.3,48.2,29.21,SW,221,7.5,12.2,33,-99.99,,,0.00,524.3,rob ver 1B,2013-05-28 15:39:00,
2013-05-28 08:40:00,79.7,48.4,29.21,SW,222,8.0,10.8,33,-99.99,,,0.00,528.5,rob ver 1B,2013-05-28 15:40:00,
2013-05-28 08:41:00,79.9,47.9,29.21,SW,228,8.8,10.9,32,-99.99,,,0.00,528.4,rob ver 1B,2013-05-28 15:41:00,
2013-05-28 08:42:00,79.6,47.7,29.21,SW,221,8.0,13.0,32,-99.99,,,0.00,532.3,rob ver 1B,2013-05-28 15:42:00,
2013-05-28 08:43:00,79.8,42.3,29.18,SSE,166,9.2,13.8,26,-99.99,,,0.00,565.2,rob ver 1A,2013-05-28 15:43:00,
2013-05-28 08:44:00,79.6,48.2,29.21,WSW,241,7.3,9.7,32,-99.99,,,0.00,536.7,rob ver 1B,2013-05-28 15:44:00,
2013-05-28 08:45:00,79.7,47.9,29.21,SW,236,6.4,7.9,32,-99.99,,,0.00,541.5,rob ver 1B,2013-05-28 15:45:00,
2013-05-28 08:46:00,79.9,47.9,29.21,SW,233,5.8,7.9,32,-99.99,,,0.00,548.5,rob ver 1B,2013-05-28 15:46:00,
2013-05-28 08:47:00,79.9,47.7,29.21,WSW,244,6.0,8.2,32,-99.99,,,0.00,553.9,rob ver 1B,2013-05-28 15:47:00,
2013-05-28 08:48:00,80.4,41.9,29.18,SSE,150,8.8,11.0,25,-99.99,,,0.00,583.8,rob ver 1A,2013-05-28 15:48:00,
2013-05-28 08:49:00,80.1,47.8,29.21,SW,232,7.0,9.7,32,-99.99,,,0.00,561,rob ver 1B,2013-05-28 15:49:00,
2013-05-28 08:50:00,80.1,47.8,29.21,SW,229,8.7,10.6,32,-99.99,,,0.00,566.4,rob ver 1B,2013-05-28 15:50:00,
2013-05-28 08:51:00,80.2,48.1,29.21,SW,227,7.5,9.7,32,-99.99,,,0.00,565.7,rob ver 1B,2013-05-28 15:51:00,
2013-05-28 08:52:00,80.4,47.8,29.21,SW,231,5.8,7.5,31,-99.99,,,0.00,568.8,rob ver 1B,2013-05-28 15:52:00,
2013-05-28 08:53:00,80.3,47.4,29.21,SW,235,6.3,8.1,31,-99.99,,,0.00,569.5,rob ver 1B,2013-05-28 15:53:00,
2013-05-28 08:54:00,80.1,41.9,29.18,SSE,155,7.1,9.4,25,-99.99,,,0.00,600.7,rob ver 1A,2013-05-28 15:54:00,
2013-05-28 08:55:00,80.3,47.5,29.21,WSW,242,3.7,6.9,31,-99.99,,,0.00,577.5,rob ver 1B,2013-05-28 15:55:00,
2013-05-28 08:56:00,80.5,47.7,29.21,WSW,238,5.3,7.2,31,-99.99,,,0.00,575.9,rob ver 1B,2013-05-28 15:56:00,
2013-05-28 08:57:00,80.8,47.7,29.21,SW,233,5.8,8.3,31,-99.99,,,0.00,579.6,rob ver 1B,2013-05-28 15:57:00,
2013-05-28 08:58:00,80.9,47.8,29.21,SW,216,3.7,6.6,31,-99.99,,,0.00,587.5,rob ver 1B,2013-05-28 15:58:00,
2013-05-28 08:59:00,80.5,42.2,29.18,South,183,8.8,11.0,25,-99.99,,,0.00,618.8,rob ver 1A,2013-05-28 15:59:00,
2013-05-28 09:00:00,80.8,47.9,29.21,SW,220,4.9,6.4,31,-99.99,,,0.00,593.2,rob ver 1B,2013-05-28 16:00:00,
2013-05-28 09:01:00,80.9,47.7,29.21,SW,215,6.9,8.5,29,-99.99,,,0.00,600.6,rob ver 1B,2013-05-28 16:01:00,
2013-05-28 09:02:00,81.3,46.6,29.21,SW,228,8.7,10.6,29,-99.99,,,0.00,602.9,rob ver 1B,2013-05-28 16:02:00,
2013-05-28 09:03:00,81.2,46.7,29.21,SW,232,6.8,9.8,30,-99.99,,,0.00,601.1,rob ver 1B,2013-05-28 16:03:00,
2013-05-28 09:04:00,81.3,46.9,29.21,SW,223,7.9,9.5,30,-99.99,,,0.00,605.7,rob ver 1B,2013-05-28 16:04:00,
2013-05-28 09:05:00,80.9,42.1,29.18,SSW,210,8.0,11.7,25,-99.99,,,0.00,641.1,rob ver 1A,2013-05-28 16:05:00,
2013-05-28 09:06:00,81.3,47.4,29.21,WSW,247,4.1,5.9,30,-99.99,,,0.00,611.4,rob ver 1B,2013-05-28 16:06:00,
2013-05-28 09:07:00,81.6,47.3,29.21,SW,222,6.4,9.1,29,-99.99,,,0.00,608.8,rob ver 1B,2013-05-28 16:07:00,
2013-05-28 09:08:00,81.5,47.3,29.21,SW,221,7.1,9.1,30,-99.99,,,0.00,612.9,rob ver 1B,2013-05-28 16:08:00,
2013-05-28 09:09:00,81.4,47.5,29.21,SSW,207,6.5,9.2,30,-99.99,,,0.00,619.3,rob ver 1B,2013-05-28 16:09:00,
2013-05-28 09:10:00,81.5,47.1,29.21,SSW,208,7.6,11.2,29,-99.99,,,0.00,622.6,rob ver 1B,2013-05-28 16:10:00,
2013-05-28 09:11:00,81.1,42.4,29.18,SSW,205,10.8,13.2,25,-99.99,,,0.00,669.8,rob ver 1A,2013-05-28 16:11:00,
2013-05-28 09:12:00,81.6,46.7,29.21,SW,231,8.6,10.5,28,-99.99,,,0.00,629.6,rob ver 1B,2013-05-28 16:12:00,
2013-05-28 09:13:00,81.6,45.9,29.21,SW,230,7.7,9.5,26,-99.99,,,0.00,633.7,rob ver 1B,2013-05-28 16:13:00,
2013-05-28 09:14:00,81.8,43.8,29.21,West,261,6.0,8.4,26,-99.99,,,0.00,637.3,rob ver 1B,2013-05-28 16:14:00,
2013-05-28 09:15:00,82.3,44.7,29.21,West,281,4.6,7.6,27,-99.99,,,0.00,641.2,rob ver 1B,2013-05-28 16:15:00,
2013-05-28 09:16:00,82.4,46.4,29.21,SW,221,9.3,14.1,28,-99.99,,,0.00,644.2,rob ver 1B,2013-05-28 16:16:00,
2013-05-28 09:17:00,81.0,42.4,29.18,South,191,8.2,10.6,25,-99.99,,,0.00,669.3,rob ver 1A,2013-05-28 16:17:00,
2013-05-28 09:18:00,82.3,45.9,29.21,SW,227,9.7,11.7,28,-99.99,,,0.00,648.8,rob ver 1B,2013-05-28 16:18:00,
2013-05-28 09:19:00,82.1,46.0,29.21,SW,217,8.4,12.4,28,-99.99,,,0.00,652.2,rob ver 1B,2013-05-28 16:19:00,
2013-05-28 09:20:00,82.0,46.3,29.21,SSW,210,6.5,9.6,28,-99.99,,,0.00,654.7,rob ver 1B,2013-05-28 16:20:00,
2013-05-28 09:21:00,82.2,46.8,29.21,SW,216,6.0,10.0,29,-99.99,,,0.00,657.1,rob ver 1B,2013-05-28 16:21:00,
2013-05-28 09:22:00,81.0,42.4,29.18,SW,218,7.4,10.2,25,-99.99,,,0.00,665.7,rob ver 1A,2013-05-28 16:22:00,
2013-05-28 09:23:00,82.2,46.5,29.21,SW,214,8.6,10.4,26,-99.99,,,0.00,660.6,rob ver 1B,2013-05-28 16:23:00,
2013-05-28 09:24:00,82.5,44.7,29.21,SW,220,6.6,8.8,26,-99.99,,,0.00,664.7,rob ver 1B,2013-05-28 16:24:00,
2013-05-28 09:25:00,82.8,44.5,29.21,SSW,208,6.5,10.2,26,-99.99,,,0.00,668.4,rob ver 1B,2013-05-28 16:25:00,
2013-05-28 09:26:00,83.1,44.7,29.21,SW,217,3.9,6.9,26,-99.99,,,0.00,676.8,rob ver 1B,2013-05-28 16:26:00,
2013-05-28 09:27:00,83.3,45.7,29.21,SW,229,5.3,10.3,26,-99.99,,,0.00,680.1,rob ver 1B,2013-05-28 16:27:00,
2013-05-28 09:28:00,81.9,42.4,29.18,SW,222,5.4,7.1,24,-99.99,,,0.00,605.8,rob ver 1A,2013-05-28 16:28:00,
2013-05-28 09:29:00,83.2,46.2,29.21,SW,228,4.4,7.0,27,-99.99,,,0.00,683.3,rob ver 1B,2013-05-28 16:29:00,
2013-05-28 09:30:00,83.3,46.5,29.21,SSW,213,6.3,10.3,27,-99.99,,,0.00,686.6,rob ver 1B,2013-05-28 16:30:00,
2013-05-28 09:31:00,83.3,46.7,29.21,SSW,198,7.2,11.0,28,-99.99,,,0.00,692.3,rob ver 1B,2013-05-28 16:31:00,
2013-05-28 09:32:00,83.1,46.7,29.21,SSW,204,4.7,7.0,28,-99.99,,,0.00,694,rob ver 1B,2013-05-28 16:32:00,
2013-05-28 09:33:00,83.0,46.8,29.21,SSW,204,3.5,7.0,28,-99.99,,,0.00,694.8,rob ver 1B,2013-05-28 16:33:00,
2013-05-28 09:34:00,81.4,42.3,29.18,SSW,198,9.0,12.7,25,-99.99,,,0.00,651.3,rob ver 1A,2013-05-28 16:34:00,
2013-05-28 09:35:00,83.5,46.5,29.21,SW,214,8.6,13.6,27,-99.99,,,0.00,703,rob ver 1B,2013-05-28 16:35:00,
2013-05-28 09:36:00,83.6,46.4,29.21,SSW,206,7.2,10.9,27,-99.99,,,0.00,707,rob ver 1B,2013-05-28 16:36:00,
2013-05-28 09:37:00,83.5,46.3,29.21,SSW,197,6.5,10.2,27,-99.99,,,0.00,704,rob ver 1B,2013-05-28 16:37:00,
2013-05-28 09:38:00,83.3,46.4,29.21,SSW,200,4.7,6.3,27,-99.99,,,0.00,710,rob ver 1B,2013-05-28 16:38:00,
2013-05-28 09:39:00,83.5,46.3,29.21,SSW,196,7.9,11.7,27,-99.99,,,0.00,711,rob ver 1B,2013-05-28 16:39:00,
2013-05-28 09:40:00,81.3,42.4,29.18,South,170,6.9,8.9,25,-99.99,,,0.00,656.1,rob ver 1A,2013-05-28 16:40:00,
2013-05-28 09:41:00,83.6,46.0,29.21,SSW,211,7.5,9.9,26,-99.99,,,0.00,721,rob ver 1B,2013-05-28 16:41:00,
2013-05-28 09:42:00,83.6,46.3,29.21,SSW,201,5.7,9.3,27,-99.99,,,0.00,717,rob ver 1B,2013-05-28 16:42:00,
2013-05-28 09:43:00,83.6,46.5,29.21,SSW,211,6.7,10.4,27,-99.99,,,0.00,725,rob ver 1B,2013-05-28 16:43:00,
2013-05-28 09:44:00,84.0,46.6,29.21,SW,215,8.7,11.2,27,-99.99,,,0.00,728,rob ver 1B,2013-05-28 16:44:00,
2013-05-28 09:45:00,81.7,42.6,29.18,South,182,10.9,12.6,25,-99.99,,,0.00,701,rob ver 1A,2013-05-28 16:45:00,
2013-05-28 09:46:00,83.7,46.4,29.21,South,187,7.6,10.2,27,-99.99,,,0.00,733,rob ver 1B,2013-05-28 16:46:00,
2013-05-28 09:47:00,83.9,46.3,29.21,SSW,213,9.9,13.2,26,-99.99,,,0.00,737,rob ver 1B,2013-05-28 16:47:00,
2013-05-28 09:48:00,83.9,46.4,29.21,SSW,201,7.3,9.8,27,-99.99,,,0.00,738,rob ver 1B,2013-05-28 16:48:00,
2013-05-28 09:49:00,84.1,46.5,29.21,SW,222,8.3,11.3,26,-99.99,,,0.00,739,rob ver 1B,2013-05-28 16:49:00,
2013-05-28 09:50:00,84.2,46.6,29.21,SSW,193,7.4,9.5,26,-99.99,,,0.00,738,rob ver 1B,2013-05-28 16:50:00,
2013-05-28 09:51:00,82.2,42.7,29.18,South,178,10.1,12.2,24,-99.99,,,0.00,692.9,rob ver 1A,2013-05-28 16:51:00,
2013-05-28 09:52:00,84.7,47.0,29.21,SSW,205,2.0,4.2,27,-99.99,,,0.00,744,rob ver 1B,2013-05-28 16:52:00,
2013-05-28 09:53:00,84.9,46.5,29.21,SW,214,8.7,10.8,26,-99.99,,,0.00,746,rob ver 1B,2013-05-28 16:53:00,
2013-05-28 09:54:00,84.5,46.2,29.21,SSW,211,7.0,9.7,26,-99.99,,,0.00,748,rob ver 1B,2013-05-28 16:54:00,
2013-05-28 09:55:00,84.2,46.0,29.21,SSW,207,6.5,9.0,26,-99.99,,,0.00,749,rob ver 1B,2013-05-28 16:55:00,
2013-05-28 09:56:00,84.2,46.0,29.21,South,185,5.8,8.7,26,-99.99,,,0.00,759,rob ver 1B,2013-05-28 16:56:00,
2013-05-28 09:57:00,82.5,42.4,29.18,SSW,213,9.3,12.1,24,-99.99,,,0.00,729,rob ver 1A,2013-05-28 16:57:00,
2013-05-28 09:58:00,84.0,45.9,29.21,South,178,5.9,7.9,26,-99.99,,,0.00,759,rob ver 1B,2013-05-28 16:58:00,
2013-05-28 09:59:00,83.9,45.9,29.21,South,177,6.2,9.1,26,-99.99,,,0.00,763,rob ver 1B,2013-05-28 16:59:00,
2013-05-28 10:00:00,84.0,46.1,29.21,SSW,205,6.7,11.6,26,-99.99,,,0.00,765,rob ver 1B,2013-05-28 17:00:00,
2013-05-28 10:01:00,84.2,46.1,29.21,SSW,195,7.6,10.3,26,-99.99,,,0.00,768,rob ver 1B,2013-05-28 17:01:00,
2013-05-28 10:02:00,84.1,45.9,29.21,South,182,6.2,9.8,26,-99.99,,,0.00,767,rob ver 1B,2013-05-28 17:02:00,
2013-05-28 10:03:00,83.1,42.7,29.18,SSW,195,10.1,13.7,23,-99.99,,,0.00,799,rob ver 1A,2013-05-28 17:03:00,
2013-05-28 10:04:00,84.3,46.4,29.21,SSW,197,7.7,10.8,26,-99.99,,,0.00,772,rob ver 1B,2013-05-28 17:04:00,
2013-05-28 10:05:00,84.4,46.4,29.21,South,181,6.1,8.3,26,-99.99,,,0.00,776,rob ver 1B,2013-05-28 17:05:00,
2013-05-28 10:06:00,84.6,46.4,29.21,South,181,5.9,9.0,26,-99.99,,,0.00,778,rob ver 1B,2013-05-28 17:06:00,
2013-05-28 10:07:00,85.0,46.5,29.21,SSW,194,9.1,11.9,26,-99.99,,,0.00,785,rob ver 1B,2013-05-28 17:07:00,
2013-05-28 10:08:00,82.9,42.0,29.18,SSW,212,5.7,8.5,23,-99.99,,,0.00,786,rob ver 1A,2013-05-28 17:08:00,
2013-05-28 10:09:00,84.9,46.0,29.21,South,181,7.4,10.0,26,-99.99,,,0.00,785,rob ver 1B,2013-05-28 17:09:00,
2013-05-28 10:10:00,84.7,46.4,29.21,South,183,6.4,9.4,26,-99.99,,,0.00,787,rob ver 1B,2013-05-28 17:10:00,
2013-05-28 10:11:00,85.1,46.2,29.21,SSW,203,7.2,12.7,25,-99.99,,,0.00,791,rob ver 1B,2013-05-28 17:11:00,
2013-05-28 10:12:00,85.3,45.9,29.21,SW,234,8.6,11.9,25,-99.99,,,0.00,796,rob ver 1B,2013-05-28 17:12:00,
2013-05-28 10:13:00,84.1,42.2,29.18,SSW,213,11.2,15.3,22,-99.99,,,0.00,554.8,rob ver 1A,2013-05-28 17:13:00,
2013-05-28 10:14:00,85.3,46.1,29.21,SW,222,5.7,8.2,26,-99.99,,,0.00,800,rob ver 1B,2013-05-28 17:14:00,
2013-05-28 10:15:00,85.6,46.5,29.21,SW,221,8.4,10.5,25,-99.99,,,0.00,804,rob ver 1B,2013-05-28 17:15:00,
2013-05-28 10:16:00,85.7,46.3,29.21,SW,233,8.5,11.8,25,-99.99,,,0.00,806,rob ver 1B,2013-05-28 17:16:00,
2013-05-28 10:17:00,85.5,46.1,29.21,SW,229,7.8,9.8,25,-99.99,,,0.00,804,rob ver 1B,2013-05-28 17:17:00,
2013-05-28 10:18:00,85.4,46.1,29.21,West,260,5.0,8.2,25,-99.99,,,0.00,807,rob ver 1B,2013-05-28 17:18:00,
2013-05-28 10:19:00,83.7,41.8,29.18,SSE,165,11.7,15.4,22,-99.99,,,0.00,607.4,rob ver 1A,2013-05-28 17:19:00,
2013-05-28 10:20:00,85.6,47.2,29.21,SW,216,8.4,11.4,26,-99.99,,,0.00,813,rob ver 1B,2013-05-28 17:20:00,
2013-05-28 10:21:00,85.4,46.7,29.21,SW,216,10.6,13.6,26,-99.99,,,0.00,812,rob ver 1B,2013-05-28 17:21:00,
2013-05-28 10:22:00,84.8,46.8,29.21,SW,230,5.9,9.6,26,-99.99,,,0.00,813,rob ver 1B,2013-05-28 17:22:00,
2013-05-28 10:23:00,84.7,47.0,29.21,South,185,7.2,9.9,27,-99.99,,,0.00,816,rob ver 1B,2013-05-28 17:23:00,
2013-05-28 10:24:00,84.6,47.0,29.21,South,190,3.4,5.4,27,-99.99,,,0.00,817,rob ver 1B,2013-05-28 17:24:00,
2013-05-28 10:25:00,83.8,41.1,29.18,SSW,199,6.1,9.0,22,-99.99,,,0.00,611.7,rob ver 1A,2013-05-28 17:25:00,
2013-05-28 10:26:00,85.4,46.4,29.21,SSW,201,8.7,11.8,25,-99.99,,,0.00,823,rob ver 1B,2013-05-28 17:26:00,
2013-05-28 10:27:00,85.5,46.2,29.21,SSW,195,7.8,11.6,25,-99.99,,,0.00,827,rob ver 1B,2013-05-28 17:27:00,
2013-05-28 10:28:00,85.2,46.3,29.21,South,185,6.4,8.8,25,-99.99,,,0.00,831,rob ver 1B,2013-05-28 17:28:00,
2013-05-28 10:29:00,85.1,46.3,29.21,SW,215,2.2,4.5,25,-99.99,,,0.00,830,rob ver 1B,2013-05-28 17:29:00,
2013-05-28 10:30:00,83.7,41.5,29.18,South,174,6.7,8.6,22,-99.99,,,0.00,381.8,rob ver 1A,2013-05-28 17:30:00,
2013-05-28 10:31:00,86.0,46.7,29.21,SSW,196,5.9,8.8,25,-99.99,,,0.00,832,rob ver 1B,2013-05-28 17:31:00,
2013-05-28 10:32:00,85.9,46.5,29.21,SSE,157,4.1,7.9,25,-99.99,,,0.00,835,rob ver 1B,2013-05-28 17:32:00,
2013-05-28 10:33:00,85.9,46.3,29.21,SW,236,8.3,11.9,24,-99.99,,,0.00,836,rob ver 1B,2013-05-28 17:33:00,
2013-05-28 10:34:00,85.9,46.1,29.21,SSW,212,5.8,7.9,24,-99.99,,,0.00,839,rob ver 1B,2013-05-28 17:34:00,
2013-05-28 10:35:00,84.3,41.6,29.18,South,188,10.6,17.9,21,-99.99,,,0.00,810,rob ver 1A,2013-05-28 17:35:00,
2013-05-28 10:36:00,85.8,45.8,29.21,WSW,246,5.7,8.2,25,-99.99,,,0.00,839,rob ver 1B,2013-05-28 17:36:00,
2013-05-28 10:37:00,85.7,46.1,29.21,West,265,6.3,9.1,25,-99.99,,,0.00,843,rob ver 1B,2013-05-28 17:37:00,
2013-05-28 10:38:00,85.7,45.9,29.21,SW,231,7.1,9.8,24,-99.99,,,0.00,848,rob ver 1B,2013-05-28 17:38:00,
2013-05-28 10:39:00,85.6,45.4,29.21,WSW,254,7.8,9.9,24,-99.99,,,0.00,851,rob ver 1B,2013-05-28 17:39:00,
2013-05-28 10:40:00,85.7,45.5,29.21,WSW,255,5.8,7.9,24,-99.99,,,0.00,852,rob ver 1B,2013-05-28 17:40:00,
2013-05-28 10:41:00,84.8,41.5,29.18,South,180,10.9,14.8,21,-99.99,,,0.00,908,rob ver 1A,2013-05-28 17:41:00,
2013-05-28 10:42:00,85.9,45.2,29.21,WSW,240,4.2,7.7,24,-99.99,,,0.00,852,rob ver 1B,2013-05-28 17:42:00,
2013-05-28 10:43:00,86.0,45.5,29.21,West,259,3.9,7.3,24,-99.99,,,0.00,855,rob ver 1B,2013-05-28 17:43:00,
2013-05-28 10:44:00,86.2,45.9,29.21,WSW,240,3.6,9.9,24,-99.99,,,0.00,860,rob ver 1B,2013-05-28 17:44:00,
2013-05-28 10:45:00,86.8,45.8,29.21,SW,236,10.0,13.2,24,-99.99,,,0.00,861,rob ver 1B,2013-05-28 17:45:00,
2013-05-28 10:46:00,85.3,41.1,29.18,SSE,163,8.5,9.6,21,-99.99,,,0.00,863,rob ver 1A,2013-05-28 17:46:00,
2013-05-28 10:47:00,86.3,45.6,29.21,SW,235,5.9,7.7,24,-99.99,,,0.00,864,rob ver 1B,2013-05-28 17:47:00,
2013-05-28 10:48:00,86.3,45.4,29.21,WSW,242,8.8,11.5,24,-99.99,,,0.00,863,rob ver 1B,2013-05-28 17:48:00,
2013-05-28 10:49:00,86.0,45.9,29.21,WSW,241,4.8,8.7,24,-99.99,,,0.00,865,rob ver 1B,2013-05-28 17:49:00,
2013-05-28 10:50:00,86.3,45.8,29.21,SW,224,3.1,4.5,24,-99.99,,,0.00,868,rob ver 1B,2013-05-28 17:50:00,
2013-05-28 10:51:00,86.7,45.5,29.21,West,272,3.8,5.6,23,-99.99,,,0.00,870,rob ver 1B,2013-05-28 17:51:00,
2013-05-28 10:52:00,85.5,40.8,29.18,SW,224,6.1,7.9,20,-99.99,,,0.00,894,rob ver 1A,2013-05-28 17:52:00,
2013-05-28 10:53:00,87.4,45.9,29.21,SSW,194,6.4,8.9,23,-99.99,,,0.00,878,rob ver 1B,2013-05-28 17:53:00,
2013-05-28 10:54:00,87.7,45.3,29.21,SW,229,8.0,10.4,22,-99.99,,,0.00,875,rob ver 1B,2013-05-28 17:54:00,
2013-05-28 10:55:00,87.6,44.9,29.21,SW,235,6.9,10.6,22,-99.99,,,0.00,880,rob ver 1B,2013-05-28 17:55:00,
2013-05-28 10:56:00,87.1,45.2,29.21,SW,228,5.7,8.8,23,-99.99,,,0.00,879,rob ver 1B,2013-05-28 17:56:00,
2013-05-28 10:57:00,86.7,40.3,29.18,South,187,12.3,15.1,19,-99.99,,,0.00,918,rob ver 1A,2013-05-28 17:57:00,
2013-05-28 10:58:00,86.5,45.2,29.21,SE,145,5.7,7.6,23,-99.99,,,0.00,881,rob ver 1B,2013-05-28 17:58:00,
2013-05-28 10:59:00,86.3,44.7,29.21,SE,132,4.6,7.2,23,-99.99,,,0.00,885,rob ver 1B,2013-05-28 17:59:00,
2013-05-28 11:00:00,86.4,44.8,29.21,SSE,161,3.5,5.2,23,-99.99,,,0.00,886,rob ver 1B,2013-05-28 18:00:00,
2013-05-28 11:01:00,86.8,45.1,29.21,SSE,164,2.7,3.8,23,-99.99,,,0.00,885,rob ver 1B,2013-05-28 18:01:00,
2013-05-28 11:02:00,87.3,45.1,29.21,South,184,4.8,8.0,22,-99.99,,,0.00,888,rob ver 1B,2013-05-28 18:02:00,
2013-05-28 11:03:00,86.9,39.6,29.18,SW,215,9.8,14.8,18,-99.99,,,0.00,840,rob ver 1A,2013-05-28 18:03:00,
2013-05-28 11:04:00,87.7,45.0,29.21,SW,218,8.7,13.1,22,-99.99,,,0.00,895,rob ver 1B,2013-05-28 18:04:00,
2013-05-28 11:05:00,88.1,45.0,29.21,SW,232,9.9,12.5,22,-99.99,,,0.00,894,rob ver 1B,2013-05-28 18:05:00,
2013-05-28 11:06:00,87.9,45.6,29.21,WSW,244,8.3,11.8,23,-99.99,,,0.00,893,rob ver 1B,2013-05-28 18:06:00,
2013-05-28 11:07:00,87.3,44.9,29.21,SW,230,4.6,7.6,22,-99.99,,,0.00,893,rob ver 1B,2013-05-28 18:07:00,
2013-05-28 11:08:00,86.8,39.1,29.18,WSW,244,10.7,14.5,18,-99.99,,,0.00,744,rob ver 1A,2013-05-28 18:08:00,
2013-05-28 11:09:00,87.7,45.6,29.21,SSW,198,2.0,4.3,23,-99.99,,,0.00,897,rob ver 1B,2013-05-28 18:09:00,
2013-05-28 11:10:00,88.1,45.8,29.21,ESE,112,2.3,5.3,22,-99.99,,,0.00,898,rob ver 1B,2013-05-28 18:10:00,
2013-05-28 11:11:00,88.2,45.5,29.21,SSW,193,5.5,8.8,22,-99.99,,,0.00,901,rob ver 1B,2013-05-28 18:11:00,
2013-05-28 11:12:00,88.2,45.6,29.21,SW,235,6.4,10.3,22,-99.99,,,0.00,903,rob ver 1B,2013-05-28 18:12:00,
2013-05-28 11:13:00,86.3,39.0,29.18,WSW,244,9.0,12.3,18,-99.99,,,0.00,928,rob ver 1A,2013-05-28 18:13:00,
2013-05-28 11:14:00,88.2,45.6,29.21,South,184,5.5,7.9,22,-99.99,,,0.00,904,rob ver 1B,2013-05-28 18:14:00,
2013-05-28 11:15:00,88.1,45.6,29.21,SSE,153,6.1,8.1,22,-99.99,,,0.00,906,rob ver 1B,2013-05-28 18:15:00,
2013-05-28 11:16:00,88.1,45.2,29.21,South,188,11.0,14.7,22,-99.99,,,0.00,907,rob ver 1B,2013-05-28 18:16:00,
2013-05-28 11:17:00,88.2,44.9,29.21,SSW,207,10.3,14.1,21,-99.99,,,0.00,910,rob ver 1B,2013-05-28 18:17:00,
2013-05-28 11:18:00,86.8,38.4,29.18,SW,235,8.6,13.4,18,-99.99,,,0.00,958,rob ver 1A,2013-05-28 18:18:00,
2013-05-28 11:19:00,88.6,43.4,29.21,SSW,204,12.4,14.5,21,-99.99,,,0.00,913,rob ver 1B,2013-05-28 18:19:00,
2013-05-28 11:20:00,88.2,44.1,29.21,SSW,194,9.7,13.1,21,-99.99,,,0.00,915,rob ver 1B,2013-05-28 18:20:00,
2013-05-28 11:21:00,88.3,43.7,29.21,SSW,201,9.3,14.9,21,-99.99,,,0.00,919,rob ver 1B,2013-05-28 18:21:00,
2013-05-28 11:22:00,88.0,43.5,29.21,SSW,212,7.7,11.0,21,-99.99,,,0.00,919,rob ver 1B,2013-05-28 18:22:00,
2013-05-28 11:23:00,88.1,43.6,29.21,SW,218,9.3,11.5,21,-99.99,,,0.00,920,rob ver 1B,2013-05-28 18:23:00,
2013-05-28 11:24:00,86.8,38.9,29.18,SW,215,7.1,13.0,18,-99.99,,,0.00,835,rob ver 1A,2013-05-28 18:24:00,
2013-05-28 11:25:00,88.1,44.4,29.21,WSW,246,5.9,7.7,21,-99.99,,,0.00,921,rob ver 1B,2013-05-28 18:25:00,
2013-05-28 11:26:00,88.2,44.4,29.21,WSW,258,5.8,9.1,22,-99.99,,,0.00,921,rob ver 1B,2013-05-28 18:26:00,
2013-05-28 11:27:00,88.1,44.4,29.21,WNW,287,6.5,9.3,21,-99.99,,,0.00,921,rob ver 1B,2013-05-28 18:27:00,
2013-05-28 11:28:00,88.2,44.6,29.21,WNW,301,3.8,5.5,22,-99.99,,,0.00,921,rob ver 1B,2013-05-28 18:28:00,
2013-05-28 11:29:00,87.4,39.3,29.18,SSW,208,8.4,14.3,18,-99.99,,,0.00,1042,rob ver 1A,2013-05-28 18:29:00,
2013-05-28 11:30:00,89.1,44.4,29.21,NW,323,2.2,4.6,21,-99.99,,,0.00,926,rob ver 1B,2013-05-28 18:30:00,
2013-05-28 11:31:00,89.6,44.4,29.21,WNW,292,1.6,2.7,20,-99.99,,,0.00,924,rob ver 1B,2013-05-28 18:31:00,
2013-05-28 11:32:00,90.0,44.6,29.21,WSW,250,1.8,3.0,20,-99.99,,,0.00,923,rob ver 1B,2013-05-28 18:32:00,
2013-05-28 11:33:00,90.2,44.4,29.21,SW,231,6.0,9.9,20,-99.99,,,0.00,925,rob ver 1B,2013-05-28 18:33:00,
2013-05-28 11:34:00,88.2,38.4,29.18,WSW,238,12.4,16.7,17,-99.99,,,0.00,1102,rob ver 1A,2013-05-28 18:34:00,
2013-05-28 11:35:00,89.6,44.7,29.21,SW,228,10.3,14.3,20,-99.99,,,0.00,928,rob ver 1B,2013-05-28 18:35:00,
2013-05-28 11:36:00,89.2,43.9,29.21,SSW,213,9.0,12.7,20,-99.99,,,0.00,933,rob ver 1B,2013-05-28 18:36:00,
2013-05-28 11:37:00,89.0,44.1,29.21,SW,224,6.9,9.4,20,-99.99,,,0.00,932,rob ver 1B,2013-05-28 18:37:00,
2013-05-28 11:38:00,89.0,44.0,29.21,WSW,249,6.8,9.6,21,-99.99,,,0.00,938,rob ver 1B,2013-05-28 18:38:00,
2013-05-28 11:39:00,87.4,38.9,29.18,SW,234,9.1,12.0,18,-99.99,,,0.00,732,rob ver 1A,2013-05-28 18:39:00,
2013-05-28 11:40:00,89.1,45.0,29.21,SSW,196,9.1,12.9,21,-99.99,,,0.00,937,rob ver 1B,2013-05-28 18:40:00,
2013-05-28 11:41:00,89.0,45.4,29.21,SSW,202,3.5,6.3,22,-99.99,,,0.00,937,rob ver 1B,2013-05-28 18:41:00,
2013-05-28 11:42:00,89.3,45.5,29.21,SW,226,2.7,4.3,21,-99.99,,,0.00,936,rob ver 1B,2013-05-28 18:42:00,
2013-05-28 11:43:00,89.4,44.4,29.21,SSW,211,8.0,10.5,20,-99.99,,,0.00,938,rob ver 1B,2013-05-28 18:43:00,
2013-05-28 11:44:00,88.1,38.7,29.18,SW,231,9.2,12.5,17,-99.99,,,0.00,1049,rob ver 1A,2013-05-28 18:44:00,
2013-05-28 11:45:00,89.2,44.4,29.21,SSW,203,3.3,5.7,20,-99.99,,,0.00,939,rob ver 1B,2013-05-28 18:45:00,
2013-05-28 11:46:00,89.4,44.0,29.21,South,179,3.4,5.5,20,-99.99,,,0.00,939,rob ver 1B,2013-05-28 18:46:00,
2013-05-28 11:47:00,89.5,43.9,29.21,SSW,199,3.8,8.5,20,-99.99,,,0.00,943,rob ver 1B,2013-05-28 18:47:00,
2013-05-28 11:48:00,89.5,44.3,29.21,SSW,208,6.3,9.1,20,-99.99,,,0.00,943,rob ver 1B,2013-05-28 18:48:00,
2013-05-28 11:49:00,89.3,44.2,29.21,SSW,194,7.4,11.4,20,-99.99,,,0.00,942,rob ver 1B,2013-05-28 18:49:00,
2013-05-28 11:50:00,88.5,38.5,29.18,SW,230,9.4,13.3,17,-99.99,,,0.00,1013,rob ver 1A,2013-05-28 18:50:00,
2013-05-28 11:51:00,88.7,45.0,29.21,South,190,6.4,9.6,22,-99.99,,,0.00,944,rob ver 1B,2013-05-28 18:51:00,
2013-05-28 11:52:00,89.2,45.6,29.21,SSW,207,8.4,15.3,22,-99.99,,,0.00,943,rob ver 1B,2013-05-28 18:52:00,
2013-05-28 11:53:00,89.4,46.4,29.21,SW,221,11.8,16.7,22,-99.99,,,0.00,945,rob ver 1B,2013-05-28 18:53:00,
2013-05-28 11:54:00,88.9,46.5,29.21,SW,221,9.5,14.5,23,-99.99,,,0.00,945,rob ver 1B,2013-05-28 18:54:00,
2013-05-28 11:55:00,88.3,38.4,29.18,SW,234,10.5,14.5,17,-99.99,,,0.00,1036,rob ver 1A,2013-05-28 18:55:00,
2013-05-28 11:56:00,88.9,46.4,29.21,SW,231,4.9,7.2,22,-99.99,,,0.00,944,rob ver 1B,2013-05-28 18:56:00,
2013-05-28 11:57:00,88.9,46.1,29.21,SSW,204,7.0,11.1,22,-99.99,,,0.00,944,rob ver 1B,2013-05-28 18:57:00,
2013-05-28 11:58:00,89.3,45.8,29.21,SSE,167,8.8,12.2,21,-99.99,,,0.00,947,rob ver 1B,2013-05-28 18:58:00,
2013-05-28 11:59:00,89.1,45.5,29.21,SSE,156,8.5,10.5,22,-99.99,,,0.00,948,rob ver 1B,2013-05-28 18:59:00,
2013-05-28 12:00:00,89.2,45.4,29.21,SSW,203,14.2,17.2,21,-99.99,,,0.00,947,rob ver 1B,2013-05-28 19:00:00,
2013-05-28 12:01:00,89.0,38.5,29.18,SSW,203,3.8,5.9,16,-99.99,,,0.00,923,rob ver 1A,2013-05-28 19:01:00,
2013-05-28 12:02:00,89.6,45.3,29.21,SSW,200,9.6,14.0,21,-99.99,,,0.00,952,rob ver 1B,2013-05-28 19:02:00,
2013-05-28 12:03:00,89.7,45.0,29.21,SSW,197,9.8,13.9,20,-99.99,,,0.00,954,rob ver 1B,2013-05-28 19:03:00,
2013-05-28 12:04:00,89.7,44.5,29.21,SSW,201,8.6,10.5,20,-99.99,,,0.00,954,rob ver 1B,2013-05-28 19:04:00,
2013-05-28 12:05:00,89.6,44.7,29.21,SSW,196,7.5,9.0,21,-99.99,,,0.00,956,rob ver 1B,2013-05-28 19:05:00,
2013-05-28 12:06:00,89.2,38.3,29.18,WSW,255,6.8,11.3,16,-99.99,,,0.00,546.1,rob ver 1A,2013-05-28 19:06:00,
2013-05-28 12:07:00,89.8,45.7,29.21,WSW,240,3.9,6.7,22,-99.99,,,0.00,954,rob ver 1B,2013-05-28 19:07:00,
2013-05-28 12:08:00,90.1,45.9,29.21,SW,231,3.0,4.6,21,-99.99,,,0.00,954,rob ver 1B,2013-05-28 19:08:00,
2013-05-28 12:09:00,90.3,45.6,29.21,SSE,161,7.5,12.2,21,-99.99,,,0.00,954,rob ver 1B,2013-05-28 19:09:00,
2013-05-28 12:10:00,90.0,44.9,29.21,South,171,7.7,11.0,21,-99.99,,,0.00,957,rob ver 1B,2013-05-28 19:10:00,
2013-05-28 12:11:00,88.7,38.4,29.15,West,264,10.6,12.7,17,-99.99,,,0.00,901,rob ver 1A,2013-05-28 19:11:00,
2013-05-28 12:12:00,90.3,44.6,29.21,SW,215,10.8,17.7,20,-99.99,,,0.00,957,rob ver 1B,2013-05-28 19:12:00,
2013-05-28 12:13:00,89.6,44.7,29.21,West,261,6.4,10.9,21,-99.99,,,0.00,957,rob ver 1B,2013-05-28 19:13:00,
2013-05-28 12:14:00,89.6,45.0,29.21,SW,218,6.4,9.0,21,-99.99,,,0.00,958,rob ver 1B,2013-05-28 19:14:00,
2013-05-28 12:15:00,89.7,45.2,29.21,SSE,167,3.0,4.8,21,-99.99,,,0.00,957,rob ver 1B,2013-05-28 19:15:00,
2013-05-28 12:16:00,89.3,38.8,29.15,SSE,166,8.7,11.4,16,-99.99,,,0.00,1057,rob ver 1A,2013-05-28 19:16:00,
2013-05-28 12:17:00,90.5,46.0,29.21,South,172,10.4,14.3,21,-99.99,,,0.00,957,rob ver 1B,2013-05-28 19:17:00,
2013-05-28 12:18:00,90.3,45.8,29.21,SSE,164,12.1,15.9,21,-99.99,,,0.00,960,rob ver 1B,2013-05-28 19:18:00,
2013-05-28 12:19:00,90.1,45.6,29.21,SSE,165,13.0,15.9,21,-99.99,,,0.00,960,rob ver 1B,2013-05-28 19:19:00,
2013-05-28 12:20:00,89.7,45.2,29.21,SSE,158,8.0,12.1,21,-99.99,,,0.00,961,rob ver 1B,2013-05-28 19:20:00,
2013-05-28 12:21:00,89.7,45.2,29.21,SSE,168,9.3,12.7,21,-99.99,,,0.00,962,rob ver 1B,2013-05-28 19:21:00,
2013-05-28 12:22:00,90.9,38.6,29.15,South,187,9.8,13.2,16,-99.99,,,0.00,925,rob ver 1A,2013-05-28 19:22:00,
2013-05-28 12:23:00,90.0,45.3,29.21,South,188,3.4,5.4,21,-99.99,,,0.00,961,rob ver 1B,2013-05-28 19:23:00,
2013-05-28 12:24:00,90.1,45.0,29.21,South,173,7.2,11.0,20,-99.99,,,0.00,962,rob ver 1B,2013-05-28 19:24:00,
2013-05-28 12:25:00,89.8,44.8,29.21,SE,136,7.8,10.4,21,-99.99,,,0.00,962,rob ver 1B,2013-05-28 19:25:00,
2013-05-28 12:26:00,89.7,44.8,29.21,SE,135,7.1,9.1,21,-99.99,,,0.00,963,rob ver 1B,2013-05-28 19:26:00,
2013-05-28 12:27:00,89.5,44.7,29.21,SE,126,6.8,9.2,21,-99.99,,,0.00,964,rob ver 1B,2013-05-28 19:27:00,
2013-05-28 12:28:00,89.5,38.6,29.15,SSW,203,11.4,16.2,16,-99.99,,,0.00,902,rob ver 1A,2013-05-28 19:28:00,
2013-05-28 12:29:00,89.9,44.6,29.21,SSE,156,11.1,13.2,20,-99.99,,,0.00,960,rob ver 1B,2013-05-28 19:29:00,
2013-05-28 12:30:00,90.0,44.4,29.21,South,177,9.0,11.1,20,-99.99,,,0.00,961,rob ver 1B,2013-05-28 19:30:00,
2013-05-28 12:31:00,90.0,44.9,29.21,SSE,155,6.9,10.6,21,-99.99,,,0.00,962,rob ver 1B,2013-05-28 19:31:00,
2013-05-28 12:32:00,90.2,45.1,29.21,South,188,8.3,11.0,21,-99.99,,,0.00,964,rob ver 1B,2013-05-28 19:32:00,
2013-05-28 12:33:00,89.6,38.4,29.15,WSW,238,9.1,11.9,16,-99.99,,,0.00,1146,rob ver 1A,2013-05-28 19:33:00,
2013-05-28 12:34:00,90.7,45.5,29.21,SSW,208,7.9,10.9,21,-99.99,,,0.00,963,rob ver 1B,2013-05-28 19:34:00,
2013-05-28 12:35:00,90.7,45.4,29.21,SW,220,6.2,7.6,20,-99.99,,,0.00,962,rob ver 1B,2013-05-28 19:35:00,
2013-05-28 12:36:00,90.8,45.5,29.21,SW,226,5.9,7.1,21,-99.99,,,0.00,962,rob ver 1B,2013-05-28 19:36:00,
2013-05-28 12:37:00,90.8,45.5,29.21,SSW,195,6.7,9.3,20,-99.99,,,0.00,961,rob ver 1B,2013-05-28 19:37:00,
2013-05-28 12:38:00,90.1,38.3,29.15,South,186,12.6,16.8,16,-99.99,,,0.00,841,rob ver 1A,2013-05-28 19:38:00,
2013-05-28 12:39:00,90.8,44.9,29.21,South,186,9.8,15.1,20,-99.99,,,0.00,961,rob ver 1B,2013-05-28 19:39:00,
2013-05-28 12:40:00,90.9,44.5,29.21,SSE,162,14.0,16.0,20,-99.99,,,0.00,962,rob ver 1B,2013-05-28 19:40:00,
2013-05-28 12:41:00,90.5,44.5,29.21,SSE,157,12.0,16.1,20,-99.99,,,0.00,962,rob ver 1B,2013-05-28 19:41:00,
2013-05-28 12:42:00,90.2,44.3,29.21,SSE,158,9.3,11.4,20,-99.99,,,0.00,964,rob ver 1B,2013-05-28 19:42:00,
2013-05-28 12:43:00,90.0,44.2,29.21,South,177,7.3,9.2,20,-99.99,,,0.00,965,rob ver 1B,2013-05-28 19:43:00,
2013-05-28 12:44:00,90.0,38.7,29.15,South,182,6.4,12.2,16,-99.99,,,0.00,1113,rob ver 1A,2013-05-28 19:44:00,
2013-05-28 12:45:00,90.5,44.3,29.21,South,184,4.4,6.5,20,-99.99,,,0.00,964,rob ver 1B,2013-05-28 19:45:00,
2013-05-28 12:46:00,90.8,44.5,29.21,SSW,197,5.1,8.5,19,-99.99,,,0.00,963,rob ver 1B,2013-05-28 19:46:00,
2013-05-28 12:47:00,91.1,43.6,29.21,SSE,147,6.2,8.7,19,-99.99,,,0.00,960,rob ver 1B,2013-05-28 19:47:00,
2013-05-28 12:48:00,91.1,43.6,29.21,SE,129,5.9,10.6,20,-99.99,,,0.00,960,rob ver 1B,2013-05-28 19:48:00,
2013-05-28 12:49:00,90.1,38.6,29.15,South,177,13.7,17.7,16,-99.99,,,0.00,466.1,rob ver 1A,2013-05-28 19:49:00,
2013-05-28 12:50:00,90.7,45.1,29.21,SSE,148,5.3,9.7,20,-99.99,,,0.00,959,rob ver 1B,2013-05-28 19:50:00,
2013-05-28 12:51:00,91.0,44.6,29.21,SSE,158,9.7,13.0,20,-99.99,,,0.00,959,rob ver 1B,2013-05-28 19:51:00,
2013-05-28 12:52:00,91.1,44.6,29.21,SSE,161,8.6,12.3,20,-99.99,,,0.00,958,rob ver 1B,2013-05-28 19:52:00,
2013-05-28 12:53:00,90.9,44.5,29.18,South,170,7.5,9.6,20,-99.99,,,0.00,958,rob ver 1B,2013-05-28 19:53:00,
2013-05-28 12:54:00,90.2,38.6,29.15,SSW,208,15.9,19.9,16,-99.99,,,0.00,1118,rob ver 1A,2013-05-28 19:54:00,
2013-05-28 12:55:00,91.4,44.6,29.18,South,190,7.3,9.4,19,-99.99,,,0.00,962,rob ver 1B,2013-05-28 19:55:00,
2013-05-28 12:56:00,91.5,44.4,29.18,South,177,9.3,12.6,19,-99.99,,,0.00,965,rob ver 1B,2013-05-28 19:56:00,
2013-05-28 12:57:00,91.6,43.5,29.18,South,173,11.8,15.7,18,-99.99,,,0.00,965,rob ver 1B,2013-05-28 19:57:00,
2013-05-28 12:58:00,91.5,42.9,29.18,South,178,9.5,13.6,18,-99.99,,,0.00,963,rob ver 1B,2013-05-28 19:58:00,
2013-05-28 12:59:00,91.5,43.0,29.18,South,187,9.6,12.5,19,-99.99,,,0.00,963,rob ver 1B,2013-05-28 19:59:00,
2013-05-28 13:00:00,90.0,38.2,29.15,SSW,204,17.9,21.6,16,-99.99,,,0.00,1057,rob ver 1A,2013-05-28 20:00:00,
2013-05-28 13:01:00,92.4,43.6,29.18,South,177,9.2,11.6,18,-99.99,,,0.00,962,rob ver 1B,2013-05-28 20:01:00,
2013-05-28 13:02:00,92.0,43.8,29.18,SSE,164,7.0,10.8,18,-99.99,,,0.00,961,rob ver 1B,2013-05-28 20:02:00,
2013-05-28 13:03:00,91.7,44.1,29.18,SSE,156,5.9,9.9,19,-99.99,,,0.00,960,rob ver 1B,2013-05-28 20:03:00,
2013-05-28 13:04:00,92.1,45.1,29.18,SE,139,6.2,12.3,19,-99.99,,,0.00,960,rob ver 1B,2013-05-28 20:04:00,
2013-05-28 13:05:00,92.1,45.2,29.18,SSE,159,12.8,19.6,19,-99.99,,,0.00,958,rob ver 1B,2013-05-28 20:05:00,
2013-05-28 13:06:00,90.0,38.2,29.15,SSW,204,11.0,14.0,16,-99.99,,,0.00,1041,rob ver 1A,2013-05-28 20:06:00,
2013-05-28 13:07:00,91.8,44.9,29.18,SSE,157,9.4,11.8,19,-99.99,,,0.00,957,rob ver 1B,2013-05-28 20:07:00,
2013-05-28 13:08:00,91.6,44.9,29.18,SSE,149,11.0,15.5,20,-99.99,,,0.00,956,rob ver 1B,2013-05-28 20:08:00,
2013-05-28 13:09:00,91.6,44.8,29.18,SSE,149,10.5,14.7,19,-99.99,,,0.00,956,rob ver 1B,2013-05-28 20:09:00,
2013-05-28 13:10:00,91.7,44.6,29.18,SSE,149,9.8,13.4,19,-99.99,,,0.00,958,rob ver 1B,2013-05-28 20:10:00,
2013-05-28 13:11:00,91.3,44.2,29.18,SSE,149,11.6,13.9,19,-99.99,,,0.00,956,rob ver 1B,2013-05-28 20:11:00,
2013-05-28 13:12:00,91.3,38.2,29.15,SW,221,14.9,19.0,15,-99.99,,,0.00,1023,rob ver 1A,2013-05-28 20:12:00,
2013-05-28 13:13:00,91.2,43.8,29.18,SSE,167,6.1,10.7,19,-99.99,,,0.00,954,rob ver 1B,2013-05-28 20:13:00,
2013-05-28 13:14:00,91.2,43.9,29.18,SSE,165,4.7,6.3,19,-99.99,,,0.00,951,rob ver 1B,2013-05-28 20:14:00,
2013-05-28 13:15:00,91.6,43.9,29.18,SSE,165,8.4,13.3,19,-99.99,,,0.00,955,rob ver 1B,2013-05-28 20:15:00,
2013-05-28 13:16:00,91.7,43.8,29.18,SSE,152,5.4,8.4,19,-99.99,,,0.00,950,rob ver 1B,2013-05-28 20:16:00,
2013-05-28 13:17:00,90.4,39.2,29.15,SSW,205,12.3,18.7,16,-99.99,,,0.00,1096,rob ver 1A,2013-05-28 20:17:00,
2013-05-28 13:18:00,92.0,43.3,29.18,South,186,6.4,10.1,18,-99.99,,,0.00,949,rob ver 1B,2013-05-28 20:18:00,
2013-05-28 13:19:00,92.6,42.3,29.18,SSW,199,10.2,12.8,17,-99.99,,,0.00,948,rob ver 1B,2013-05-28 20:19:00,
2013-05-28 13:20:00,92.6,42.5,29.18,SSW,204,9.1,12.7,17,-99.99,,,0.00,946,rob ver 1B,2013-05-28 20:20:00,
2013-05-28 13:21:00,92.4,42.1,29.18,South,174,6.1,8.7,17,-99.99,,,0.00,951,rob ver 1B,2013-05-28 20:21:00,
2013-05-28 13:22:00,89.9,38.4,29.15,SW,216,8.2,12.6,16,-99.99,,,0.00,1052,rob ver 1A,2013-05-28 20:22:00,
2013-05-28 13:23:00,93.4,42.8,29.18,SSW,193,10.8,13.5,16,-99.99,,,0.00,948,rob ver 1B,2013-05-28 20:23:00,
2013-05-28 13:24:00,93.4,42.2,29.18,South,182,9.1,12.6,17,-99.99,,,0.00,945,rob ver 1B,2013-05-28 20:24:00,
2013-05-28 13:25:00,93.1,43.6,29.18,SSW,192,10.5,18.3,18,-99.99,,,0.00,946,rob ver 1B,2013-05-28 20:25:00,
2013-05-28 13:26:00,93.5,44.5,29.18,South,175,9.5,13.1,18,-99.99,,,0.00,950,rob ver 1B,2013-05-28 20:26:00,
2013-05-28 13:27:00,92.1,37.2,29.15,SSW,200,19.3,23.8,14,-99.99,,,0.00,1088,rob ver 1A,2013-05-28 20:27:00,
2013-05-28 13:28:00,93.2,44.4,29.18,South,170,11.7,20.1,18,-99.99,,,0.00,949,rob ver 1B,2013-05-28 20:28:00,
2013-05-28 13:29:00,93.7,44.6,29.18,South,173,11.1,14.6,18,-99.99,,,0.00,944,rob ver 1B,2013-05-28 20:29:00,
2013-05-28 13:30:00,93.5,44.3,29.18,South,185,13.6,16.1,18,-99.99,,,0.00,944,rob ver 1B,2013-05-28 20:30:00,
2013-05-28 13:31:00,92.8,44.3,29.18,South,176,10.9,13.7,19,-99.99,,,0.00,943,rob ver 1B,2013-05-28 20:31:00,
2013-05-28 13:32:00,93.2,43.9,29.18,South,175,11.6,14.0,17,-99.99,,,0.00,943,rob ver 1B,2013-05-28 20:32:00,
2013-05-28 13:33:00,90.7,38.4,29.15,SSW,212,5.7,9.7,15,-99.99,,,0.00,1050,rob ver 1A,2013-05-28 20:33:00,
2013-05-28 13:34:00,93.7,42.0,29.18,South,178,13.6,16.0,16,-99.99,,,0.00,940,rob ver 1B,2013-05-28 20:34:00,
2013-05-28 13:35:00,93.1,41.3,29.18,South,178,9.4,13.1,16,-99.99,,,0.00,939,rob ver 1B,2013-05-28 20:35:00,
2013-05-28 13:36:00,93.0,41.6,29.18,SSW,212,8.9,13.2,17,-99.99,,,0.00,940,rob ver 1B,2013-05-28 20:36:00,
2013-05-28 13:37:00,92.7,41.4,29.18,SSW,199,10.6,13.3,17,-99.99,,,0.00,938,rob ver 1B,2013-05-28 20:37:00,
2013-05-28 13:38:00,91.0,38.0,29.15,SSW,207,12.2,16.6,15,-99.99,,,0.00,1014,rob ver 1A,2013-05-28 20:38:00,
2013-05-28 13:39:00,92.5,41.5,29.18,SSW,193,11.2,14.1,16,-99.99,,,0.00,938,rob ver 1B,2013-05-28 20:39:00,
2013-05-28 13:40:00,92.7,41.0,29.18,SW,215,11.2,14.9,16,-99.99,,,0.00,938,rob ver 1B,2013-05-28 20:40:00,
2013-05-28 13:41:00,92.8,41.0,29.18,SSW,196,12.1,15.0,16,-99.99,,,0.00,937,rob ver 1B,2013-05-28 20:41:00,
2013-05-28 13:42:00,93.3,41.2,29.18,SSW,196,9.5,13.3,16,-99.99,,,0.00,931,rob ver 1B,2013-05-28 20:42:00,
2013-05-28 13:43:00,91.2,38.4,29.12,SW,225,6.6,10.4,15,-99.99,,,0.00,1076,rob ver 1A,2013-05-28 20:43:00,
2013-05-28 13:44:00,92.9,41.4,29.18,SSW,202,5.3,7.9,16,-99.99,,,0.00,933,rob ver 1B,2013-05-28 20:44:00,
2013-05-28 13:45:00,93.3,39.8,29.18,South,185,9.7,13.0,15,-99.99,,,0.00,932,rob ver 1B,2013-05-28 20:45:00,
2013-05-28 13:46:00,93.0,39.9,29.18,SW,219,9.5,12.6,15,-99.99,,,0.00,930,rob ver 1B,2013-05-28 20:46:00,
2013-05-28 13:47:00,92.9,42.3,29.15,SW,223,11.9,18.4,18,-99.99,,,0.00,928,rob ver 1B,2013-05-28 20:47:00,
2013-05-28 13:48:00,91.2,39.1,29.12,SSW,192,14.9,19.1,16,-99.99,,,0.00,1044,rob ver 1A,2013-05-28 20:48:00,
2013-05-28 13:49:00,93.4,43.9,29.15,SW,214,11.2,16.2,18,-99.99,,,0.00,928,rob ver 1B,2013-05-28 20:49:00,
2013-05-28 13:50:00,93.4,44.2,29.18,South,186,10.5,16.2,18,-99.99,,,0.00,920,rob ver 1B,2013-05-28 20:50:00,
2013-05-28 13:51:00,94.1,44.2,29.18,SSW,192,11.9,15.3,18,-99.99,,,0.00,919,rob ver 1B,2013-05-28 20:51:00,
2013-05-28 13:52:00,94.3,44.2,29.18,SSW,195,10.9,13.9,17,-99.99,,,0.00,920,rob ver 1B,2013-05-28 20:52:00,
2013-05-28 13:53:00,93.8,43.9,29.18,South,188,9.1,13.2,18,-99.99,,,0.00,909,rob ver 1B,2013-05-28 20:53:00,
2013-05-28 13:54:00,91.1,37.5,29.12,SSE,168,9.1,14.5,15,-99.99,,,0.00,994,rob ver 1A,2013-05-28 20:54:00,
2013-05-28 13:55:00,93.0,43.8,29.18,SSE,159,9.4,15.7,18,-99.99,,,0.00,915,rob ver 1B,2013-05-28 20:55:00,
2013-05-28 13:56:00,93.6,43.8,29.18,South,178,11.9,14.7,17,-99.99,,,0.00,912,rob ver 1B,2013-05-28 20:56:00,
2013-05-28 13:57:00,94.0,43.8,29.15,SSW,202,11.9,15.1,17,-99.99,,,0.00,913,rob ver 1B,2013-05-28 20:57:00,
2013-05-28 13:58:00,94.4,43.7,29.15,South,188,11.7,15.1,17,-99.99,,,0.00,912,rob ver 1B,2013-05-28 20:58:00,
2013-05-28 13:59:00,94.3,43.7,29.15,SSW,193,8.6,12.8,17,-99.99,,,0.00,914,rob ver 1B,2013-05-28 20:59:00,
2013-05-28 14:00:00,91.7,39.1,29.12,SSW,204,9.2,12.1,15,-99.99,,,0.00,768,rob ver 1A,2013-05-28 21:00:00,
2013-05-28 14:01:00,94.3,43.4,29.15,SSW,195,11.4,15.9,17,-99.99,,,0.00,912,rob ver 1B,2013-05-28 21:01:00,
2013-05-28 14:02:00,94.1,42.8,29.18,SSE,163,11.3,16.1,16,-99.99,,,0.00,907,rob ver 1B,2013-05-28 21:02:00,
2013-05-28 14:03:00,94.0,42.9,29.18,South,169,13.9,16.6,17,-99.99,,,0.00,913,rob ver 1B,2013-05-28 21:03:00,
2013-05-28 14:04:00,93.7,42.7,29.18,SSE,154,12.1,14.6,17,-99.99,,,0.00,906,rob ver 1B,2013-05-28 21:04:00,
2013-05-28 14:05:00,92.3,39.4,29.12,SSW,208,18.4,23.8,15,-99.99,,,0.00,961,rob ver 1A,2013-05-28 21:05:00,
2013-05-28 14:06:00,93.3,42.8,29.18,SSE,160,8.0,10.7,17,-99.99,,,0.00,907,rob ver 1B,2013-05-28 21:06:00,
2013-05-28 14:07:00,93.6,42.0,29.15,SSW,199,12.2,16.8,16,-99.99,,,0.00,912,rob ver 1B,2013-05-28 21:07:00,
2013-05-28 14:08:00,93.5,41.9,29.15,SSW,193,12.8,17.0,17,-99.99,,,0.00,911,rob ver 1B,2013-05-28 21:08:00,
2013-05-28 14:09:00,93.3,41.9,29.15,South,186,10.5,14.3,16,-99.99,,,0.00,905,rob ver 1B,2013-05-28 21:09:00,
2013-05-28 14:10:00,91.4,39.4,29.12,South,175,8.0,14.5,16,-99.99,,,0.00,853,rob ver 1A,2013-05-28 21:10:00,
2013-05-28 14:11:00,93.8,41.9,29.15,SSW,200,9.0,13.5,16,-99.99,,,0.00,900,rob ver 1B,2013-05-28 21:11:00,
2013-05-28 14:12:00,94.8,40.9,29.15,South,183,11.0,15.1,15,-99.99,,,0.00,899,rob ver 1B,2013-05-28 21:12:00,
2013-05-28 14:13:00,94.4,40.2,29.15,South,190,13.0,16.8,15,-99.99,,,0.00,897,rob ver 1B,2013-05-28 21:13:00,
2013-05-28 14:14:00,94.3,40.5,29.15,SSW,196,11.0,17.6,15,-99.99,,,0.00,896,rob ver 1B,2013-05-28 21:14:00,
2013-05-28 14:15:00,94.1,39.6,29.15,SSW,205,12.3,15.7,15,-99.99,,,0.00,890,rob ver 1B,2013-05-28 21:15:00,
2013-05-28 14:16:00,92.2,38.7,29.12,SSW,199,16.0,18.8,15,-99.99,,,0.00,930,rob ver 1A,2013-05-28 21:16:00,
2013-05-28 14:17:00,94.0,42.4,29.15,South,185,7.8,11.9,17,-99.99,,,0.00,881,rob ver 1B,2013-05-28 21:17:00,
2013-05-28 14:18:00,93.9,42.7,29.15,SSE,167,11.5,13.9,17,-99.99,,,0.00,883,rob ver 1B,2013-05-28 21:18:00,
2013-05-28 14:19:00,93.6,42.6,29.15,SSE,161,8.7,11.9,17,-99.99,,,0.00,880,rob ver 1B,2013-05-28 21:19:00,
2013-05-28 14:20:00,93.3,42.7,29.15,SSE,157,8.3,11.7,17,-99.99,,,0.00,879,rob ver 1B,2013-05-28 21:20:00,
2013-05-28 14:21:00,93.0,42.4,29.15,SSE,165,7.1,12.8,17,-99.99,,,0.00,877,rob ver 1B,2013-05-28 21:21:00,
2013-05-28 14:22:00,91.2,40.4,29.12,South,171,13.1,17.9,17,-99.99,,,0.00,905,rob ver 1A,2013-05-28 21:22:00,
2013-05-28 14:23:00,93.4,42.7,29.15,SSW,206,9.6,12.1,17,-99.99,,,0.00,877,rob ver 1B,2013-05-28 21:23:00,
2013-05-28 14:24:00,94.0,41.8,29.15,SSW,208,12.7,16.8,16,-99.99,,,0.00,879,rob ver 1B,2013-05-28 21:24:00,
2013-05-28 14:25:00,93.7,40.9,29.15,SSW,200,10.6,13.8,16,-99.99,,,0.00,876,rob ver 1B,2013-05-28 21:25:00,
2013-05-28 14:26:00,93.6,41.2,29.15,SW,218,9.1,16.6,16,-99.99,,,0.00,875,rob ver 1B,2013-05-28 21:26:00,
2013-05-28 14:27:00,92.4,39.8,29.12,South,180,16.4,19.6,16,-99.99,,,0.00,883,rob ver 1A,2013-05-28 21:27:00,
2013-05-28 14:28:00,94.1,40.8,29.15,SSW,208,10.2,13.8,15,-99.99,,,0.00,873,rob ver 1B,2013-05-28 21:28:00,
2013-05-28 14:29:00,94.5,40.6,29.15,South,188,11.0,15.4,15,-99.99,,,0.00,873,rob ver 1B,2013-05-28 21:29:00,
2013-05-28 14:30:00,94.8,40.0,29.15,SSW,194,11.2,14.2,15,-99.99,,,0.00,867,rob ver 1B,2013-05-28 21:30:00,
2013-05-28 14:31:00,94.2,40.3,29.15,SW,228,10.1,14.0,15,-99.99,,,0.00,867,rob ver 1B,2013-05-28 21:31:00,
2013-05-28 14:32:00,92.0,40.0,29.12,South,178,16.2,19.3,16,-99.99,,,0.00,881,rob ver 1A,2013-05-28 21:32:00,
2013-05-28 14:33:00,94.2,40.0,29.15,SSW,212,11.6,14.6,15,-99.99,,,0.00,870,rob ver 1B,2013-05-28 21:33:00,
2013-05-28 14:34:00,93.9,40.3,29.15,SW,221,10.0,15.7,15,-99.99,,,0.00,865,rob ver 1B,2013-05-28 21:34:00,
2013-05-28 14:35:00,93.8,40.7,29.15,SW,234,12.6,15.1,15,-99.99,,,0.00,861,rob ver 1B,2013-05-28 21:35:00,
2013-05-28 14:36:00,94.0,40.5,29.15,SSW,212,12.3,15.3,15,-99.99,,,0.00,862,rob ver 1B,2013-05-28 21:36:00,
2013-05-28 14:37:00,94.7,40.1,29.15,SSW,196,12.5,16.8,14,-99.99,,,0.00,861,rob ver 1B,2013-05-28 21:37:00,
2013-05-28 14:38:00,91.6,40.1,29.12,South,189,13.0,15.6,16,-99.99,,,0.00,870,rob ver 1A,2013-05-28 21:38:00,
2013-05-28 14:39:00,94.8,39.5,29.15,SSW,211,11.1,15.3,14,-99.99,,,0.00,850,rob ver 1B,2013-05-28 21:39:00,
2013-05-28 14:40:00,94.5,39.8,29.15,SSW,200,8.0,9.9,15,-99.99,,,0.00,851,rob ver 1B,2013-05-28 21:40:00,
2013-05-28 14:41:00,94.7,39.2,29.15,SSW,211,10.1,14.2,14,-99.99,,,0.00,853,rob ver 1B,2013-05-28 21:41:00,
2013-05-28 14:42:00,94.7,39.1,29.15,SSE,160,13.6,17.3,14,-99.99,,,0.00,849,rob ver 1B,2013-05-28 21:42:00,
2013-05-28 14:43:00,92.0,40.0,29.12,South,176,13.9,19.7,16,-99.99,,,0.00,860,rob ver 1A,2013-05-28 21:43:00,
2013-05-28 14:44:00,94.4,39.5,29.15,South,183,15.6,18.3,14,-99.99,,,0.00,848,rob ver 1B,2013-05-28 21:44:00,
2013-05-28 14:45:00,94.5,38.9,29.15,South,174,12.4,15.6,14,-99.99,,,0.00,845,rob ver 1B,2013-05-28 21:45:00,
2013-05-28 14:46:00,94.5,38.5,29.15,South,182,13.0,18.0,14,-99.99,,,0.00,844,rob ver 1B,2013-05-28 21:46:00,
2013-05-28 14:47:00,94.5,38.4,29.15,SSW,211,12.7,17.5,14,-99.99,,,0.00,844,rob ver 1B,2013-05-28 21:47:00,
2013-05-28 14:48:00,94.2,38.1,29.15,SSW,195,13.9,16.6,13,-99.99,,,0.00,841,rob ver 1B,2013-05-28 21:48:00,
2013-05-28 14:49:00,92.0,39.6,29.12,SSE,167,14.6,17.4,16,-99.99,,,0.00,867,rob ver 1A,2013-05-28 21:49:00,
2013-05-28 14:50:00,94.6,37.5,29.15,SSE,165,13.9,17.6,13,-99.99,,,0.00,836,rob ver 1B,2013-05-28 21:50:00,
2013-05-28 14:51:00,94.5,37.9,29.15,South,174,11.7,15.3,14,-99.99,,,0.00,828,rob ver 1B,2013-05-28 21:51:00,
2013-05-28 14:52:00,94.1,38.6,29.15,South,188,11.4,16.5,14,-99.99,,,0.00,834,rob ver 1B,2013-05-28 21:52:00,
2013-05-28 14:53:00,94.3,38.7,29.15,SSW,199,12.2,14.8,14,-99.99,,,0.00,828,rob ver 1B,2013-05-28 21:53:00,
2013-05-28 14:54:00,92.0,39.7,29.12,South,182,11.8,19.1,16,-99.99,,,0.00,424.9,rob ver 1A,2013-05-28 21:54:00,
2013-05-28 14:55:00,94.7,38.1,29.15,SW,224,15.1,19.8,13,-99.99,,,0.00,827,rob ver 1B,2013-05-28 21:55:00,
2013-05-28 14:56:00,94.5,38.0,29.15,SW,214,11.2,14.0,14,-99.99,,,0.00,825,rob ver 1B,2013-05-28 21:56:00,
2013-05-28 14:57:00,95.0,38.0,29.15,SSW,192,13.0,17.0,13,-99.99,,,0.00,824,rob ver 1B,2013-05-28 21:57:00,
2013-05-28 14:58:00,95.0,37.8,29.15,SSW,196,13.1,17.1,13,-99.99,,,0.00,827,rob ver 1B,2013-05-28 21:58:00,
2013-05-28 14:59:00,95.0,37.5,29.15,SSW,192,12.7,18.8,13,-99.99,,,0.00,823,rob ver 1B,2013-05-28 21:59:00,
2013-05-28 15:00:00,92.0,40.0,29.12,South,189,11.2,13.7,16,-99.99,,,0.00,853,rob ver 1A,2013-05-28 22:00:00,
2013-05-28 15:01:00,94.8,38.0,29.15,SSW,209,11.5,17.2,13,-99.99,,,0.00,815,rob ver 1B,2013-05-28 22:01:00,
2013-05-28 15:02:00,94.8,38.1,29.15,South,186,12.1,18.7,13,-99.99,,,0.00,806,rob ver 1B,2013-05-28 22:02:00,
2013-05-28 15:03:00,95.3,38.1,29.15,SSW,193,13.5,16.1,13,-99.99,,,0.00,814,rob ver 1B,2013-05-28 22:03:00,
2013-05-28 15:04:00,95.1,37.9,29.15,SSW,207,11.0,14.1,13,-99.99,,,0.00,807,rob ver 1B,2013-05-28 22:04:00,
2013-05-28 15:05:00,92.4,39.3,29.09,South,174,14.8,18.3,15,-99.99,,,0.00,851,rob ver 1A,2013-05-28 22:05:00,
2013-05-28 15:06:00,94.7,38.0,29.15,South,190,8.6,14.5,13,-99.99,,,0.00,806,rob ver 1B,2013-05-28 22:06:00,
2013-05-28 15:07:00,94.9,38.0,29.15,South,174,15.1,18.4,13,-99.99,,,0.00,805,rob ver 1B,2013-05-28 22:07:00,
2013-05-28 15:08:00,94.5,38.0,29.15,South,173,14.4,17.8,14,-99.99,,,0.00,797,rob ver 1B,2013-05-28 22:08:00,
2013-05-28 15:09:00,94.5,38.1,29.15,South,171,12.0,15.2,14,-99.99,,,0.00,785,rob ver 1B,2013-05-28 22:09:00,
2013-05-28 15:10:00,92.9,40.0,29.09,South,179,17.9,21.1,15,-99.99,,,0.00,900,rob ver 1A,2013-05-28 22:10:00,
2013-05-28 15:11:00,94.0,38.2,29.15,South,183,8.6,12.5,14,-99.99,,,0.00,783,rob ver 1B,2013-05-28 22:11:00,
2013-05-28 15:12:00,94.4,38.8,29.15,South,189,9.6,12.7,14,-99.99,,,0.00,781,rob ver 1B,2013-05-28 22:12:00,
2013-05-28 15:13:00,94.7,38.2,29.15,SSW,200,7.7,10.4,13,-99.99,,,0.00,782,rob ver 1B,2013-05-28 22:13:00,
2013-05-28 15:14:00,95.4,38.4,29.15,SSW,197,7.7,10.2,13,-99.99,,,0.00,782,rob ver 1B,2013-05-28 22:14:00,
2013-05-28 15:15:00,95.6,38.2,29.15,SSW,195,12.3,15.0,13,-99.99,,,0.00,782,rob ver 1B,2013-05-28 22:15:00,
2013-05-28 15:16:00,91.5,40.4,29.09,South,180,12.2,16.9,17,-99.99,,,0.00,828,rob ver 1A,2013-05-28 22:16:00,
2013-05-28 15:17:00,94.8,38.8,29.15,SSW,205,11.9,17.6,15,-99.99,,,0.00,773,rob ver 1B,2013-05-28 22:17:00,
2013-05-28 15:18:00,95.0,40.3,29.15,SSW,200,17.3,21.7,14,-99.99,,,0.00,773,rob ver 1B,2013-05-28 22:18:00,
2013-05-28 15:19:00,95.0,40.3,29.15,SSW,203,12.0,16.2,15,-99.99,,,0.00,766,rob ver 1B,2013-05-28 22:19:00,
2013-05-28 15:20:00,94.8,40.4,29.15,SSW,206,14.1,17.3,15,-99.99,,,0.00,765,rob ver 1B,2013-05-28 22:20:00,
2013-05-28 15:21:00,94.6,40.8,29.15,SW,217,10.9,14.7,15,-99.99,,,0.00,759,rob ver 1B,2013-05-28 22:21:00,
2013-05-28 15:22:00,92.3,40.5,29.09,South,178,11.4,14.9,16,-99.99,,,0.00,772,rob ver 1A,2013-05-28 22:22:00,
2013-05-28 15:23:00,94.2,40.6,29.15,SSW,193,8.0,11.2,15,-99.99,,,0.00,756,rob ver 1B,2013-05-28 22:23:00,
2013-05-28 15:24:00,94.3,40.7,29.15,South,177,7.7,9.8,15,-99.99,,,0.00,759,rob ver 1B,2013-05-28 22:24:00,
2013-05-28 15:25:00,94.7,40.5,29.15,South,177,13.0,18.3,15,-99.99,,,0.00,745,rob ver 1B,2013-05-28 22:25:00,
2013-05-28 15:26:00,94.5,40.4,29.15,SSE,168,11.0,18.5,15,-99.99,,,0.00,743,rob ver 1B,2013-05-28 22:26:00,
2013-05-28 15:27:00,92.0,40.9,29.09,South,179,16.1,19.7,17,-99.99,,,0.00,756,rob ver 1A,2013-05-28 22:27:00,
2013-05-28 15:28:00,94.5,41.0,29.15,South,187,10.2,14.7,15,-99.99,,,0.00,744,rob ver 1B,2013-05-28 22:28:00,
2013-05-28 15:29:00,94.9,41.4,29.15,SSW,202,10.7,12.8,15,-99.99,,,0.00,746,rob ver 1B,2013-05-28 22:29:00,
2013-05-28 15:30:00,95.0,41.3,29.15,South,188,11.4,15.5,15,-99.99,,,0.00,745,rob ver 1B,2013-05-28 22:30:00,
2013-05-28 15:31:00,94.8,40.9,29.15,SSE,166,11.2,14.2,15,-99.99,,,0.00,739,rob ver 1B,2013-05-28 22:31:00,
2013-05-28 15:32:00,92.6,41.5,29.09,SSW,195,14.3,28.1,16,-99.99,,,0.00,739,rob ver 1A,2013-05-28 22:32:00,
2013-05-28 15:33:00,94.8,41.3,29.15,South,186,13.8,15.6,15,-99.99,,,0.00,731,rob ver 1B,2013-05-28 22:33:00,
2013-05-28 15:34:00,94.9,41.2,29.15,South,180,11.2,13.7,15,-99.99,,,0.00,732,rob ver 1B,2013-05-28 22:34:00,
2013-05-28 15:35:00,94.6,40.9,29.15,South,172,7.6,12.4,15,-99.99,,,0.00,733,rob ver 1B,2013-05-28 22:35:00,
2013-05-28 15:36:00,94.5,41.5,29.15,South,189,6.5,9.4,15,-99.99,,,0.00,732,rob ver 1B,2013-05-28 22:36:00,
2013-05-28 15:37:00,91.8,41.5,29.09,South,182,11.5,14.0,17,-99.99,,,0.00,725,rob ver 1A,2013-05-28 22:37:00,
2013-05-28 15:38:00,95.1,41.9,29.12,SSW,203,15.4,25.1,15,-99.99,,,0.00,727,rob ver 1B,2013-05-28 22:38:00,
2013-05-28 15:39:00,95.1,42.2,29.12,SSW,197,15.0,19.8,16,-99.99,,,0.00,720,rob ver 1B,2013-05-28 22:39:00,
2013-05-28 15:40:00,94.8,42.4,29.12,SSW,207,13.2,16.4,16,-99.99,,,0.00,717,rob ver 1B,2013-05-28 22:40:00,
2013-05-28 15:41:00,94.9,42.1,29.12,South,187,11.4,15.9,16,-99.99,,,0.00,717,rob ver 1B,2013-05-28 22:41:00,
2013-05-28 15:42:00,92.3,41.2,29.09,South,184,14.0,16.7,17,-99.99,,,0.00,712,rob ver 1A,2013-05-28 22:42:00,
2013-05-28 15:43:00,95.3,41.7,29.12,SSW,198,12.0,15.3,15,-99.99,,,0.00,716,rob ver 1B,2013-05-28 22:43:00,
2013-05-28 15:44:00,95.7,41.9,29.12,South,189,11.4,14.1,15,-99.99,,,0.00,715,rob ver 1B,2013-05-28 22:44:00,
2013-05-28 15:45:00,95.6,41.8,29.12,SSW,198,7.8,9.7,15,-99.99,,,0.00,707,rob ver 1B,2013-05-28 22:45:00,
2013-05-28 15:46:00,95.6,41.4,29.12,SSW,207,11.5,15.7,15,-99.99,,,0.00,707,rob ver 1B,2013-05-28 22:46:00,
2013-05-28 15:47:00,95.2,41.3,29.12,SW,217,10.3,16.5,15,-99.99,,,0.00,704,rob ver 1B,2013-05-28 22:47:00,
2013-05-28 15:48:00,93.1,41.4,29.09,SSE,167,14.5,17.7,16,-99.99,,,0.00,696.5,rob ver 1A,2013-05-28 22:48:00,
2013-05-28 15:49:00,96.1,41.7,29.12,South,188,11.3,14.2,15,-99.99,,,0.00,693.4,rob ver 1B,2013-05-28 22:49:00,
2013-05-28 15:50:00,96.5,42.3,29.12,South,182,12.7,18.2,15,-99.99,,,0.00,690,rob ver 1B,2013-05-28 22:50:00,
2013-05-28 15:51:00,96.2,42.8,29.12,South,175,14.5,17.4,16,-99.99,,,0.00,689.2,rob ver 1B,2013-05-28 22:51:00,
2013-05-28 15:52:00,95.3,42.6,29.12,South,183,10.1,14.5,16,-99.99,,,0.00,689.8,rob ver 1B,2013-05-28 22:52:00,
2013-05-28 15:53:00,95.0,43.0,29.12,SSW,196,7.6,9.4,16,-99.99,,,0.00,687.8,rob ver 1B,2013-05-28 22:53:00,
2013-05-28 15:54:00,93.3,41.1,29.09,South,179,16.4,22.6,16,-99.99,,,0.00,679,rob ver 1A,2013-05-28 22:54:00,
2013-05-28 15:55:00,95.8,43.0,29.12,South,191,14.6,17.8,16,-99.99,,,0.00,682.4,rob ver 1B,2013-05-28 22:55:00,
2013-05-28 15:56:00,95.4,43.1,29.12,South,188,12.6,17.5,16,-99.99,,,0.00,681.3,rob ver 1B,2013-05-28 22:56:00,
2013-05-28 15:57:00,95.2,43.5,29.12,South,178,11.1,14.9,17,-99.99,,,0.00,678.5,rob ver 1B,2013-05-28 22:57:00,
2013-05-28 15:58:00,95.3,43.4,29.12,South,189,8.8,12.3,16,-99.99,,,0.00,674.7,rob ver 1B,2013-05-28 22:58:00,
2013-05-28 15:59:00,92.1,41.5,29.09,SSE,152,11.4,14.2,17,-99.99,,,0.00,664.7,rob ver 1A,2013-05-28 22:59:00,
2013-05-28 16:00:00,96.1,43.4,29.12,South,174,11.7,17.8,16,-99.99,,,0.00,667.7,rob ver 1B,2013-05-28 23:00:00,
2013-05-28 16:01:00,96.0,42.8,29.12,South,180,13.9,19.1,15,-99.99,,,0.00,668.5,rob ver 1B,2013-05-28 23:01:00,
2013-05-28 16:02:00,96.4,42.9,29.12,South,180,11.9,17.9,16,-99.99,,,0.00,660.8,rob ver 1B,2013-05-28 23:02:00,
2013-05-28 16:03:00,96.4,43.6,29.12,SSW,209,12.0,14.5,16,-99.99,,,0.00,660.3,rob ver 1B,2013-05-28 23:03:00,
2013-05-28 16:04:00,92.0,41.3,29.09,South,191,8.0,11.9,17,-99.99,,,0.00,648.2,rob ver 1A,2013-05-28 23:04:00,
2013-05-28 16:05:00,95.8,42.0,29.12,South,179,13.1,17.4,15,-99.99,,,0.00,651.8,rob ver 1B,2013-05-28 23:05:00,
2013-05-28 16:06:00,96.2,41.9,29.12,South,179,13.2,16.9,15,-99.99,,,0.00,651,rob ver 1B,2013-05-28 23:06:00,
2013-05-28 16:07:00,96.1,42.0,29.12,South,182,10.7,15.9,15,-99.99,,,0.00,650.2,rob ver 1B,2013-05-28 23:07:00,
2013-05-28 16:08:00,95.6,42.0,29.12,South,173,9.9,13.1,16,-99.99,,,0.00,648.7,rob ver 1B,2013-05-28 23:08:00,
2013-05-28 16:09:00,95.3,42.2,29.12,South,174,11.0,14.2,16,-99.99,,,0.00,643.8,rob ver 1B,2013-05-28 23:09:00,
2013-05-28 16:10:00,92.8,41.2,29.09,South,176,15.2,18.9,16,-99.99,,,0.00,630.3,rob ver 1A,2013-05-28 23:10:00,
2013-05-28 16:11:00,95.6,42.0,29.12,South,187,12.2,15.5,15,-99.99,,,0.00,635.6,rob ver 1B,2013-05-28 23:11:00,
2013-05-28 16:12:00,95.8,42.3,29.12,South,180,10.4,12.8,15,-99.99,,,0.00,630.7,rob ver 1B,2013-05-28 23:12:00,
2013-05-28 16:13:00,95.9,42.4,29.12,South,181,11.2,14.1,15,-99.99,,,0.00,625.8,rob ver 1B,2013-05-28 23:13:00,
2013-05-28 16:14:00,96.4,42.7,29.12,South,177,13.8,15.9,15,-99.99,,,0.00,626.9,rob ver 1B,2013-05-28 23:14:00,
2013-05-28 16:15:00,96.1,42.6,29.12,SSE,164,13.1,16.1,16,-99.99,,,0.00,621,rob ver 1B,2013-05-28 23:15:00,
2013-05-28 16:16:00,93.7,40.6,29.09,South,183,18.4,21.7,15,-99.99,,,0.00,611,rob ver 1A,2013-05-28 23:16:00,
2013-05-28 16:17:00,95.4,42.9,29.12,SSE,161,14.8,18.5,16,-99.99,,,0.00,618.4,rob ver 1B,2013-05-28 23:17:00,
2013-05-28 16:18:00,95.4,43.2,29.12,SSE,160,11.3,14.2,16,-99.99,,,0.00,615,rob ver 1B,2013-05-28 23:18:00,
2013-05-28 16:19:00,95.1,43.3,29.12,SSE,168,12.3,15.4,16,-99.99,,,0.00,611.7,rob ver 1B,2013-05-28 23:19:00,
2013-05-28 16:20:00,95.0,43.2,29.12,South,173,7.5,12.6,16,-99.99,,,0.00,611.7,rob ver 1B,2013-05-28 23:20:00,
2013-05-28 16:21:00,93.9,40.8,29.09,South,182,15.5,20.9,16,-99.99,,,0.00,601.9,rob ver 1A,2013-05-28 23:21:00,
2013-05-28 16:22:00,95.7,43.0,29.12,SSW,192,10.7,15.7,16,-99.99,,,0.00,606,rob ver 1B,2013-05-28 23:22:00,
2013-05-28 16:23:00,96.3,42.6,29.12,SSW,206,13.8,17.1,15,-99.99,,,0.00,600.6,rob ver 1B,2013-05-28 23:23:00,
2013-05-28 16:24:00,96.5,43.0,29.12,SSW,204,13.5,19.7,16,-99.99,,,0.00,595.2,rob ver 1B,2013-05-28 23:24:00,
2013-05-28 16:25:00,96.8,43.3,29.12,SSW,198,12.6,16.3,16,-99.99,,,0.00,591.7,rob ver 1B,2013-05-28 23:25:00,
2013-05-28 16:26:00,92.5,40.6,29.09,South,174,14.1,19.2,16,-99.99,,,0.00,584.2,rob ver 1A,2013-05-28 23:26:00,
2013-05-28 16:27:00,96.2,43.8,29.12,South,183,9.5,12.0,16,-99.99,,,0.00,587,rob ver 1B,2013-05-28 23:27:00,
2013-05-28 16:28:00,96.9,43.8,29.12,SSW,192,9.6,11.4,16,-99.99,,,0.00,584.4,rob ver 1B,2013-05-28 23:28:00,
2013-05-28 16:29:00,96.8,44.0,29.09,South,191,13.8,21.2,16,-99.99,,,0.00,580.6,rob ver 1B,2013-05-28 23:29:00,
2013-05-28 16:30:00,96.2,44.2,29.12,South,181,14.4,18.1,17,-99.99,,,0.00,577,rob ver 1B,2013-05-28 23:30:00,
2013-05-28 16:31:00,93.6,40.6,29.09,SSW,207,18.4,23.2,15,-99.99,,,0.00,570.1,rob ver 1A,2013-05-28 23:31:00,
2013-05-28 16:32:00,95.7,44.1,29.09,SSW,201,12.0,14.6,17,-99.99,,,0.00,574.7,rob ver 1B,2013-05-28 23:32:00,
2013-05-28 16:33:00,96.0,43.6,29.12,South,177,11.4,15.5,15,-99.99,,,0.00,570.1,rob ver 1B,2013-05-28 23:33:00,
2013-05-28 16:34:00,96.2,42.2,29.12,SSE,157,12.9,17.4,16,-99.99,,,0.00,568.7,rob ver 1B,2013-05-28 23:34:00,
2013-05-28 16:35:00,95.6,42.8,29.12,SSE,159,12.8,16.9,16,-99.99,,,0.00,565.5,rob ver 1B,2013-05-28 23:35:00,
2013-05-28 16:36:00,93.5,40.7,29.09,South,180,13.5,21.9,15,-99.99,,,0.00,547.7,rob ver 1A,2013-05-28 23:36:00,
2013-05-28 16:37:00,95.8,43.1,29.12,SSE,168,13.2,19.1,15,-99.99,,,0.00,560.1,rob ver 1B,2013-05-28 23:37:00,
2013-05-28 16:38:00,96.0,42.1,29.09,South,176,15.8,19.3,15,-99.99,,,0.00,553.3,rob ver 1B,2013-05-28 23:38:00,
2013-05-28 16:39:00,96.1,41.7,29.09,South,183,15.8,19.7,15,-99.99,,,0.00,549.5,rob ver 1B,2013-05-28 23:39:00,
2013-05-28 16:40:00,95.8,42.4,29.09,South,188,12.9,17.2,16,-99.99,,,0.00,545.7,rob ver 1B,2013-05-28 23:40:00,
2013-05-28 16:41:00,95.8,43.0,29.09,SSE,167,15.8,20.3,15,-99.99,,,0.00,544.4,rob ver 1B,2013-05-28 23:41:00,
2013-05-28 16:42:00,93.9,40.1,29.09,SSW,202,12.6,18.4,15,-99.99,,,0.00,531.1,rob ver 1A,2013-05-28 23:42:00,
2013-05-28 16:43:00,95.7,42.0,29.09,South,173,12.5,17.5,15,-99.99,,,0.00,534.4,rob ver 1B,2013-05-28 23:43:00,
2013-05-28 16:44:00,95.7,42.7,29.12,SSE,162,11.6,16.0,16,-99.99,,,0.00,536.4,rob ver 1B,2013-05-28 23:44:00,
2013-05-28 16:45:00,96.7,43.7,29.12,SSE,168,13.1,19.6,16,-99.99,,,0.00,531.3,rob ver 1B,2013-05-28 23:45:00,
2013-05-28 16:46:00,96.4,43.7,29.09,South,179,15.3,21.3,16,-99.99,,,0.00,526.8,rob ver 1B,2013-05-28 23:46:00,
2013-05-28 16:47:00,95.6,43.7,29.12,South,191,7.6,11.5,16,-99.99,,,0.00,522.8,rob ver 1B,2013-05-28 23:47:00,
2013-05-28 16:48:00,93.8,40.0,29.06,SSW,206,13.6,17.1,15,-99.99,,,0.00,510,rob ver 1A,2013-05-28 23:48:00,
2013-05-28 16:49:00,95.7,43.6,29.09,South,169,8.3,15.2,16,-99.99,,,0.00,515.3,rob ver 1B,2013-05-28 23:49:00,
2013-05-28 16:50:00,96.3,42.6,29.09,SSE,165,15.0,21.4,15,-99.99,,,0.00,511.9,rob ver 1B,2013-05-28 23:50:00,
2013-05-28 16:51:00,96.6,42.1,29.09,South,172,18.5,23.2,15,-99.99,,,0.00,506,rob ver 1B,2013-05-28 23:51:00,
2013-05-28 16:52:00,96.2,43.3,29.09,South,179,14.7,18.1,16,-99.99,,,0.00,506.3,rob ver 1B,2013-05-28 23:52:00,
2013-05-28 16:53:00,96.3,42.6,29.09,South,185,14.2,17.3,15,-99.99,,,0.00,503.2,rob ver 1B,2013-05-28 23:53:00,
2013-05-28 16:54:00,92.8,40.2,29.09,SSE,168,11.7,14.3,16,-99.99,,,0.00,487.9,rob ver 1A,2013-05-28 23:54:00,
2013-05-28 16:55:00,96.4,41.8,29.09,South,190,12.7,15.6,15,-99.99,,,0.00,499.9,rob ver 1B,2013-05-28 23:55:00,
2013-05-28 16:56:00,96.1,42.7,29.09,South,173,13.4,16.5,16,-99.99,,,0.00,496,rob ver 1B,2013-05-28 23:56:00,
2013-05-28 16:57:00,96.1,43.2,29.09,South,170,12.0,15.5,16,-99.99,,,0.00,490.3,rob ver 1B,2013-05-28 23:57:00,
2013-05-28 16:58:00,96.2,43.7,29.09,South,178,11.8,14.5,16,-99.99,,,0.00,486.8,rob ver 1B,2013-05-28 23:58:00,
2013-05-28 16:59:00,92.7,40.2,29.06,SSW,197,6.4,10.5,16,-99.99,,,0.00,478.2,rob ver 1A,2013-05-28 23:59:00,
2013-05-28 17:00:00,97.0,44.2,29.09,SSW,194,9.8,12.9,16,-99.99,,,0.00,482.4,rob ver 1B,2013-05-29 00:00:00,
2013-05-28 17:01:00,96.9,43.8,29.09,South,185,13.3,17.4,16,-99.99,,,0.00,478,rob ver 1B,2013-05-29 00:01:00,
2013-05-28 17:02:00,96.7,43.7,29.09,South,181,13.5,19.4,16,-99.99,,,0.00,475,rob ver 1B,2013-05-29 00:02:00,
2013-05-28 17:03:00,97.0,43.2,29.09,South,186,14.8,18.2,15,-99.99,,,0.00,474.7,rob ver 1B,2013-05-29 00:03:00,
2013-05-28 17:04:00,93.2,40.0,29.06,South,181,12.3,14.5,15,-99.99,,,0.00,460.2,rob ver 1A,2013-05-29 00:04:00,
2013-05-28 17:05:00,97.0,43.0,29.09,SSW,197,12.7,18.1,15,-99.99,,,0.00,470.4,rob ver 1B,2013-05-29 00:05:00,
2013-05-28 17:06:00,96.8,42.9,29.09,SSW,200,15.1,22.9,15,-99.99,,,0.00,467.7,rob ver 1B,2013-05-29 00:06:00,
2013-05-28 17:07:00,96.5,43.1,29.09,South,188,14.3,17.8,15,-99.99,,,0.00,463.6,rob ver 1B,2013-05-29 00:07:00,
2013-05-28 17:08:00,96.6,42.8,29.09,SSW,197,12.2,14.9,16,-99.99,,,0.00,460,rob ver 1B,2013-05-29 00:08:00,
2013-05-28 17:09:00,97.1,43.8,29.09,South,186,14.6,19.3,16,-99.99,,,0.00,457.3,rob ver 1B,2013-05-29 00:09:00,
2013-05-28 17:10:00,92.8,39.8,29.06,SSE,157,8.6,12.5,15,-99.99,,,0.00,435.3,rob ver 1A,2013-05-29 00:10:00,
2013-05-28 17:11:00,96.5,44.2,29.09,SSW,192,15.2,19.2,16,-99.99,,,0.00,450.3,rob ver 1B,2013-05-29 00:11:00,
2013-05-28 17:12:00,96.3,44.5,29.09,SSW,205,14.3,18.3,17,-99.99,,,0.00,445.1,rob ver 1B,2013-05-29 00:12:00,
2013-05-28 17:13:00,96.1,44.7,29.09,South,187,11.8,13.9,17,-99.99,,,0.00,442.3,rob ver 1B,2013-05-29 00:13:00,
2013-05-28 17:14:00,95.8,44.8,29.09,South,175,9.7,12.7,17,-99.99,,,0.00,438.5,rob ver 1B,2013-05-29 00:14:00,
2013-05-28 17:15:00,92.9,39.9,29.06,SW,235,6.7,8.3,15,-99.99,,,0.00,420.8,rob ver 1A,2013-05-29 00:15:00,
2013-05-28 17:16:00,95.8,45.4,29.09,South,186,11.2,15.2,18,-99.99,,,0.00,431.2,rob ver 1B,2013-05-29 00:16:00,
2013-05-28 17:17:00,95.8,46.7,29.09,South,181,12.0,17.8,18,-99.99,,,0.00,426.9,rob ver 1B,2013-05-29 00:17:00,
2013-05-28 17:18:00,96.0,46.9,29.09,South,178,9.2,13.8,18,-99.99,,,0.00,424.4,rob ver 1B,2013-05-29 00:18:00,
2013-05-28 17:19:00,96.9,47.5,29.09,South,180,12.0,14.8,18,-99.99,,,0.00,419.5,rob ver 1B,2013-05-29 00:19:00,
2013-05-28 17:20:00,93.9,39.5,29.06,South,182,9.6,13.4,14,-99.99,,,0.00,402.4,rob ver 1A,2013-05-29 00:20:00,
2013-05-28 17:21:00,96.9,45.2,29.09,South,170,11.0,13.9,17,-99.99,,,0.00,412.2,rob ver 1B,2013-05-29 00:21:00,
2013-05-28 17:22:00,96.5,45.2,29.09,SSE,166,11.8,16.6,17,-99.99,,,0.00,408.2,rob ver 1B,2013-05-29 00:22:00,
2013-05-28 17:23:00,96.3,45.7,29.09,South,184,10.5,13.0,17,-99.99,,,0.00,405,rob ver 1B,2013-05-29 00:23:00,
2013-05-28 17:24:00,96.7,45.7,29.09,South,189,13.1,15.8,17,-99.99,,,0.00,403,rob ver 1B,2013-05-29 00:24:00,
2013-05-28 17:25:00,96.9,46.3,29.09,SSW,195,12.3,15.1,17,-99.99,,,0.00,399.9,rob ver 1B,2013-05-29 00:25:00,
2013-05-28 17:26:00,93.8,39.2,29.06,South,188,11.6,14.5,14,-99.99,,,0.00,382.6,rob ver 1A,2013-05-29 00:26:00,
2013-05-28 17:27:00,96.7,45.8,29.09,South,188,15.9,20.3,17,-99.99,,,0.00,393.3,rob ver 1B,2013-05-29 00:27:00,
2013-05-28 17:28:00,96.9,45.5,29.09,South,190,15.6,20.5,17,-99.99,,,0.00,388.6,rob ver 1B,2013-05-29 00:28:00,
2013-05-28 17:29:00,96.3,45.8,29.09,SSW,194,14.4,19.7,18,-99.99,,,0.00,384.2,rob ver 1B,2013-05-29 00:29:00,
2013-05-28 17:30:00,96.2,46.5,29.09,SSW,205,17.5,22.2,18,-99.99,,,0.00,380.7,rob ver 1B,2013-05-29 00:30:00,
2013-05-28 17:31:00,93.6,39.2,29.06,South,186,11.5,14.3,15,-99.99,,,0.00,367.1,rob ver 1A,2013-05-29 00:31:00,
2013-05-28 17:32:00,95.9,46.6,29.09,SSW,200,14.9,18.3,18,-99.99,,,0.00,373.4,rob ver 1B,2013-05-29 00:32:00,
2013-05-28 17:33:00,96.0,46.0,29.09,SSW,208,17.0,22.5,18,-99.99,,,0.00,370.3,rob ver 1B,2013-05-29 00:33:00,
2013-05-28 17:34:00,95.7,45.7,29.09,SSW,206,17.3,21.8,17,-99.99,,,0.00,367,rob ver 1B,2013-05-29 00:34:00,
2013-05-28 17:35:00,95.9,45.8,29.09,SSW,202,19.8,22.4,18,-99.99,,,0.00,361.3,rob ver 1B,2013-05-29 00:35:00,
2013-05-28 17:36:00,93.7,39.3,29.06,South,186,13.4,17.9,15,-99.99,,,0.00,351.4,rob ver 1A,2013-05-29 00:36:00,
2013-05-28 17:37:00,96.5,45.2,29.09,SSW,193,16.6,20.6,15,-99.99,,,0.00,354.6,rob ver 1B,2013-05-29 00:37:00,
2013-05-28 17:38:00,96.3,44.9,29.09,South,186,15.4,18.6,18,-99.99,,,0.00,349.8,rob ver 1B,2013-05-29 00:38:00,
2013-05-28 17:39:00,96.5,47.4,29.09,SSW,196,16.8,20.9,18,-99.99,,,0.00,346.9,rob ver 1B,2013-05-29 00:39:00,
2013-05-28 17:40:00,96.0,45.0,29.09,SSW,206,15.9,19.6,17,-99.99,,,0.00,345.1,rob ver 1B,2013-05-29 00:40:00,
2013-05-28 17:41:00,96.0,46.4,29.09,SSW,203,16.2,20.4,18,-99.99,,,0.00,341.3,rob ver 1B,2013-05-29 00:41:00,
2013-05-28 17:42:00,93.7,39.6,29.06,South,184,11.2,14.5,15,-99.99,,,0.00,333,rob ver 1A,2013-05-29 00:42:00,
2013-05-28 17:43:00,96.2,48.0,29.09,SSW,198,17.5,21.8,19,-99.99,,,0.00,332.9,rob ver 1B,2013-05-29 00:43:00,
2013-05-28 17:44:00,95.8,47.8,29.09,SSW,203,16.1,18.9,20,-99.99,,,0.00,329.7,rob ver 1B,2013-05-29 00:44:00,
2013-05-28 17:45:00,95.4,48.6,29.09,SSW,204,15.3,18.9,20,-99.99,,,0.00,325.1,rob ver 1B,2013-05-29 00:45:00,
2013-05-28 17:46:00,95.7,48.0,29.09,South,189,12.0,14.8,19,-99.99,,,0.00,321.7,rob ver 1B,2013-05-29 00:46:00,
2013-05-28 17:47:00,96.4,43.9,29.09,South,179,17.0,20.6,15,-99.99,,,0.00,317.4,rob ver 1B,2013-05-29 00:47:00,
2013-05-28 17:48:00,93.9,39.1,29.06,South,179,10.5,12.7,15,-99.99,,,0.00,312.7,rob ver 1A,2013-05-29 00:48:00,
2013-05-28 17:49:00,95.9,46.2,29.09,SSE,168,13.2,15.1,18,-99.99,,,0.00,308.7,rob ver 1B,2013-05-29 00:49:00,
2013-05-28 17:50:00,95.6,48.1,29.09,South,175,16.2,22.9,20,-99.99,,,0.00,304.3,rob ver 1B,2013-05-29 00:50:00,
2013-05-28 17:51:00,95.6,48.3,29.09,South,184,17.8,21.7,19,-99.99,,,0.00,300.9,rob ver 1B,2013-05-29 00:51:00,
2013-05-28 17:52:00,95.4,47.9,29.09,SSE,166,17.0,20.9,19,-99.99,,,0.00,297.4,rob ver 1B,2013-05-29 00:52:00,
2013-05-28 17:53:00,94.0,39.3,29.06,South,182,11.6,13.7,14,-99.99,,,0.00,291.6,rob ver 1A,2013-05-29 00:53:00,
2013-05-28 17:54:00,95.2,48.0,29.09,South,181,19.5,26.3,20,-99.99,,,0.00,292.4,rob ver 1B,2013-05-29 00:54:00,
2013-05-28 17:55:00,95.0,48.1,29.09,SSE,163,20.5,24.8,20,-99.99,,,0.00,288.4,rob ver 1B,2013-05-29 00:55:00,
2013-05-28 17:56:00,94.9,48.1,29.09,SSE,163,20.5,23.8,20,-99.99,,,0.00,287.1,rob ver 1B,2013-05-29 00:56:00,
2013-05-28 17:57:00,95.0,48.1,29.09,SSE,168,21.7,26.7,20,-99.99,,,0.00,281.9,rob ver 1B,2013-05-29 00:57:00,
2013-05-28 17:58:00,94.9,47.9,29.09,SSE,153,20.2,23.6,20,-99.99,,,0.00,277.9,rob ver 1B,2013-05-29 00:58:00,
2013-05-28 17:59:00,93.3,39.5,29.06,SSE,168,15.3,17.7,15,-99.99,,,0.00,276,rob ver 1A,2013-05-29 00:59:00,
2013-05-28 18:00:00,94.6,47.8,29.09,SSE,151,15.5,17.8,20,-99.99,,,0.00,272.4,rob ver 1B,2013-05-29 01:00:00,
2013-05-28 18:01:00,94.4,47.9,29.09,SSE,153,15.2,17.5,20,-99.99,,,0.00,270.1,rob ver 1B,2013-05-29 01:01:00,
2013-05-28 18:02:00,94.3,47.9,29.09,SSE,158,15.7,19.5,20,-99.99,,,0.00,266.8,rob ver 1B,2013-05-29 01:02:00,
2013-05-28 18:03:00,94.3,47.7,29.09,SSE,168,17.3,21.0,20,-99.99,,,0.00,264.2,rob ver 1B,2013-05-29 01:03:00,
2013-05-28 18:04:00,93.3,39.3,29.06,South,179,13.8,17.1,15,-99.99,,,0.00,254.8,rob ver 1A,2013-05-29 01:04:00,
2013-05-28 18:05:00,94.4,47.4,29.09,SSE,148,16.7,20.2,20,-99.99,,,0.00,258.8,rob ver 1B,2013-05-29 01:05:00,
2013-05-28 18:06:00,94.6,47.2,29.09,SSE,154,16.3,20.2,19,-99.99,,,0.00,254.2,rob ver 1B,2013-05-29 01:06:00,
2013-05-28 18:07:00,94.8,47.2,29.09,SSE,167,17.9,20.8,19,-99.99,,,0.00,249.1,rob ver 1B,2013-05-29 01:07:00,
2013-05-28 18:08:00,94.5,47.0,29.09,South,170,15.9,19.1,19,-99.99,,,0.00,245.9,rob ver 1B,2013-05-29 01:08:00,
2013-05-28 18:09:00,93.3,39.1,29.06,SSW,207,10.2,13.1,15,-99.99,,,0.00,241.3,rob ver 1A,2013-05-29 01:09:00,
2013-05-28 18:10:00,94.3,46.7,29.09,SSE,164,18.8,22.7,19,-99.99,,,0.00,239.3,rob ver 1B,2013-05-29 01:10:00,
2013-05-28 18:11:00,94.3,46.6,29.09,SSE,165,18.4,23.8,19,-99.99,,,0.00,236.1,rob ver 1B,2013-05-29 01:11:00,
2013-05-28 18:12:00,94.3,46.5,29.09,SSE,163,16.7,20.4,19,-99.99,,,0.00,231,rob ver 1B,2013-05-29 01:12:00,
2013-05-28 18:13:00,94.4,46.4,29.09,SSE,160,15.1,18.3,19,-99.99,,,0.00,227.5,rob ver 1B,2013-05-29 01:13:00,
2013-05-28 18:14:00,94.5,46.3,29.09,SSE,158,14.7,17.6,19,-99.99,,,0.00,224.3,rob ver 1B,2013-05-29 01:14:00,
2013-05-28 18:15:00,93.7,39.2,29.06,SSW,192,8.2,9.6,15,-99.99,,,0.00,223.7,rob ver 1A,2013-05-29 01:15:00,
2013-05-28 18:16:00,94.4,45.8,29.09,SSE,166,18.5,22.2,18,-99.99,,,0.00,217.9,rob ver 1B,2013-05-29 01:16:00,
2013-05-28 18:17:00,94.3,45.6,29.09,South,172,18.7,22.7,18,-99.99,,,0.00,215.8,rob ver 1B,2013-05-29 01:17:00,
2013-05-28 18:18:00,94.0,45.5,29.09,South,173,19.2,24.4,19,-99.99,,,0.00,213.1,rob ver 1B,2013-05-29 01:18:00,
2013-05-28 18:19:00,93.9,45.5,29.09,South,175,18.5,22.9,19,-99.99,,,0.00,209.9,rob ver 1B,2013-05-29 01:19:00,
2013-05-28 18:20:00,94.0,45.4,29.09,South,175,18.1,23.8,18,-99.99,,,0.00,207.2,rob ver 1B,2013-05-29 01:20:00,
2013-05-28 18:21:00,93.4,39.5,29.06,SSW,203,9.1,12.3,15,-99.99,,,0.00,202.7,rob ver 1A,2013-05-29 01:21:00,
2013-05-28 18:22:00,93.7,45.4,29.09,South,171,18.7,21.5,18,-99.99,,,0.00,200,rob ver 1B,2013-05-29 01:22:00,
2013-05-28 18:23:00,93.8,45.4,29.09,SSE,164,17.4,22.0,19,-99.99,,,0.00,196.8,rob ver 1B,2013-05-29 01:23:00,
2013-05-28 18:24:00,93.8,45.4,29.09,SSE,155,18.7,21.2,19,-99.99,,,0.00,194.2,rob ver 1B,2013-05-29 01:24:00,
2013-05-28 18:25:00,93.8,45.3,29.09,SSE,163,16.8,20.4,18,-99.99,,,0.00,190.2,rob ver 1B,2013-05-29 01:25:00,
2013-05-28 18:26:00,93.8,45.2,29.09,South,178,17.6,22.4,18,-99.99,,,0.00,186.6,rob ver 1B,2013-05-29 01:26:00,
2013-05-28 18:27:00,93.2,39.6,29.06,South,179,14.9,18.0,15,-99.99,,,0.00,185.7,rob ver 1A,2013-05-29 01:27:00,
2013-05-28 18:28:00,93.8,45.1,29.09,SSE,167,17.6,21.2,18,-99.99,,,0.00,181.1,rob ver 1B,2013-05-29 01:28:00,
2013-05-28 18:29:00,93.7,44.9,29.09,SSE,164,18.4,22.0,18,-99.99,,,0.00,178.3,rob ver 1B,2013-05-29 01:29:00,
2013-05-28 18:30:00,93.5,45.0,29.09,SSE,165,17.7,21.3,18,-99.99,,,0.00,174.2,rob ver 1B,2013-05-29 01:30:00,
2013-05-28 18:31:00,93.7,45.0,29.09,SSE,168,15.1,19.1,18,-99.99,,,0.00,171.4,rob ver 1B,2013-05-29 01:31:00,
2013-05-28 18:32:00,93.4,39.2,29.06,South,190,9.9,12.1,15,-99.99,,,0.00,168,rob ver 1A,2013-05-29 01:32:00,
2013-05-28 18:33:00,93.5,44.7,29.09,SSE,166,18.1,21.2,18,-99.99,,,0.00,165.4,rob ver 1B,2013-05-29 01:33:00,
2013-05-28 18:34:00,93.2,44.6,29.09,SSE,168,18.9,23.3,18,-99.99,,,0.00,161.1,rob ver 1B,2013-05-29 01:34:00,
2013-05-28 18:35:00,93.1,44.5,29.09,SSE,164,15.9,19.3,18,-99.99,,,0.00,158.1,rob ver 1B,2013-05-29 01:35:00,
2013-05-28 18:36:00,93.1,44.3,29.09,SSE,160,17.5,21.1,18,-99.99,,,0.00,154.9,rob ver 1B,2013-05-29 01:36:00,
2013-05-28 18:37:00,93.2,44.3,29.09,SSE,166,17.5,21.3,18,-99.99,,,0.00,152.3,rob ver 1B,2013-05-29 01:37:00,
2013-05-28 18:38:00,93.1,39.5,29.06,South,178,10.9,14.2,15,-99.99,,,0.00,151.6,rob ver 1A,2013-05-29 01:38:00,
2013-05-28 18:39:00,93.1,44.2,29.09,SSE,165,18.6,23.2,18,-99.99,,,0.00,146.4,rob ver 1B,2013-05-29 01:39:00,
2013-05-28 18:40:00,93.0,44.2,29.09,SSE,167,15.6,20.0,18,-99.99,,,0.00,143.7,rob ver 1B,2013-05-29 01:40:00,
2013-05-28 18:41:00,93.0,44.1,29.09,SSE,160,17.5,21.1,18,-99.99,,,0.00,141.1,rob ver 1B,2013-05-29 01:41:00,
2013-05-28 18:42:00,93.0,44.0,29.09,SSE,156,16.4,19.5,18,-99.99,,,0.00,137.9,rob ver 1B,2013-05-29 01:42:00,
2013-05-28 18:43:00,92.9,43.9,29.09,SSE,164,15.2,18.9,18,-99.99,,,0.00,135.2,rob ver 1B,2013-05-29 01:43:00,
2013-05-28 18:44:00,93.1,38.8,29.06,South,189,10.6,12.9,15,-99.99,,,0.00,133.3,rob ver 1A,2013-05-29 01:44:00,
2013-05-28 18:45:00,92.9,44.1,29.09,South,170,17.1,19.7,18,-99.99,,,0.00,128,rob ver 1B,2013-05-29 01:45:00,
2013-05-28 18:46:00,92.8,44.3,29.09,South,173,18.0,20.4,18,-99.99,,,0.00,124.8,rob ver 1B,2013-05-29 01:46:00,
2013-05-28 18:47:00,92.9,44.1,29.09,SSE,168,16.1,20.2,18,-99.99,,,0.00,121.2,rob ver 1B,2013-05-29 01:47:00,
2013-05-28 18:48:00,92.9,44.1,29.09,SSE,156,15.6,19.6,18,-99.99,,,0.00,118.2,rob ver 1B,2013-05-29 01:48:00,
2013-05-28 18:49:00,92.8,44.1,29.09,SSE,157,16.0,19.0,18,-99.99,,,0.00,114.9,rob ver 1B,2013-05-29 01:49:00,
2013-05-28 18:50:00,93.3,37.5,29.06,SW,232,9.1,13.4,14,-99.99,,,0.00,115.9,rob ver 1A,2013-05-29 01:50:00,
2013-05-28 18:51:00,92.9,44.1,29.09,South,172,16.5,19.5,18,-99.99,,,0.00,109,rob ver 1B,2013-05-29 01:51:00,
2013-05-28 18:52:00,92.8,44.0,29.09,SSE,165,18.3,21.9,18,-99.99,,,0.00,106.4,rob ver 1B,2013-05-29 01:52:00,
2013-05-28 18:53:00,92.6,43.9,29.09,SSE,160,17.8,20.1,18,-99.99,,,0.00,104,rob ver 1B,2013-05-29 01:53:00,
2013-05-28 18:54:00,92.5,43.9,29.09,SSE,158,15.2,18.4,18,-99.99,,,0.00,101.2,rob ver 1B,2013-05-29 01:54:00,
2013-05-28 18:55:00,93.1,37.4,29.06,WSW,243,15.4,17.9,14,-99.99,,,0.00,97.9,rob ver 1A,2013-05-29 01:55:00,
2013-05-28 18:56:00,92.4,44.5,29.09,SSE,166,19.2,23.5,19,-99.99,,,0.00,95.9,rob ver 1B,2013-05-29 01:56:00,
2013-05-28 18:57:00,92.2,44.7,29.09,South,171,18.5,21.7,19,-99.99,,,0.00,92.7,rob ver 1B,2013-05-29 01:57:00,
2013-05-28 18:58:00,92.2,44.9,29.09,South,173,18.1,21.8,19,-99.99,,,0.00,89.4,rob ver 1B,2013-05-29 01:58:00,
2013-05-28 18:59:00,92.1,45.0,29.09,South,170,15.9,18.9,19,-99.99,,,0.00,86.1,rob ver 1B,2013-05-29 01:59:00,
2013-05-28 19:00:00,92.2,44.9,29.09,South,170,14.1,19.6,19,-99.99,,,0.00,82.9,rob ver 1B,2013-05-29 02:00:00,
2013-05-28 19:01:00,92.6,38.6,29.06,WSW,250,14.0,17.8,15,-99.99,,,0.00,79.6,rob ver 1A,2013-05-29 02:01:00,
2013-05-28 19:02:00,92.2,44.6,29.09,South,173,16.6,20.8,19,-99.99,,,0.00,77.1,rob ver 1B,2013-05-29 02:02:00,
2013-05-28 19:03:00,92.1,44.5,29.09,South,173,17.0,19.5,19,-99.99,,,0.00,74.3,rob ver 1B,2013-05-29 02:03:00,
2013-05-28 19:04:00,92.1,44.2,29.09,SSE,167,15.3,18.6,18,-99.99,,,0.00,71.7,rob ver 1B,2013-05-29 02:04:00,
2013-05-28 19:05:00,92.1,43.6,29.09,SSE,165,16.3,19.6,18,-99.99,,,0.00,69.1,rob ver 1B,2013-05-29 02:05:00,
2013-05-28 19:06:00,92.0,43.6,29.09,SSE,166,15.0,19.4,18,-99.99,,,0.00,66.48,rob ver 1B,2013-05-29 02:06:00,
2013-05-28 19:07:00,92.4,37.6,29.06,SW,235,13.0,15.2,14,-99.99,,,0.00,65.67,rob ver 1A,2013-05-29 02:07:00,
2013-05-28 19:08:00,92.0,44.0,29.09,SSE,160,15.5,20.8,19,-99.99,,,0.00,61.57,rob ver 1B,2013-05-29 02:08:00,
2013-05-28 19:09:00,91.9,44.2,29.09,SSE,165,16.1,19.4,19,-99.99,,,0.00,59.11,rob ver 1B,2013-05-29 02:09:00,
2013-05-28 19:10:00,91.9,44.4,29.12,SSE,167,14.3,17.3,19,-99.99,,,0.00,56,rob ver 1B,2013-05-29 02:10:00,
2013-05-28 19:11:00,91.8,44.6,29.12,SSE,167,15.9,20.0,19,-99.99,,,0.00,53.38,rob ver 1B,2013-05-29 02:11:00,
2013-05-28 19:12:00,92.3,38.8,29.06,WSW,237,11.7,14.6,15,-99.99,,,0.00,51.09,rob ver 1A,2013-05-29 02:12:00,
2013-05-28 19:13:00,91.7,44.8,29.12,SSE,168,14.4,20.0,19,-99.99,,,0.00,48.8,rob ver 1B,2013-05-29 02:13:00,
2013-05-28 19:14:00,91.6,44.9,29.09,SSE,165,17.6,21.0,20,-99.99,,,0.00,46.67,rob ver 1B,2013-05-29 02:14:00,
2013-05-28 19:15:00,91.4,44.9,29.09,SSE,153,16.0,20.5,20,-99.99,,,0.00,44.21,rob ver 1B,2013-05-29 02:15:00,
2013-05-28 19:16:00,91.3,44.9,29.09,SSE,156,14.7,18.6,20,-99.99,,,0.00,41.76,rob ver 1B,2013-05-29 02:16:00,
2013-05-28 19:17:00,92.0,38.7,29.06,WSW,240,9.0,10.6,15,-99.99,,,0.00,38.32,rob ver 1A,2013-05-29 02:17:00,
2013-05-28 19:18:00,91.3,44.8,29.12,SSE,164,15.6,18.4,20,-99.99,,,0.00,37.01,rob ver 1B,2013-05-29 02:18:00,
2013-05-28 19:19:00,91.2,44.9,29.12,South,172,14.9,17.3,20,-99.99,,,0.00,35.04,rob ver 1B,2013-05-29 02:19:00,
2013-05-28 19:20:00,91.1,44.9,29.12,SSE,168,16.4,19.1,20,-99.99,,,0.00,33.08,rob ver 1B,2013-05-29 02:20:00,
2013-05-28 19:21:00,91.0,45.0,29.12,SSE,166,15.7,19.3,20,-99.99,,,0.00,30.62,rob ver 1B,2013-05-29 02:21:00,
2013-05-28 19:22:00,91.8,39.2,29.06,WSW,240,9.9,11.5,15,-99.99,,,0.00,29.15,rob ver 1A,2013-05-29 02:22:00,
2013-05-28 19:23:00,91.0,45.2,29.12,SSE,163,14.4,17.4,20,-99.99,,,0.00,26.69,rob ver 1B,2013-05-29 02:23:00,
2013-05-28 19:24:00,91.0,45.5,29.12,SSE,155,15.6,18.6,21,-99.99,,,0.00,24.73,rob ver 1B,2013-05-29 02:24:00,
2013-05-28 19:25:00,90.9,45.8,29.09,SSE,158,16.1,19.8,21,-99.99,,,0.00,22.6,rob ver 1B,2013-05-29 02:25:00,
2013-05-28 19:26:00,90.8,46.0,29.12,SSE,153,16.4,20.0,21,-99.99,,,0.00,20.63,rob ver 1B,2013-05-29 02:26:00,
2013-05-28 19:27:00,90.6,46.1,29.12,SSE,161,15.8,19.0,21,-99.99,,,0.00,19.16,rob ver 1B,2013-05-29 02:27:00,
2013-05-28 19:28:00,91.6,39.4,29.06,SW,234,8.3,10.1,16,-99.99,,,0.00,16.7,rob ver 1A,2013-05-29 02:28:00,
2013-05-28 19:29:00,90.5,46.3,29.12,SSE,159,17.9,21.0,21,-99.99,,,0.00,15.39,rob ver 1B,2013-05-29 02:29:00,
2013-05-28 19:30:00,90.4,46.3,29.12,SSE,154,15.2,18.8,21,-99.99,,,0.00,14.08,rob ver 1B,2013-05-29 02:30:00,
2013-05-28 19:31:00,90.4,46.3,29.12,SSE,151,15.0,18.5,21,-99.99,,,0.00,12.61,rob ver 1B,2013-05-29 02:31:00,
2013-05-28 19:32:00,90.3,46.3,29.12,SSE,150,14.3,17.4,22,-99.99,,,0.00,11.46,rob ver 1B,2013-05-29 02:32:00,
2013-05-28 19:33:00,90.3,46.4,29.12,SSE,151,15.6,19.1,22,-99.99,,,0.00,10.15,rob ver 1B,2013-05-29 02:33:00,
2013-05-28 19:34:00,91.3,39.4,29.06,SW,236,8.4,10.9,16,-99.99,,,0.00,8.84,rob ver 1A,2013-05-29 02:34:00,
2013-05-28 19:35:00,90.1,46.7,29.09,SSE,155,17.0,19.6,22,-99.99,,,0.00,7.86,rob ver 1B,2013-05-29 02:35:00,
2013-05-28 19:36:00,90.0,46.7,29.12,SSE,152,13.8,17.7,22,-99.99,,,0.00,6.878,rob ver 1B,2013-05-29 02:36:00,
2013-05-28 19:37:00,90.0,46.8,29.09,SSE,147,16.5,19.7,22,-99.99,,,0.00,6.223,rob ver 1B,2013-05-29 02:37:00,
2013-05-28 19:38:00,89.9,46.8,29.12,SSE,155,14.5,16.5,22,-99.99,,,0.00,5.568,rob ver 1B,2013-05-29 02:38:00,
2013-05-28 19:39:00,91.0,39.7,29.06,WSW,247,6.6,8.2,16,-99.99,,,0.00,4.913,rob ver 1A,2013-05-29 02:39:00,
2013-05-28 19:40:00,89.9,46.8,29.12,SSE,153,14.8,19.9,22,-99.99,,,0.00,4.258,rob ver 1B,2013-05-29 02:40:00,
2013-05-28 19:41:00,89.8,46.8,29.12,SSE,160,15.3,20.9,22,-99.99,,,0.00,3.767,rob ver 1B,2013-05-29 02:41:00,
2013-05-28 19:42:00,89.7,46.8,29.12,SSE,163,14.0,18.3,22,-99.99,,,0.00,3.603,rob ver 1B,2013-05-29 02:42:00,
2013-05-28 19:43:00,89.7,46.8,29.12,SSE,164,14.2,19.0,22,-99.99,,,0.00,2.948,rob ver 1B,2013-05-29 02:43:00,
2013-05-28 19:44:00,90.8,39.8,29.06,WSW,241,6.5,8.1,16,-99.99,,,0.00,2.62,rob ver 1A,2013-05-29 02:44:00,
2013-05-28 19:45:00,89.5,46.8,29.12,SSE,160,15.4,19.8,22,-99.99,,,0.00,2.62,rob ver 1B,2013-05-29 02:45:00,
2013-05-28 19:46:00,89.5,46.8,29.12,SSE,160,15.8,19.0,22,-99.99,,,0.00,2.456,rob ver 1B,2013-05-29 02:46:00,
2013-05-28 19:47:00,89.5,46.8,29.12,South,171,14.9,19.3,22,-99.99,,,0.00,1.965,rob ver 1B,2013-05-29 02:47:00,
2013-05-28 19:48:00,89.4,46.8,29.12,SSE,168,15.3,19.0,23,-99.99,,,0.00,1.965,rob ver 1B,2013-05-29 02:48:00,
2013-05-28 19:49:00,89.4,46.7,29.12,SSE,167,17.0,20.0,22,-99.99,,,0.00,1.638,rob ver 1B,2013-05-29 02:49:00,
2013-05-28 19:50:00,90.5,39.9,29.06,SW,236,5.3,6.5,17,-99.99,,,0.00,1.31,rob ver 1A,2013-05-29 02:50:00,
2013-05-28 19:51:00,89.3,46.7,29.12,SSE,163,14.1,17.1,23,-99.99,,,0.00,1.31,rob ver 1B,2013-05-29 02:51:00,
2013-05-28 19:52:00,89.3,46.8,29.12,SSE,161,13.9,17.7,23,-99.99,,,0.00,1.146,rob ver 1B,2013-05-29 02:52:00,
2013-05-28 19:53:00,89.2,46.8,29.12,SSE,164,15.4,19.3,23,-99.99,,,0.00,.983,rob ver 1B,2013-05-29 02:53:00,
2013-05-28 19:54:00,89.1,46.8,29.12,SSE,163,15.8,18.9,23,-99.99,,,0.00,.655,rob ver 1B,2013-05-29 02:54:00,
2013-05-28 19:55:00,90.2,39.9,29.06,SW,233,5.7,7.3,17,-99.99,,,0.00,.655,rob ver 1A,2013-05-29 02:55:00,
2013-05-28 19:56:00,89.0,46.9,29.12,SSE,165,14.7,17.8,23,-99.99,,,0.00,.655,rob ver 1B,2013-05-29 02:56:00,
2013-05-28 19:57:00,89.0,47.0,29.12,SSE,162,12.7,16.5,23,-99.99,,,0.00,.491,rob ver 1B,2013-05-29 02:57:00,
2013-05-28 19:58:00,88.9,47.0,29.12,SSE,155,12.4,15.8,23,-99.99,,,0.00,.328,rob ver 1B,2013-05-29 02:58:00,
2013-05-28 19:59:00,88.9,47.1,29.12,SSE,155,12.7,15.5,23,-99.99,,,0.00,.164,rob ver 1B,2013-05-29 02:59:00,
2013-05-28 20:00:00,90.1,39.9,29.06,SW,225,6.1,8.5,17,-99.99,,,0.00,0,rob ver 1A,2013-05-29 03:00:00,
2013-05-28 20:01:00,88.8,47.2,29.12,SSE,153,11.7,14.9,23,-99.99,,,0.00,0,rob ver 1B,2013-05-29 03:01:00,
2013-05-28 20:02:00,88.8,47.2,29.12,SSE,154,11.2,14.6,23,-99.99,,,0.00,0,rob ver 1B,2013-05-29 03:02:00,
2013-05-28 20:03:00,88.7,47.2,29.12,SSE,155,11.1,13.0,23,-99.99,,,0.00,0,rob ver 1B,2013-05-29 03:03:00,
2013-05-28 20:04:00,88.6,47.4,29.12,SSE,154,14.0,18.0,24,-99.99,,,0.00,0,rob ver 1B,2013-05-29 03:04:00,
2013-05-28 20:05:00,88.6,47.3,29.12,SSE,150,15.5,18.6,24,-99.99,,,0.00,0,rob ver 1B,2013-05-29 03:05:00,
2013-05-28 20:06:00,89.9,40.4,29.06,SW,230,6.0,6.9,17,-99.99,,,0.00,0,rob ver 1A,2013-05-29 03:06:00,
2013-05-28 20:07:00,88.4,47.3,29.12,SSE,156,15.0,18.1,24,-99.99,,,0.00,0,rob ver 1B,2013-05-29 03:07:00,
2013-05-28 20:08:00,88.4,47.3,29.12,SSE,152,13.5,17.4,24,-99.99,,,0.00,0,rob ver 1B,2013-05-29 03:08:00,
2013-05-28 20:09:00,88.3,47.3,29.12,SSE,151,13.2,16.9,24,-99.99,,,0.00,0,rob ver 1B,2013-05-29 03:09:00,
2013-05-28 20:10:00,88.3,47.3,29.12,SSE,152,13.7,15.6,24,-99.99,,,0.00,0,rob ver 1B,2013-05-29 03:10:00,
2013-05-28 20:11:00,88.2,47.3,29.12,SSE,156,12.8,15.5,24,-99.99,,,0.00,0,rob ver 1B,2013-05-29 03:11:00,
2013-05-28 20:12:00,89.6,40.6,29.06,SW,224,6.3,8.2,18,-99.99,,,0.00,0,rob ver 1A,2013-05-29 03:12:00,
2013-05-28 20:13:00,88.1,47.3,29.12,SSE,159,11.8,13.8,24,-99.99,,,0.00,0,rob ver 1B,2013-05-29 03:13:00,
2013-05-28 20:14:00,88.1,47.3,29.12,SSE,159,12.4,15.3,24,-99.99,,,0.00,0,rob ver 1B,2013-05-29 03:14:00,
2013-05-28 20:15:00,88.0,47.3,29.12,SSE,161,12.5,15.7,24,-99.99,,,0.00,0,rob ver 1B,2013-05-29 03:15:00,
2013-05-28 20:16:00,88.0,47.2,29.12,SSE,163,12.3,15.1,24,-99.99,,,0.00,0,rob ver 1B,2013-05-29 03:16:00,
2013-05-28 20:17:00,89.3,40.6,29.06,SW,223,4.3,5.1,18,-99.99,,,0.00,0,rob ver 1A,2013-05-29 03:17:00,
2013-05-28 20:18:00,87.9,47.0,29.12,South,171,13.5,15.9,24,-99.99,,,0.00,0,rob ver 1B,2013-05-29 03:18:00,
2013-05-28 20:19:00,87.9,47.0,29.12,South,169,14.4,17.5,24,-99.99,,,0.00,0,rob ver 1B,2013-05-29 03:19:00,
2013-05-28 20:20:00,87.8,46.9,29.12,South,170,15.6,18.3,24,-99.99,,,0.00,0,rob ver 1B,2013-05-29 03:20:00,
2013-05-28 20:21:00,87.7,46.8,29.12,South,169,14.7,18.4,24,-99.99,,,0.00,0,rob ver 1B,2013-05-29 03:21:00,
2013-05-28 20:22:00,89.1,40.6,29.06,SW,219,4.6,5.1,18,-99.99,,,0.00,0,rob ver 1A,2013-05-29 03:22:00,
2013-05-28 20:23:00,87.7,46.7,29.12,South,169,11.8,14.7,24,-99.99,,,0.00,0,rob ver 1B,2013-05-29 03:23:00,
2013-05-28 20:24:00,87.6,46.7,29.12,South,171,12.4,15.7,24,-99.99,,,0.00,0,rob ver 1B,2013-05-29 03:24:00,
2013-05-28 20:25:00,87.6,46.6,29.12,South,170,14.7,17.9,24,-99.99,,,0.00,0,rob ver 1B,2013-05-29 03:25:00,
2013-05-28 20:26:00,87.5,46.6,29.12,SSE,168,14.2,16.7,24,-99.99,,,0.00,0,rob ver 1B,2013-05-29 03:26:00,
2013-05-28 20:27:00,87.5,46.5,29.12,South,169,14.1,17.2,24,-99.99,,,0.00,0,rob ver 1B,2013-05-29 03:27:00,
2013-05-28 20:28:00,88.6,40.7,29.06,SSW,200,6.1,8.0,18,-99.99,,,0.00,0,rob ver 1A,2013-05-29 03:28:00,
2013-05-28 20:29:00,87.3,46.5,29.12,South,170,14.2,17.4,24,-99.99,,,0.00,0,rob ver 1B,2013-05-29 03:29:00,
2013-05-28 20:30:00,87.3,46.5,29.12,SSE,168,13.6,16.8,24,-99.99,,,0.00,0,rob ver 1B,2013-05-29 03:30:00,
2013-05-28 20:31:00,87.3,46.4,29.12,South,169,14.3,17.3,24,-99.99,,,0.00,0,rob ver 1B,2013-05-29 03:31:00,
2013-05-28 20:32:00,87.2,46.4,29.12,South,169,14.4,17.4,24,-99.99,,,0.00,0,rob ver 1B,2013-05-29 03:32:00,
2013-05-28 20:33:00,88.0,43.5,29.06,SSW,193,10.0,13.0,21,-99.99,,,0.00,0,rob ver 1A,2013-05-29 03:33:00,
2013-05-28 20:34:00,87.2,46.5,29.12,South,170,13.1,15.9,24,-99.99,,,0.00,0,rob ver 1B,2013-05-29 03:34:00,
2013-05-28 20:35:00,87.1,46.5,29.12,South,170,12.3,14.7,24,-99.99,,,0.00,0,rob ver 1B,2013-05-29 03:35:00,
2013-05-28 20:36:00,87.1,46.5,29.12,SSE,168,12.4,16.0,24,-99.99,,,0.00,0,rob ver 1B,2013-05-29 03:36:00,
2013-05-28 20:37:00,87.0,46.5,29.12,SSE,167,13.1,16.8,24,-99.99,,,0.00,0,rob ver 1B,2013-05-29 03:37:00,
2013-05-28 20:38:00,87.4,44.3,29.09,South,179,9.9,11.9,22,-99.99,,,0.00,0,rob ver 1A,2013-05-29 03:38:00,
2013-05-28 20:39:00,87.0,46.5,29.12,South,169,14.1,16.3,24,-99.99,,,0.00,0,rob ver 1B,2013-05-29 03:39:00,
2013-05-28 20:40:00,86.9,46.5,29.12,South,171,12.1,15.8,24,-99.99,,,0.00,0,rob ver 1B,2013-05-29 03:40:00,
2013-05-28 20:41:00,86.9,46.5,29.12,South,169,12.5,15.0,24,-99.99,,,0.00,0,rob ver 1B,2013-05-29 03:41:00,
2013-05-28 20:42:00,86.8,46.4,29.12,South,169,12.7,14.5,24,-99.99,,,0.00,0,rob ver 1B,2013-05-29 03:42:00,
2013-05-28 20:43:00,86.8,46.4,29.12,South,170,11.9,15.8,24,-99.99,,,0.00,0,rob ver 1B,2013-05-29 03:43:00,
2013-05-28 20:44:00,87.3,44.7,29.09,SSW,195,10.5,13.3,22,-99.99,,,0.00,0,rob ver 1A,2013-05-29 03:44:00,
2013-05-28 20:45:00,86.7,46.3,29.12,South,172,12.8,16.2,24,-99.99,,,0.00,0,rob ver 1B,2013-05-29 03:45:00,
2013-05-28 20:46:00,86.6,46.3,29.12,South,173,12.9,14.4,24,-99.99,,,0.00,0,rob ver 1B,2013-05-29 03:46:00,
2013-05-28 20:47:00,86.6,46.3,29.12,South,176,11.3,13.8,24,-99.99,,,0.00,0,rob ver 1B,2013-05-29 03:47:00,
2013-05-28 20:48:00,86.6,46.3,29.12,South,177,11.7,13.6,24,-99.99,,,0.00,0,rob ver 1B,2013-05-29 03:48:00,
2013-05-28 20:49:00,87.0,44.9,29.09,SSW,194,9.3,11.7,23,-99.99,,,0.00,0,rob ver 1A,2013-05-29 03:49:00,
2013-05-28 20:50:00,86.5,46.3,29.12,South,178,11.2,12.6,24,-99.99,,,0.00,0,rob ver 1B,2013-05-29 03:50:00,
2013-05-28 20:51:00,86.4,46.3,29.12,South,175,12.2,15.8,24,-99.99,,,0.00,0,rob ver 1B,2013-05-29 03:51:00,
2013-05-28 20:52:00,86.3,46.3,29.12,South,178,11.5,15.6,24,-99.99,,,0.00,0,rob ver 1B,2013-05-29 03:52:00,
2013-05-28 20:53:00,86.3,46.3,29.12,South,178,11.6,13.7,24,-99.99,,,0.00,0,rob ver 1B,2013-05-29 03:53:00,
2013-05-28 20:54:00,86.6,45.1,29.09,South,189,10.5,12.8,23,-99.99,,,0.00,0,rob ver 1A,2013-05-29 03:54:00,
2013-05-28 20:55:00,86.2,46.3,29.12,South,175,12.1,14.1,24,-99.99,,,0.00,0,rob ver 1B,2013-05-29 03:55:00,
2013-05-28 20:56:00,86.1,46.2,29.12,South,179,11.4,13.3,25,-99.99,,,0.00,0,rob ver 1B,2013-05-29 03:56:00,
2013-05-28 20:57:00,86.1,46.2,29.12,South,178,11.0,14.7,25,-99.99,,,0.00,0,rob ver 1B,2013-05-29 03:57:00,
2013-05-28 20:58:00,86.0,46.2,29.12,South,182,12.2,15.7,25,-99.99,,,0.00,0,rob ver 1B,2013-05-29 03:58:00,
2013-05-28 20:59:00,86.4,45.2,29.09,South,181,11.2,13.7,23,-99.99,,,0.00,0,rob ver 1A,2013-05-29 03:59:00,
2013-05-28 21:00:00,85.9,46.3,29.12,South,185,12.5,14.9,25,-99.99,,,0.00,0,rob ver 1B,2013-05-29 04:00:00,
2013-05-28 21:01:00,86.3,45.4,29.09,South,178,12.3,15.6,24,-99.99,,,0.00,0,rob ver 1A,2013-05-29 04:01:00,
2013-05-28 21:02:00,86.2,45.6,29.09,South,178,12.9,16.0,24,-99.99,,,0.00,0,rob ver 1A,2013-05-29 04:02:00,
2013-05-28 21:03:00,85.9,46.0,29.12,South,181,14.6,16.8,25,-99.99,,,0.00,0,rob ver 1B,2013-05-29 04:03:00,
2013-05-28 21:04:00,85.9,46.1,29.12,South,180,12.2,15.9,25,-99.99,,,0.00,0,rob ver 1B,2013-05-29 04:04:00,
2013-05-28 21:05:00,85.8,46.1,29.12,South,178,10.1,13.0,25,-99.99,,,0.00,0,rob ver 1B,2013-05-29 04:05:00,
2013-05-28 21:06:00,85.9,46.1,29.09,South,181,15.3,17.6,25,-99.99,,,0.00,0,rob ver 1A,2013-05-29 04:06:00,
2013-05-28 21:07:00,85.7,46.1,29.12,South,179,11.3,12.8,25,-99.99,,,0.00,0,rob ver 1B,2013-05-29 04:07:00,
2013-05-28 21:08:00,85.7,45.9,29.12,South,178,10.7,13.4,24,-99.99,,,0.00,0,rob ver 1B,2013-05-29 04:08:00,
2013-05-28 21:09:00,85.6,46.0,29.12,South,182,10.2,12.2,25,-99.99,,,0.00,0,rob ver 1B,2013-05-29 04:09:00,
2013-05-28 21:10:00,85.5,46.3,29.09,South,186,14.0,16.7,25,-99.99,,,0.00,0,rob ver 1A,2013-05-29 04:10:00,
2013-05-28 21:11:00,85.6,46.1,29.12,South,176,13.2,16.2,25,-99.99,,,0.00,0,rob ver 1B,2013-05-29 04:11:00,
2013-05-28 21:12:00,85.6,46.0,29.12,South,177,13.5,16.8,25,-99.99,,,0.00,0,rob ver 1B,2013-05-29 04:12:00,
2013-05-28 21:13:00,85.4,46.3,29.09,South,183,14.9,18.6,25,-99.99,,,0.00,0,rob ver 1A,2013-05-29 04:13:00,
2013-05-28 21:14:00,85.6,46.1,29.12,South,180,13.0,15.3,25,-99.99,,,0.00,0,rob ver 1B,2013-05-29 04:14:00,
2013-05-28 21:15:00,85.6,46.1,29.12,South,181,13.1,17.2,25,-99.99,,,0.00,0,rob ver 1B,2013-05-29 04:15:00,
2013-05-28 21:16:00,85.5,46.2,29.12,South,178,13.2,15.2,25,-99.99,,,0.00,0,rob ver 1B,2013-05-29 04:16:00,
2013-05-28 21:17:00,85.5,46.4,29.12,South,175,13.6,16.6,25,-99.99,,,0.00,0,rob ver 1B,2013-05-29 04:17:00,
2013-05-28 21:18:00,85.3,46.1,29.09,South,179,13.5,15.7,25,-99.99,,,0.00,0,rob ver 1A,2013-05-29 04:18:00,
2013-05-28 21:19:00,85.4,46.3,29.12,South,177,12.0,14.7,25,-99.99,,,0.00,0,rob ver 1B,2013-05-29 04:19:00,
2013-05-28 21:20:00,85.3,46.4,29.15,South,175,11.2,14.1,25,-99.99,,,0.00,0,rob ver 1B,2013-05-29 04:20:00,
2013-05-28 21:21:00,85.2,46.4,29.15,South,176,10.9,15.5,25,-99.99,,,0.00,0,rob ver 1B,2013-05-29 04:21:00,
2013-05-28 21:22:00,85.2,46.5,29.15,South,173,11.6,14.2,26,-99.99,,,0.00,0,rob ver 1B,2013-05-29 04:22:00,
2013-05-28 21:23:00,85.3,45.9,29.09,South,182,17.6,20.3,25,-99.99,,,0.00,0,rob ver 1A,2013-05-29 04:23:00,
2013-05-28 21:24:00,85.1,46.7,29.15,South,177,11.2,13.7,26,-99.99,,,0.00,0,rob ver 1B,2013-05-29 04:24:00,
2013-05-28 21:25:00,85.0,46.8,29.15,South,176,10.6,13.0,26,-99.99,,,0.00,0,rob ver 1B,2013-05-29 04:25:00,
2013-05-28 21:26:00,84.9,46.9,29.15,South,177,9.9,11.6,26,-99.99,,,0.00,0,rob ver 1B,2013-05-29 04:26:00,
2013-05-28 21:27:00,84.8,47.0,29.15,South,171,9.9,12.6,26,-99.99,,,0.00,0,rob ver 1B,2013-05-29 04:27:00,
2013-05-28 21:28:00,84.8,47.1,29.15,South,174,11.5,14.2,26,-99.99,,,0.00,0,rob ver 1B,2013-05-29 04:28:00,
2013-05-28 21:29:00,85.2,45.8,29.09,South,184,15.9,18.4,25,-99.99,,,0.00,0,rob ver 1A,2013-05-29 04:29:00,
2013-05-28 21:30:00,84.7,47.0,29.15,South,178,9.5,11.4,26,-99.99,,,0.00,0,rob ver 1B,2013-05-29 04:30:00,
2013-05-28 21:31:00,84.7,47.0,29.15,South,179,8.4,10.0,26,-99.99,,,0.00,0,rob ver 1B,2013-05-29 04:31:00,
2013-05-28 21:32:00,84.6,47.0,29.15,South,178,10.0,14.3,27,-99.99,,,0.00,0,rob ver 1B,2013-05-29 04:32:00,
2013-05-28 21:33:00,84.6,47.0,29.15,South,176,10.4,12.3,27,-99.99,,,0.00,0,rob ver 1B,2013-05-29 04:33:00,
2013-05-28 21:34:00,85.1,45.7,29.09,South,184,14.5,16.8,25,-99.99,,,0.00,0,rob ver 1A,2013-05-29 04:34:00,
2013-05-28 21:35:00,84.5,47.0,29.15,South,185,10.1,13.6,27,-99.99,,,0.00,0,rob ver 1B,2013-05-29 04:35:00,
2013-05-28 21:36:00,84.5,47.1,29.15,South,187,10.4,13.4,27,-99.99,,,0.00,0,rob ver 1B,2013-05-29 04:36:00,
2013-05-28 21:37:00,84.4,47.2,29.15,South,187,11.4,15.2,27,-99.99,,,0.00,0,rob ver 1B,2013-05-29 04:37:00,
2013-05-28 21:38:00,84.4,47.2,29.15,South,186,10.8,15.1,27,-99.99,,,0.00,0,rob ver 1B,2013-05-29 04:38:00,
2013-05-28 21:39:00,84.7,45.9,29.09,South,182,14.3,18.8,25,-99.99,,,0.00,0,rob ver 1A,2013-05-29 04:39:00,
2013-05-28 21:40:00,84.2,47.2,29.15,South,184,10.3,12.3,27,-99.99,,,0.00,0,rob ver 1B,2013-05-29 04:40:00,
2013-05-28 21:41:00,84.2,47.2,29.15,South,183,10.0,12.2,27,-99.99,,,0.00,0,rob ver 1B,2013-05-29 04:41:00,
2013-05-28 21:42:00,84.1,47.2,29.15,South,186,10.1,12.5,27,-99.99,,,0.00,0,rob ver 1B,2013-05-29 04:42:00,
2013-05-28 21:43:00,84.1,47.2,29.15,South,186,11.8,14.9,27,-99.99,,,0.00,0,rob ver 1B,2013-05-29 04:43:00,
2013-05-28 21:44:00,84.1,47.2,29.15,South,184,11.3,15.2,27,-99.99,,,0.00,0,rob ver 1B,2013-05-29 04:44:00,
2013-05-28 21:45:00,84.3,46.6,29.09,South,187,17.3,21.0,26,-99.99,,,0.00,0,rob ver 1A,2013-05-29 04:45:00,
2013-05-28 21:46:00,84.0,47.2,29.15,South,189,12.2,16.1,27,-99.99,,,0.00,0,rob ver 1B,2013-05-29 04:46:00,
2013-05-28 21:47:00,84.0,47.2,29.15,South,189,10.2,12.3,27,-99.99,,,0.00,0,rob ver 1B,2013-05-29 04:47:00,
2013-05-28 21:48:00,83.9,47.2,29.15,South,191,10.8,13.6,27,-99.99,,,0.00,0,rob ver 1B,2013-05-29 04:48:00,
2013-05-28 21:49:00,83.9,47.2,29.15,South,189,10.6,13.4,27,-99.99,,,0.00,0,rob ver 1B,2013-05-29 04:49:00,
2013-05-28 21:50:00,84.1,46.8,29.09,South,189,14.8,19.6,27,-99.99,,,0.00,0,rob ver 1A,2013-05-29 04:50:00,
2013-05-28 21:51:00,83.8,47.2,29.15,South,188,10.6,12.3,28,-99.99,,,0.00,0,rob ver 1B,2013-05-29 04:51:00,
2013-05-28 21:52:00,83.7,47.2,29.15,South,188,10.8,13.0,28,-99.99,,,0.00,0,rob ver 1B,2013-05-29 04:52:00,
2013-05-28 21:53:00,83.7,47.3,29.15,South,191,11.7,15.6,28,-99.99,,,0.00,0,rob ver 1B,2013-05-29 04:53:00,
2013-05-28 21:54:00,83.6,47.3,29.15,South,190,10.7,13.4,28,-99.99,,,0.00,0,rob ver 1B,2013-05-29 04:54:00,
2013-05-28 21:55:00,83.8,47.1,29.09,South,185,14.8,18.2,27,-99.99,,,0.00,0,rob ver 1A,2013-05-29 04:55:00,
2013-05-28 21:56:00,83.5,47.3,29.15,SSW,193,11.4,14.0,28,-99.99,,,0.00,0,rob ver 1B,2013-05-29 04:56:00,
2013-05-28 21:57:00,83.5,47.3,29.15,SSW,192,10.2,13.3,28,-99.99,,,0.00,0,rob ver 1B,2013-05-29 04:57:00,
2013-05-28 21:58:00,83.4,47.3,29.15,SSW,192,10.9,13.9,28,-99.99,,,0.00,0,rob ver 1B,2013-05-29 04:58:00,
2013-05-28 21:59:00,83.4,47.2,29.15,SSW,192,10.4,14.2,28,-99.99,,,0.00,0,rob ver 1B,2013-05-29 04:59:00,
2013-05-28 22:00:00,83.3,47.2,29.15,South,191,10.9,14.4,28,-99.99,,,0.00,0,rob ver 1B,2013-05-29 05:00:00,
2013-05-28 22:01:00,83.3,46.8,29.09,South,189,13.3,15.6,28,-99.99,,,0.00,0,rob ver 1A,2013-05-29 05:01:00,
2013-05-28 22:02:00,83.3,46.9,29.15,South,189,11.0,13.6,28,-99.99,,,0.00,0,rob ver 1B,2013-05-29 05:02:00,
2013-05-28 22:03:00,83.2,46.8,29.15,South,187,10.8,12.4,28,-99.99,,,0.00,0,rob ver 1B,2013-05-29 05:03:00,
2013-05-28 22:04:00,83.2,46.7,29.15,South,189,9.1,11.9,27,-99.99,,,0.00,0,rob ver 1B,2013-05-29 05:04:00,
2013-05-28 22:05:00,83.2,46.6,29.15,South,188,9.0,12.4,27,-99.99,,,0.00,0,rob ver 1B,2013-05-29 05:05:00,
2013-05-28 22:06:00,83.0,47.2,29.09,South,185,14.2,16.8,28,-99.99,,,0.00,0,rob ver 1A,2013-05-29 05:06:00,
2013-05-28 22:07:00,83.1,46.4,29.15,South,187,9.8,12.6,27,-99.99,,,0.00,0,rob ver 1B,2013-05-29 05:07:00,
2013-05-28 22:08:00,83.1,46.3,29.15,South,186,10.2,12.0,27,-99.99,,,0.00,0,rob ver 1B,2013-05-29 05:08:00,
2013-05-28 22:09:00,83.1,46.2,29.15,South,183,10.1,12.5,27,-99.99,,,0.00,0,rob ver 1B,2013-05-29 05:09:00,
2013-05-28 22:10:00,83.1,46.1,29.15,South,187,10.5,12.6,27,-99.99,,,0.00,0,rob ver 1B,2013-05-29 05:10:00,
2013-05-28 22:11:00,82.7,47.2,29.09,South,181,16.2,19.8,28,-99.99,,,0.00,0,rob ver 1A,2013-05-29 05:11:00,
2013-05-28 22:12:00,83.0,45.8,29.15,South,186,10.0,12.5,27,-99.99,,,0.00,0,rob ver 1B,2013-05-29 05:12:00,
2013-05-28 22:13:00,83.0,45.8,29.15,South,187,10.8,13.5,27,-99.99,,,0.00,0,rob ver 1B,2013-05-29 05:13:00,
2013-05-28 22:14:00,83.0,45.7,29.15,South,189,10.2,12.8,26,-99.99,,,0.00,0,rob ver 1B,2013-05-29 05:14:00,
2013-05-28 22:15:00,83.0,45.5,29.15,South,187,10.0,14.0,26,-99.99,,,0.00,0,rob ver 1B,2013-05-29 05:15:00,
2013-05-28 22:16:00,82.9,45.4,29.15,South,187,10.8,12.9,26,-99.99,,,0.00,0,rob ver 1B,2013-05-29 05:16:00,
2013-05-28 22:17:00,82.6,47.1,29.09,South,186,13.1,16.4,28,-99.99,,,0.00,0,rob ver 1A,2013-05-29 05:17:00,
2013-05-28 22:18:00,82.9,45.3,29.15,South,187,10.4,12.8,26,-99.99,,,0.00,0,rob ver 1B,2013-05-29 05:18:00,
2013-05-28 22:19:00,82.9,45.2,29.15,South,190,9.9,13.3,26,-99.99,,,0.00,0,rob ver 1B,2013-05-29 05:19:00,
2013-05-28 22:20:00,82.9,45.0,29.15,South,188,10.8,14.9,26,-99.99,,,0.00,0,rob ver 1B,2013-05-29 05:20:00,
2013-05-28 22:21:00,82.8,44.9,29.15,South,191,10.8,13.7,26,-99.99,,,0.00,0,rob ver 1B,2013-05-29 05:21:00,
2013-05-28 22:22:00,82.6,47.0,29.12,South,188,12.7,19.1,28,-99.99,,,0.00,0,rob ver 1A,2013-05-29 05:22:00,
2013-05-28 22:23:00,82.8,44.8,29.15,South,191,9.5,11.3,26,-99.99,,,0.00,0,rob ver 1B,2013-05-29 05:23:00,
2013-05-28 22:24:00,82.8,44.8,29.15,South,191,11.8,14.1,26,-99.99,,,0.00,0,rob ver 1B,2013-05-29 05:24:00,
2013-05-28 22:25:00,82.8,44.8,29.15,South,191,11.5,14.3,26,-99.99,,,0.00,0,rob ver 1B,2013-05-29 05:25:00,
2013-05-28 22:26:00,82.7,44.8,29.15,South,190,10.3,12.4,26,-99.99,,,0.00,0,rob ver 1B,2013-05-29 05:26:00,
2013-05-28 22:27:00,82.4,46.6,29.12,South,174,10.0,12.5,28,-99.99,,,0.00,0,rob ver 1A,2013-05-29 05:27:00,
2013-05-28 22:28:00,82.7,45.0,29.15,SSW,192,11.4,14.2,26,-99.99,,,0.00,0,rob ver 1B,2013-05-29 05:28:00,
2013-05-28 22:29:00,82.6,45.0,29.15,South,190,10.4,13.7,26,-99.99,,,0.00,0,rob ver 1B,2013-05-29 05:29:00,
2013-05-28 22:30:00,82.6,45.0,29.15,South,188,10.6,12.4,26,-99.99,,,0.00,0,rob ver 1B,2013-05-29 05:30:00,
2013-05-28 22:31:00,82.6,45.0,29.15,South,191,10.9,13.3,26,-99.99,,,0.00,0,rob ver 1B,2013-05-29 05:31:00,
2013-05-28 22:32:00,82.6,45.0,29.15,South,188,9.6,11.8,26,-99.99,,,0.00,0,rob ver 1B,2013-05-29 05:32:00,
2013-05-28 22:33:00,82.1,46.4,29.12,South,172,11.3,13.7,28,-99.99,,,0.00,0,rob ver 1A,2013-05-29 05:33:00,
2013-05-28 22:34:00,82.4,45.0,29.15,South,188,9.8,12.3,26,-99.99,,,0.00,0,rob ver 1B,2013-05-29 05:34:00,
2013-05-28 22:35:00,82.4,45.0,29.15,South,187,8.4,11.4,26,-99.99,,,0.00,0,rob ver 1B,2013-05-29 05:35:00,
2013-05-28 22:36:00,82.4,44.9,29.15,South,187,9.1,11.3,26,-99.99,,,0.00,0,rob ver 1B,2013-05-29 05:36:00,
2013-05-28 22:37:00,82.4,44.9,29.15,South,188,9.8,12.9,26,-99.99,,,0.00,0,rob ver 1B,2013-05-29 05:37:00,
2013-05-28 22:38:00,81.9,46.5,29.12,South,170,10.6,12.8,28,-99.99,,,0.00,0,rob ver 1A,2013-05-29 05:38:00,
2013-05-28 22:39:00,82.3,44.9,29.15,South,185,8.3,11.0,26,-99.99,,,0.00,0,rob ver 1B,2013-05-29 05:39:00,
2013-05-28 22:40:00,82.3,44.9,29.15,South,187,7.5,9.6,26,-99.99,,,0.00,0,rob ver 1B,2013-05-29 05:40:00,
2013-05-28 22:41:00,82.2,44.9,29.15,South,183,9.2,10.9,27,-99.99,,,0.00,0,rob ver 1B,2013-05-29 05:41:00,
2013-05-28 22:42:00,82.2,45.0,29.15,South,183,7.9,11.0,27,-99.99,,,0.00,0,rob ver 1B,2013-05-29 05:42:00,
2013-05-28 22:43:00,82.2,45.0,29.15,South,183,7.6,9.6,27,-99.99,,,0.00,0,rob ver 1B,2013-05-29 05:43:00,
2013-05-28 22:44:00,81.7,46.5,29.12,South,183,9.8,12.7,29,-99.99,,,0.00,0,rob ver 1A,2013-05-29 05:44:00,
2013-05-28 22:45:00,82.1,45.0,29.15,South,183,7.6,9.0,27,-99.99,,,0.00,0,rob ver 1B,2013-05-29 05:45:00,
2013-05-28 22:46:00,82.1,45.0,29.15,South,185,7.7,10.4,27,-99.99,,,0.00,0,rob ver 1B,2013-05-29 05:46:00,
2013-05-28 22:47:00,82.1,45.1,29.15,South,184,7.4,8.7,27,-99.99,,,0.00,0,rob ver 1B,2013-05-29 05:47:00,
2013-05-28 22:48:00,82.0,45.0,29.15,South,184,5.6,7.5,27,-99.99,,,0.00,0,rob ver 1B,2013-05-29 05:48:00,
2013-05-28 22:49:00,81.4,46.4,29.12,South,172,10.1,12.4,29,-99.99,,,0.00,0,rob ver 1A,2013-05-29 05:49:00,
2013-05-28 22:50:00,81.9,45.2,29.15,South,191,6.5,7.8,27,-99.99,,,0.00,0,rob ver 1B,2013-05-29 05:50:00,
2013-05-28 22:51:00,81.9,45.2,29.18,SSW,193,7.1,9.2,27,-99.99,,,0.00,0,rob ver 1B,2013-05-29 05:51:00,
2013-05-28 22:52:00,81.8,45.3,29.15,SSW,195,8.3,10.5,27,-99.99,,,0.00,0,rob ver 1B,2013-05-29 05:52:00,
2013-05-28 22:53:00,81.8,45.2,29.15,SSW,198,7.5,9.6,27,-99.99,,,0.00,0,rob ver 1B,2013-05-29 05:53:00,
2013-05-28 22:54:00,81.3,46.1,29.12,SSE,163,9.8,12.3,28,-99.99,,,0.00,0,rob ver 1A,2013-05-29 05:54:00,
2013-05-28 22:55:00,81.8,45.3,29.15,SSW,200,8.7,10.6,27,-99.99,,,0.00,0,rob ver 1B,2013-05-29 05:55:00,
2013-05-28 22:56:00,81.8,45.4,29.15,SSW,203,7.9,9.8,27,-99.99,,,0.00,0,rob ver 1B,2013-05-29 05:56:00,
2013-05-28 22:57:00,81.7,45.4,29.15,SSW,203,7.2,8.6,28,-99.99,,,0.00,0,rob ver 1B,2013-05-29 05:57:00,
2013-05-28 22:58:00,81.6,45.6,29.18,SSW,207,7.5,8.7,28,-99.99,,,0.00,0,rob ver 1B,2013-05-29 05:58:00,
2013-05-28 22:59:00,81.5,45.8,29.18,SSW,209,7.8,8.8,28,-99.99,,,0.00,0,rob ver 1B,2013-05-29 05:59:00,
2013-05-28 23:00:00,81.3,46.0,29.12,SSE,166,10.8,12.9,28,-99.99,,,0.00,0,rob ver 1A,2013-05-29 06:00:00,
2013-05-28 23:01:00,81.3,46.2,29.15,SSW,203,6.9,8.8,29,-99.99,,,0.00,0,rob ver 1B,2013-05-29 06:01:00,
2013-05-28 23:02:00,81.2,46.3,29.15,SSW,202,6.1,7.4,29,-99.99,,,0.00,0,rob ver 1B,2013-05-29 06:02:00,
2013-05-28 23:03:00,81.1,46.5,29.15,SSW,200,7.4,8.5,29,-99.99,,,0.00,0,rob ver 1B,2013-05-29 06:03:00,
2013-05-28 23:04:00,81.0,46.5,29.18,SSW,203,6.3,7.5,29,-99.99,,,0.00,0,rob ver 1B,2013-05-29 06:04:00,
2013-05-28 23:05:00,81.1,46.1,29.12,South,171,10.5,12.6,29,-99.99,,,0.00,0,rob ver 1A,2013-05-29 06:05:00,
2013-05-28 23:06:00,80.8,46.8,29.18,SSW,206,7.5,9.0,30,-99.99,,,0.00,0,rob ver 1B,2013-05-29 06:06:00,
2013-05-28 23:07:00,80.7,47.1,29.18,SSW,204,7.4,8.6,30,-99.99,,,0.00,0,rob ver 1B,2013-05-29 06:07:00,
2013-05-28 23:08:00,80.6,47.2,29.18,SSW,202,6.9,8.7,30,-99.99,,,0.00,0,rob ver 1B,2013-05-29 06:08:00,
2013-05-28 23:09:00,80.5,47.2,29.18,SSW,202,7.5,9.1,31,-99.99,,,0.00,0,rob ver 1B,2013-05-29 06:09:00,
2013-05-28 23:10:00,80.9,46.4,29.12,South,172,11.8,13.7,29,-99.99,,,0.00,0,rob ver 1A,2013-05-29 06:10:00,
2013-05-28 23:11:00,80.3,47.4,29.18,SSW,197,7.0,8.5,31,-99.99,,,0.00,0,rob ver 1B,2013-05-29 06:11:00,
2013-05-28 23:12:00,80.2,47.5,29.18,SSW,196,6.9,8.5,31,-99.99,,,0.00,0,rob ver 1B,2013-05-29 06:12:00,
2013-05-28 23:13:00,80.1,47.5,29.18,SSW,194,6.5,8.4,31,-99.99,,,0.00,0,rob ver 1B,2013-05-29 06:13:00,
2013-05-28 23:14:00,80.1,47.6,29.18,SSW,194,6.7,8.1,32,-99.99,,,0.00,0,rob ver 1B,2013-05-29 06:14:00,
2013-05-28 23:15:00,80.0,47.6,29.18,SSW,196,7.0,8.7,32,-99.99,,,0.00,0,rob ver 1B,2013-05-29 06:15:00,
2013-05-28 23:16:00,80.7,46.2,29.12,SSE,165,11.3,14.1,29,-99.99,,,0.00,0,rob ver 1A,2013-05-29 06:16:00,
2013-05-28 23:17:00,79.9,47.8,29.18,SSW,196,7.4,9.3,32,-99.99,,,0.00,0,rob ver 1B,2013-05-29 06:17:00,
2013-05-28 23:18:00,79.8,47.7,29.18,SSW,197,7.7,9.1,32,-99.99,,,0.00,0,rob ver 1B,2013-05-29 06:18:00,
2013-05-28 23:19:00,79.8,47.8,29.18,SSW,198,7.0,8.7,32,-99.99,,,0.00,0,rob ver 1B,2013-05-29 06:19:00,
2013-05-28 23:20:00,79.8,47.7,29.18,SSW,198,7.0,8.2,32,-99.99,,,0.00,0,rob ver 1B,2013-05-29 06:20:00,
2013-05-28 23:21:00,80.5,46.1,29.12,South,173,8.7,10.2,29,-99.99,,,0.00,0,rob ver 1A,2013-05-29 06:21:00,
2013-05-28 23:22:00,79.7,47.8,29.18,SSW,200,7.3,8.7,32,-99.99,,,0.00,0,rob ver 1B,2013-05-29 06:22:00,
2013-05-28 23:23:00,79.7,47.8,29.18,SSW,200,7.6,9.3,32,-99.99,,,0.00,0,rob ver 1B,2013-05-29 06:23:00,
2013-05-28 23:24:00,79.7,47.8,29.18,SSW,203,7.4,8.3,32,-99.99,,,0.00,0,rob ver 1B,2013-05-29 06:24:00,
2013-05-28 23:25:00,79.6,47.9,29.18,SSW,201,6.8,8.1,32,-99.99,,,0.00,0,rob ver 1B,2013-05-29 06:25:00,
2013-05-28 23:26:00,80.4,46.5,29.12,South,175,13.6,16.2,30,-99.99,,,0.00,0,rob ver 1A,2013-05-29 06:26:00,
2013-05-28 23:27:00,79.5,48.0,29.18,SSW,204,7.7,8.8,33,-99.99,,,0.00,0,rob ver 1B,2013-05-29 06:27:00,
2013-05-28 23:28:00,79.5,48.1,29.18,SSW,209,7.3,8.3,33,-99.99,,,0.00,0,rob ver 1B,2013-05-29 06:28:00,
2013-05-28 23:29:00,79.5,48.1,29.18,SSW,209,7.4,8.9,33,-99.99,,,0.00,0,rob ver 1B,2013-05-29 06:29:00,
2013-05-28 23:30:00,79.5,48.1,29.18,SSW,210,7.0,8.1,33,-99.99,,,0.00,0,rob ver 1B,2013-05-29 06:30:00,
2013-05-28 23:31:00,79.4,48.2,29.18,SSW,211,7.1,8.3,33,-99.99,,,0.00,0,rob ver 1B,2013-05-29 06:31:00,
2013-05-28 23:32:00,80.2,46.5,29.12,South,182,11.3,13.7,30,-99.99,,,0.00,0,rob ver 1A,2013-05-29 06:32:00,
2013-05-28 23:33:00,79.3,48.3,29.18,SSW,212,8.2,9.7,33,-99.99,,,0.00,0,rob ver 1B,2013-05-29 06:33:00,
2013-05-28 23:34:00,79.3,48.3,29.18,SSW,212,7.9,9.2,33,-99.99,,,0.00,0,rob ver 1B,2013-05-29 06:34:00,
2013-05-28 23:35:00,79.2,48.3,29.18,SSW,213,7.3,9.0,33,-99.99,,,0.00,0,rob ver 1B,2013-05-29 06:35:00,
2013-05-28 23:36:00,79.2,48.4,29.18,SSW,213,7.3,8.5,34,-99.99,,,0.00,0,rob ver 1B,2013-05-29 06:36:00,
2013-05-28 23:37:00,80.0,46.7,29.12,South,189,10.1,12.1,30,-99.99,,,0.00,0,rob ver 1A,2013-05-29 06:37:00,
2013-05-28 23:38:00,79.1,48.6,29.15,SSW,211,8.6,10.0,34,-99.99,,,0.00,0,rob ver 1B,2013-05-29 06:38:00,
2013-05-28 23:39:00,79.1,48.7,29.15,SSW,212,7.5,9.1,34,-99.99,,,0.00,0,rob ver 1B,2013-05-29 06:39:00,
2013-05-28 23:40:00,79.0,48.7,29.18,SSW,211,7.1,8.8,34,-99.99,,,0.00,0,rob ver 1B,2013-05-29 06:40:00,
2013-05-28 23:41:00,78.9,48.8,29.18,SSW,210,7.8,9.1,34,-99.99,,,0.00,0,rob ver 1B,2013-05-29 06:41:00,
2013-05-28 23:42:00,79.7,46.8,29.12,SSW,196,8.6,10.9,31,-99.99,,,0.00,0,rob ver 1A,2013-05-29 06:42:00,
2013-05-28 23:43:00,78.8,49.0,29.18,SSW,212,7.8,9.0,35,-99.99,,,0.00,0,rob ver 1B,2013-05-29 06:43:00,
2013-05-28 23:44:00,78.7,49.2,29.18,SSW,212,8.8,10.9,35,-99.99,,,0.00,0,rob ver 1B,2013-05-29 06:44:00,
2013-05-28 23:45:00,78.7,49.3,29.18,SSW,212,8.5,10.5,35,-99.99,,,0.00,0,rob ver 1B,2013-05-29 06:45:00,
2013-05-28 23:46:00,78.7,49.3,29.18,SSW,212,8.1,9.8,35,-99.99,,,0.00,0,rob ver 1B,2013-05-29 06:46:00,
2013-05-28 23:47:00,78.7,49.4,29.18,SSW,213,8.7,10.2,35,-99.99,,,0.00,0,rob ver 1B,2013-05-29 06:47:00,
2013-05-28 23:48:00,79.6,46.7,29.12,South,185,9.4,11.7,31,-99.99,,,0.00,0,rob ver 1A,2013-05-29 06:48:00,
2013-05-28 23:49:00,78.7,49.4,29.18,SSW,211,8.4,9.8,35,-99.99,,,0.00,0,rob ver 1B,2013-05-29 06:49:00,
2013-05-28 23:50:00,78.6,49.4,29.18,SSW,213,8.3,10.4,35,-99.99,,,0.00,0,rob ver 1B,2013-05-29 06:50:00,
2013-05-28 23:51:00,78.6,49.4,29.18,SW,214,8.4,10.2,36,-99.99,,,0.00,0,rob ver 1B,2013-05-29 06:51:00,
2013-05-28 23:52:00,78.6,49.5,29.18,SSW,211,8.6,10.2,36,-99.99,,,0.00,0,rob ver 1B,2013-05-29 06:52:00,
2013-05-28 23:53:00,78.6,49.5,29.18,SSW,210,8.2,10.0,36,-99.99,,,0.00,0,rob ver 1B,2013-05-29 06:53:00,
2013-05-28 23:54:00,79.4,46.6,29.12,South,183,8.4,11.3,31,-99.99,,,0.00,0,rob ver 1A,2013-05-29 06:54:00,
2013-05-28 23:55:00,78.6,49.5,29.18,SSW,212,8.6,9.8,36,-99.99,,,0.00,0,rob ver 1B,2013-05-29 06:55:00,
2013-05-28 23:56:00,78.6,49.4,29.18,SSW,210,7.0,8.3,36,-99.99,,,0.00,0,rob ver 1B,2013-05-29 06:56:00,
2013-05-28 23:57:00,78.6,49.4,29.18,SSW,212,6.6,8.3,35,-99.99,,,0.00,0,rob ver 1B,2013-05-29 06:57:00,
2013-05-28 23:58:00,78.5,49.4,29.18,SSW,210,7.2,9.0,35,-99.99,,,0.00,0,rob ver 1B,2013-05-29 06:58:00,
2013-05-28 23:59:00,79.2,46.8,29.12,SSW,192,9.9,11.7,31,-99.99,,,0.00,0,rob ver 1A,2013-05-29 06:59:00,